Wetterdaten: Mittwoch, 22.05.2019
Datum Zeit Temp. A. Feuchte A. Luftdruck Regen Wind Richtung Richtung Sonnenschein ET UV Solar Taupunkt Windchill Windböen
22.05.2019 00:00 8,4 °C 93 % 1014,3 hPa 0,0 mm 11,3 km/h (2 Bft) W 267 ° 0 min 0,000 mm 0,0 UV-I 0 W/m² 7,3 °C 6,5 °C 14,5 km/h (3 Bft)
22.05.2019 00:01 8,4 °C 93 % 1014,3 hPa 0,0 mm 9,4 km/h (2 Bft) W-SW 240 ° 0 min 0,000 mm 0,0 UV-I 0 W/m² 7,3 °C 6,8 °C 16,1 km/h (3 Bft)
22.05.2019 00:02 8,4 °C 93 % 1014,3 hPa 0,0 mm 15,8 km/h (3 Bft) W 279 ° 0 min 0,000 mm 0,0 UV-I 0 W/m² 7,3 °C 5,8 °C 17,7 km/h (3 Bft)
22.05.2019 00:03 8,4 °C 93 % 1014,3 hPa 0,0 mm 10,6 km/h (2 Bft) W 261 ° 0 min 0,000 mm 0,0 UV-I 0 W/m² 7,3 °C 6,6 °C 17,7 km/h (3 Bft)
22.05.2019 00:04 8,4 °C 93 % 1014,2 hPa 0,0 mm 8,0 km/h (2 Bft) W 262 ° 0 min 0,000 mm 0,0 UV-I 0 W/m² 7,3 °C 7,1 °C 12,9 km/h (3 Bft)
22.05.2019 00:05 8,4 °C 93 % 1014,2 hPa 0,0 mm 5,6 km/h (1 Bft) W 260 ° 0 min 0,000 mm 0,0 UV-I 0 W/m² 7,3 °C 7,7 °C 12,9 km/h (3 Bft)
22.05.2019 00:06 8,4 °C 93 % 1014,3 hPa 0,2 mm 6,0 km/h (2 Bft) W-SW 244 ° 0 min 0,000 mm 0,0 UV-I 0 W/m² 7,3 °C 7,6 °C 11,3 km/h (2 Bft)
22.05.2019 00:07 8,4 °C 93 % 1014,3 hPa 0,0 mm 10,7 km/h (2 Bft) W 269 ° 0 min 0,000 mm 0,0 UV-I 0 W/m² 7,3 °C 6,6 °C 16,1 km/h (3 Bft)
22.05.2019 00:08 8,4 °C 93 % 1014,3 hPa 0,0 mm 8,2 km/h (2 Bft) W-SW 248 ° 0 min 0,000 mm 0,0 UV-I 0 W/m² 7,3 °C 7,1 °C 11,3 km/h (2 Bft)
22.05.2019 00:09 8,4 °C 93 % 1014,3 hPa 0,0 mm 7,7 km/h (2 Bft) W-SW 237 ° 0 min 0,000 mm 0,0 UV-I 0 W/m² 7,3 °C 7,2 °C 12,9 km/h (3 Bft)
22.05.2019 00:10 8,4 °C 93 % 1014,3 hPa 0,0 mm 4,0 km/h (1 Bft) W-SW 246 ° 0 min 0,000 mm 0,0 UV-I 0 W/m² 7,3 °C 8,4 °C 9,7 km/h (2 Bft)
22.05.2019 00:11 8,3 °C 93 % 1014,3 hPa 0,0 mm 5,1 km/h (1 Bft) S-SW 194 ° 0 min 0,000 mm 0,0 UV-I 0 W/m² 7,2 °C 7,8 °C 8,0 km/h (2 Bft)
22.05.2019 00:12 8,4 °C 93 % 1014,3 hPa 0,0 mm 11,5 km/h (2 Bft) W 267 ° 0 min 0,000 mm 0,0 UV-I 0 W/m² 7,3 °C 6,5 °C 20,9 km/h (4 Bft)
22.05.2019 00:13 8,4 °C 93 % 1014,3 hPa 0,0 mm 9,9 km/h (2 Bft) SW 224 ° 0 min 0,000 mm 0,0 UV-I 0 W/m² 7,3 °C 6,7 °C 17,7 km/h (3 Bft)
22.05.2019 00:14 8,4 °C 93 % 1014,4 hPa 0,2 mm 4,6 km/h (1 Bft) W 272 ° 0 min 0,000 mm 0,0 UV-I 0 W/m² 7,3 °C 8,1 °C 12,9 km/h (3 Bft)
22.05.2019 00:15 8,4 °C 93 % 1014,3 hPa 0,0 mm 7,0 km/h (2 Bft) SW 234 ° 0 min 0,000 mm 0,0 UV-I 0 W/m² 7,3 °C 7,4 °C 12,9 km/h (3 Bft)
22.05.2019 00:16 8,4 °C 93 % 1014,3 hPa 0,0 mm 5,8 km/h (2 Bft) W 263 ° 0 min 0,000 mm 0,0 UV-I 0 W/m² 7,3 °C 7,7 °C 9,7 km/h (2 Bft)
22.05.2019 00:17 8,4 °C 93 % 1014,3 hPa 0,0 mm 3,1 km/h (1 Bft) W 280 ° 0 min 0,000 mm 0,0 UV-I 0 W/m² 7,3 °C 8,4 °C 6,4 km/h (2 Bft)
22.05.2019 00:18 8,4 °C 93 % 1014,3 hPa 0,0 mm 6,4 km/h (2 Bft) SW 222 ° 0 min 0,000 mm 0,0 UV-I 0 W/m² 7,3 °C 7,5 °C 16,1 km/h (3 Bft)
22.05.2019 00:19 8,4 °C 93 % 1014,2 hPa 0,0 mm 4,7 km/h (1 Bft) W-SW 255 ° 0 min 0,000 mm 0,0 UV-I 0 W/m² 7,3 °C 8,0 °C 11,3 km/h (2 Bft)
22.05.2019 00:20 8,4 °C 93 % 1014,3 hPa 0,0 mm 4,1 km/h (1 Bft) W-SW 246 ° 0 min 0,000 mm 0,0 UV-I 0 W/m² 7,3 °C 8,4 °C 8,0 km/h (2 Bft)
22.05.2019 00:21 8,4 °C 93 % 1014,3 hPa 0,0 mm 4,7 km/h (1 Bft) W-SW 252 ° 0 min 0,000 mm 0,0 UV-I 0 W/m² 7,3 °C 8,0 °C 6,4 km/h (2 Bft)
22.05.2019 00:22 8,3 °C 93 % 1014,2 hPa 0,2 mm 3,8 km/h (1 Bft) SW 232 ° 0 min 0,000 mm 0,0 UV-I 0 W/m² 7,2 °C 8,3 °C 6,4 km/h (2 Bft)
22.05.2019 00:23 8,4 °C 93 % 1014,3 hPa 0,0 mm 2,4 km/h (1 Bft) SW 225 ° 0 min 0,000 mm 0,0 UV-I 0 W/m² 7,3 °C 8,4 °C 4,8 km/h (1 Bft)
22.05.2019 00:24 8,4 °C 93 % 1014,3 hPa 0,0 mm 9,5 km/h (2 Bft) W-SW 249 ° 0 min 0,000 mm 0,0 UV-I 0 W/m² 7,3 °C 6,8 °C 14,5 km/h (3 Bft)
22.05.2019 00:25 8,4 °C 93 % 1014,3 hPa 0,0 mm 6,5 km/h (2 Bft) W 269 ° 0 min 0,000 mm 0,0 UV-I 0 W/m² 7,3 °C 7,5 °C 11,3 km/h (2 Bft)
22.05.2019 00:26 8,3 °C 93 % 1014,3 hPa 0,0 mm 9,1 km/h (2 Bft) SW 221 ° 0 min 0,000 mm 0,0 UV-I 0 W/m² 7,2 °C 6,8 °C 16,1 km/h (3 Bft)
22.05.2019 00:27 8,3 °C 93 % 1014,3 hPa 0,0 mm 5,1 km/h (1 Bft) W 275 ° 0 min 0,000 mm 0,0 UV-I 0 W/m² 7,2 °C 7,8 °C 11,3 km/h (2 Bft)
22.05.2019 00:28 8,3 °C 93 % 1014,4 hPa 0,0 mm 3,2 km/h (1 Bft) W-SW 238 ° 0 min 0,000 mm 0,0 UV-I 0 W/m² 7,2 °C 8,3 °C 8,0 km/h (2 Bft)
22.05.2019 00:29 8,3 °C 93 % 1014,3 hPa 0,0 mm 4,8 km/h (1 Bft) W 259 ° 0 min 0,000 mm 0,0 UV-I 0 W/m² 7,2 °C 7,9 °C 9,7 km/h (2 Bft)
22.05.2019 00:30 8,3 °C 93 % 1014,4 hPa 0,2 mm 3,0 km/h (1 Bft) W 277 ° 0 min 0,000 mm 0,0 UV-I 0 W/m² 7,2 °C 8,3 °C 11,3 km/h (2 Bft)
22.05.2019 00:31 8,4 °C 93 % 1014,4 hPa 0,0 mm 5,4 km/h (1 Bft) W 270 ° 0 min 0,000 mm 0,0 UV-I 0 W/m² 7,3 °C 7,8 °C 11,3 km/h (2 Bft)
22.05.2019 00:32 8,4 °C 93 % 1014,4 hPa 0,0 mm 4,5 km/h (1 Bft) W 273 ° 0 min 0,000 mm 0,0 UV-I 0 W/m² 7,3 °C 8,4 °C 8,0 km/h (2 Bft)
22.05.2019 00:33 8,3 °C 93 % 1014,4 hPa 0,0 mm 3,7 km/h (1 Bft) W-SW 254 ° 0 min 0,000 mm 0,0 UV-I 0 W/m² 7,2 °C 8,3 °C 6,4 km/h (2 Bft)
22.05.2019 00:34 8,4 °C 93 % 1014,4 hPa 0,0 mm 3,4 km/h (1 Bft) W-SW 257 ° 0 min 0,000 mm 0,0 UV-I 0 W/m² 7,3 °C 8,4 °C 6,4 km/h (2 Bft)
22.05.2019 00:35 8,3 °C 93 % 1014,4 hPa 0,0 mm 7,3 km/h (2 Bft) W-SW 255 ° 0 min 0,000 mm 0,0 UV-I 0 W/m² 7,2 °C 7,2 °C 11,3 km/h (2 Bft)
22.05.2019 00:36 8,3 °C 93 % 1014,4 hPa 0,0 mm 6,0 km/h (2 Bft) W-SW 240 ° 0 min 0,000 mm 0,0 UV-I 0 W/m² 7,2 °C 7,5 °C 9,7 km/h (2 Bft)
22.05.2019 00:37 8,3 °C 93 % 1014,4 hPa 0,0 mm 7,3 km/h (2 Bft) W 263 ° 0 min 0,000 mm 0,0 UV-I 0 W/m² 7,2 °C 7,2 °C 12,9 km/h (3 Bft)
22.05.2019 00:38 8,3 °C 93 % 1014,4 hPa 0,2 mm 4,0 km/h (1 Bft) W 262 ° 0 min 0,000 mm 0,0 UV-I 0 W/m² 7,2 °C 8,3 °C 8,0 km/h (2 Bft)
22.05.2019 00:39 8,3 °C 93 % 1014,4 hPa 0,0 mm 5,6 km/h (1 Bft) W-SW 240 ° 0 min 0,000 mm 0,0 UV-I 0 W/m² 7,2 °C 7,6 °C 9,7 km/h (2 Bft)
22.05.2019 00:40 8,3 °C 93 % 1014,4 hPa 0,0 mm 6,6 km/h (2 Bft) W 277 ° 0 min 0,000 mm 0,0 UV-I 0 W/m² 7,2 °C 7,4 °C 14,5 km/h (3 Bft)
22.05.2019 00:41 8,4 °C 93 % 1014,4 hPa 0,0 mm 11,5 km/h (2 Bft) SW 227 ° 0 min 0,000 mm 0,0 UV-I 0 W/m² 7,3 °C 6,5 °C 16,1 km/h (3 Bft)
22.05.2019 00:42 8,3 °C 93 % 1014,4 hPa 0,0 mm 4,7 km/h (1 Bft) W-SW 252 ° 0 min 0,000 mm 0,0 UV-I 0 W/m² 7,2 °C 7,9 °C 11,3 km/h (2 Bft)
22.05.2019 00:43 8,3 °C 93 % 1014,4 hPa 0,0 mm 12,6 km/h (3 Bft) W 279 ° 0 min 0,000 mm 0,0 UV-I 0 W/m² 7,2 °C 6,2 °C 22,5 km/h (4 Bft)
22.05.2019 00:44 8,3 °C 93 % 1014,4 hPa 0,0 mm 9,7 km/h (2 Bft) S 183 ° 0 min 0,000 mm 0,0 UV-I 0 W/m² 7,2 °C 6,7 °C 16,1 km/h (3 Bft)
22.05.2019 00:45 8,4 °C 93 % 1014,4 hPa 0,0 mm 6,6 km/h (2 Bft) SW 225 ° 0 min 0,000 mm 0,0 UV-I 0 W/m² 7,3 °C 7,5 °C 19,3 km/h (3 Bft)
22.05.2019 00:46 8,4 °C 93 % 1014,4 hPa 0,2 mm 12,8 km/h (3 Bft) W 270 ° 0 min 0,000 mm 0,0 UV-I 0 W/m² 7,3 °C 6,3 °C 20,9 km/h (4 Bft)
22.05.2019 00:47 8,4 °C 93 % 1014,4 hPa 0,0 mm 7,0 km/h (2 Bft) SW 223 ° 0 min 0,000 mm 0,0 UV-I 0 W/m² 7,3 °C 7,4 °C 12,9 km/h (3 Bft)
22.05.2019 00:48 8,4 °C 93 % 1014,4 hPa 0,0 mm 7,0 km/h (2 Bft) W-NW 285 ° 0 min 0,000 mm 0,0 UV-I 0 W/m² 7,3 °C 7,4 °C 12,9 km/h (3 Bft)
22.05.2019 00:49 8,4 °C 93 % 1014,4 hPa 0,0 mm 9,2 km/h (2 Bft) W-SW 242 ° 0 min 0,000 mm 0,0 UV-I 0 W/m² 7,3 °C 6,9 °C 12,9 km/h (3 Bft)
22.05.2019 00:50 8,4 °C 93 % 1014,4 hPa 0,0 mm 11,4 km/h (2 Bft) SW 234 ° 0 min 0,000 mm 0,0 UV-I 0 W/m² 7,3 °C 6,5 °C 17,7 km/h (3 Bft)
22.05.2019 00:51 8,4 °C 93 % 1014,4 hPa 0,0 mm 9,3 km/h (2 Bft) S-SW 208 ° 0 min 0,000 mm 0,0 UV-I 0 W/m² 7,3 °C 6,9 °C 17,7 km/h (3 Bft)
22.05.2019 00:52 8,4 °C 93 % 1014,4 hPa 0,0 mm 11,2 km/h (2 Bft) W 259 ° 0 min 0,000 mm 0,0 UV-I 0 W/m² 7,3 °C 6,5 °C 16,1 km/h (3 Bft)
22.05.2019 00:53 8,4 °C 93 % 1014,4 hPa 0,0 mm 5,2 km/h (1 Bft) W-NW 282 ° 0 min 0,000 mm 0,0 UV-I 0 W/m² 7,3 °C 7,9 °C 11,3 km/h (2 Bft)
22.05.2019 00:54 8,4 °C 93 % 1014,5 hPa 0,2 mm 7,0 km/h (2 Bft) W-SW 258 ° 0 min 0,000 mm 0,0 UV-I 0 W/m² 7,3 °C 7,4 °C 11,3 km/h (2 Bft)
22.05.2019 00:55 8,4 °C 93 % 1014,4 hPa 0,0 mm 5,1 km/h (1 Bft) W-SW 246 ° 0 min 0,000 mm 0,0 UV-I 0 W/m² 7,3 °C 7,9 °C 9,7 km/h (2 Bft)
22.05.2019 00:56 8,4 °C 93 % 1014,5 hPa 0,0 mm 5,8 km/h (2 Bft) W-SW 238 ° 0 min 0,000 mm 0,0 UV-I 0 W/m² 7,3 °C 7,7 °C 9,7 km/h (2 Bft)
22.05.2019 00:57 8,4 °C 93 % 1014,5 hPa 0,0 mm 8,3 km/h (2 Bft) W 263 ° 0 min 0,000 mm 0,0 UV-I 0 W/m² 7,3 °C 7,1 °C 14,5 km/h (3 Bft)
22.05.2019 00:58 8,4 °C 93 % 1014,4 hPa 0,0 mm 6,2 km/h (2 Bft) W-SW 240 ° 0 min 0,000 mm 0,0 UV-I 0 W/m² 7,3 °C 7,6 °C 12,9 km/h (3 Bft)
22.05.2019 00:59 8,4 °C 93 % 1014,5 hPa 0,0 mm 6,8 km/h (2 Bft) W 266 ° 0 min 0,000 mm 0,0 UV-I 0 W/m² 7,3 °C 7,4 °C 14,5 km/h (3 Bft)
22.05.2019 01:00 8,4 °C 93 % 1014,5 hPa 0,0 mm 5,7 km/h (1 Bft) W-SW 249 ° 0 min 0,000 mm 0,0 UV-I 0 W/m² 7,3 °C 7,7 °C 9,7 km/h (2 Bft)
22.05.2019 01:01 8,4 °C 93 % 1014,5 hPa 0,2 mm 5,0 km/h (1 Bft) W 262 ° 0 min 0,000 mm 0,0 UV-I 0 W/m² 7,3 °C 7,9 °C 11,3 km/h (2 Bft)
22.05.2019 01:02 8,4 °C 93 % 1014,5 hPa 0,0 mm 6,2 km/h (2 Bft) W 265 ° 0 min 0,000 mm 0,0 UV-I 0 W/m² 7,3 °C 7,6 °C 11,3 km/h (2 Bft)
22.05.2019 01:03 8,4 °C 93 % 1014,5 hPa 0,0 mm 9,1 km/h (2 Bft) W-SW 254 ° 0 min 0,000 mm 0,0 UV-I 0 W/m² 7,3 °C 6,9 °C 20,9 km/h (4 Bft)
22.05.2019 01:04 8,4 °C 93 % 1014,5 hPa 0,0 mm 8,2 km/h (2 Bft) W-SW 254 ° 0 min 0,000 mm 0,0 UV-I 0 W/m² 7,3 °C 7,1 °C 14,5 km/h (3 Bft)
22.05.2019 01:05 8,4 °C 93 % 1014,5 hPa 0,0 mm 4,5 km/h (1 Bft) W-SW 257 ° 0 min 0,000 mm 0,0 UV-I 0 W/m² 7,3 °C 8,4 °C 9,7 km/h (2 Bft)
22.05.2019 01:06 8,4 °C 93 % 1014,5 hPa 0,0 mm 6,9 km/h (2 Bft) W 276 ° 0 min 0,000 mm 0,0 UV-I 0 W/m² 7,3 °C 7,4 °C 9,7 km/h (2 Bft)
22.05.2019 01:07 8,4 °C 93 % 1014,5 hPa 0,0 mm 7,0 km/h (2 Bft) S 182 ° 0 min 0,000 mm 0,0 UV-I 0 W/m² 7,3 °C 7,4 °C 12,9 km/h (3 Bft)
22.05.2019 01:08 8,4 °C 93 % 1014,5 hPa 0,0 mm 7,0 km/h (2 Bft) W-SW 254 ° 0 min 0,000 mm 0,0 UV-I 0 W/m² 7,3 °C 7,4 °C 12,9 km/h (3 Bft)
22.05.2019 01:09 8,4 °C 93 % 1014,5 hPa 0,2 mm 5,6 km/h (1 Bft) SW 219 ° 0 min 0,000 mm 0,0 UV-I 0 W/m² 7,3 °C 7,7 °C 9,7 km/h (2 Bft)
22.05.2019 01:10 8,4 °C 93 % 1014,4 hPa 0,0 mm 8,4 km/h (2 Bft) W-SW 258 ° 0 min 0,000 mm 0,0 UV-I 0 W/m² 7,3 °C 7,0 °C 16,1 km/h (3 Bft)
22.05.2019 01:11 8,5 °C 93 % 1014,4 hPa 0,0 mm 14,4 km/h (3 Bft) W-SW 258 ° 0 min 0,000 mm 0,0 UV-I 0 W/m² 7,4 °C 6,1 °C 25,7 km/h (4 Bft)
22.05.2019 01:12 8,4 °C 93 % 1014,4 hPa 0,0 mm 7,1 km/h (2 Bft) W-SW 250 ° 0 min 0,000 mm 0,0 UV-I 0 W/m² 7,3 °C 7,3 °C 12,9 km/h (3 Bft)
22.05.2019 01:13 8,4 °C 93 % 1014,4 hPa 0,0 mm 4,6 km/h (1 Bft) S 187 ° 0 min 0,000 mm 0,0 UV-I 0 W/m² 7,3 °C 8,1 °C 8,0 km/h (2 Bft)
22.05.2019 01:14 8,4 °C 93 % 1014,4 hPa 0,0 mm 3,0 km/h (1 Bft) W-SW 243 ° 0 min 0,000 mm 0,0 UV-I 0 W/m² 7,3 °C 8,4 °C 6,4 km/h (2 Bft)
22.05.2019 01:15 8,5 °C 93 % 1014,4 hPa 0,0 mm 10,0 km/h (2 Bft) S-SW 209 ° 0 min 0,000 mm 0,0 UV-I 0 W/m² 7,4 °C 6,8 °C 16,1 km/h (3 Bft)
22.05.2019 01:16 8,5 °C 93 % 1014,4 hPa 0,2 mm 5,4 km/h (1 Bft) W 259 ° 0 min 0,000 mm 0,0 UV-I 0 W/m² 7,4 °C 7,9 °C 8,0 km/h (2 Bft)
22.05.2019 01:17 8,5 °C 93 % 1014,4 hPa 0,0 mm 6,1 km/h (2 Bft) S-SW 209 ° 0 min 0,000 mm 0,0 UV-I 0 W/m² 7,4 °C 7,7 °C 14,5 km/h (3 Bft)
22.05.2019 01:18 8,4 °C 93 % 1014,4 hPa 0,0 mm 10,0 km/h (2 Bft) W 263 ° 0 min 0,000 mm 0,0 UV-I 0 W/m² 7,3 °C 6,7 °C 14,5 km/h (3 Bft)
22.05.2019 01:19 8,5 °C 93 % 1014,4 hPa 0,0 mm 8,2 km/h (2 Bft) SW 233 ° 0 min 0,000 mm 0,0 UV-I 0 W/m² 7,4 °C 7,2 °C 11,3 km/h (2 Bft)
22.05.2019 01:20 8,4 °C 94 % 1014,4 hPa 0,0 mm 7,3 km/h (2 Bft) S-SW 198 ° 0 min 0,000 mm 0,0 UV-I 0 W/m² 7,5 °C 7,3 °C 12,9 km/h (3 Bft)
22.05.2019 01:21 8,5 °C 94 % 1014,4 hPa 0,0 mm 10,3 km/h (2 Bft) W-SW 241 ° 0 min 0,000 mm 0,0 UV-I 0 W/m² 7,6 °C 6,8 °C 14,5 km/h (3 Bft)
22.05.2019 01:22 8,5 °C 94 % 1014,4 hPa 0,0 mm 10,9 km/h (2 Bft) W-SW 254 ° 0 min 0,000 mm 0,0 UV-I 0 W/m² 7,6 °C 6,7 °C 17,7 km/h (3 Bft)
22.05.2019 01:23 8,6 °C 94 % 1014,4 hPa 0,0 mm 6,6 km/h (2 Bft) SW 228 ° 0 min 0,000 mm 0,0 UV-I 0 W/m² 7,7 °C 7,7 °C 11,3 km/h (2 Bft)
22.05.2019 01:24 8,5 °C 94 % 1014,4 hPa 0,2 mm 7,9 km/h (2 Bft) W-SW 255 ° 0 min 0,000 mm 0,0 UV-I 0 W/m² 7,6 °C 7,3 °C 16,1 km/h (3 Bft)
22.05.2019 01:25 8,5 °C 94 % 1014,4 hPa 0,0 mm 5,6 km/h (1 Bft) W-SW 251 ° 0 min 0,000 mm 0,0 UV-I 0 W/m² 7,6 °C 7,9 °C 11,3 km/h (2 Bft)
22.05.2019 01:26 8,5 °C 94 % 1014,4 hPa 0,0 mm 3,7 km/h (1 Bft) W 270 ° 0 min 0,000 mm 0,0 UV-I 0 W/m² 7,6 °C 8,5 °C 6,4 km/h (2 Bft)
22.05.2019 01:27 8,5 °C 94 % 1014,4 hPa 0,0 mm 8,1 km/h (2 Bft) W-SW 248 ° 0 min 0,000 mm 0,0 UV-I 0 W/m² 7,6 °C 7,2 °C 14,5 km/h (3 Bft)
22.05.2019 01:28 8,6 °C 93 % 1014,4 hPa 0,0 mm 8,6 km/h (2 Bft) S-SW 202 ° 0 min 0,000 mm 0,0 UV-I 0 W/m² 7,5 °C 7,2 °C 12,9 km/h (3 Bft)
22.05.2019 01:29 8,5 °C 94 % 1014,4 hPa 0,0 mm 7,5 km/h (2 Bft) W-SW 246 ° 0 min 0,000 mm 0,0 UV-I 0 W/m² 7,6 °C 7,4 °C 11,3 km/h (2 Bft)
22.05.2019 01:30 8,6 °C 93 % 1014,3 hPa 0,0 mm 5,7 km/h (1 Bft) SW 224 ° 0 min 0,000 mm 0,0 UV-I 0 W/m² 7,5 °C 7,9 °C 9,7 km/h (2 Bft)
22.05.2019 01:31 8,6 °C 93 % 1014,3 hPa 0,2 mm 10,6 km/h (2 Bft) SW 227 ° 0 min 0,000 mm 0,0 UV-I 0 W/m² 7,5 °C 6,9 °C 17,7 km/h (3 Bft)
22.05.2019 01:32 8,5 °C 94 % 1014,4 hPa 0,0 mm 10,1 km/h (2 Bft) W 261 ° 0 min 0,000 mm 0,0 UV-I 0 W/m² 7,6 °C 6,8 °C 14,5 km/h (3 Bft)
22.05.2019 01:33 8,6 °C 93 % 1014,4 hPa 0,0 mm 7,4 km/h (2 Bft) W-SW 257 ° 0 min 0,000 mm 0,0 UV-I 0 W/m² 7,5 °C 7,5 °C 11,3 km/h (2 Bft)
22.05.2019 01:34 8,6 °C 93 % 1014,4 hPa 0,0 mm 4,1 km/h (1 Bft) W-SW 242 ° 0 min 0,000 mm 0,0 UV-I 0 W/m² 7,5 °C 8,6 °C 9,7 km/h (2 Bft)
22.05.2019 01:35 8,6 °C 93 % 1014,4 hPa 0,0 mm 11,2 km/h (2 Bft) W 262 ° 0 min 0,000 mm 0,0 UV-I 0 W/m² 7,5 °C 6,7 °C 22,5 km/h (4 Bft)
22.05.2019 01:36 8,6 °C 94 % 1014,4 hPa 0,0 mm 8,5 km/h (2 Bft) W 277 ° 0 min 0,000 mm 0,0 UV-I 0 W/m² 7,7 °C 7,3 °C 12,9 km/h (3 Bft)
22.05.2019 01:37 8,6 °C 93 % 1014,3 hPa 0,0 mm 10,0 km/h (2 Bft) W 266 ° 0 min 0,000 mm 0,0 UV-I 0 W/m² 7,5 °C 7,0 °C 14,5 km/h (3 Bft)
22.05.2019 01:38 8,6 °C 93 % 1014,4 hPa 0,0 mm 10,6 km/h (2 Bft) W 259 ° 0 min 0,000 mm 0,0 UV-I 0 W/m² 7,5 °C 6,9 °C 19,3 km/h (3 Bft)
22.05.2019 01:39 8,6 °C 93 % 1014,5 hPa 0,2 mm 6,0 km/h (2 Bft) W-NW 284 ° 0 min 0,000 mm 0,0 UV-I 0 W/m² 7,5 °C 7,9 °C 9,7 km/h (2 Bft)
22.05.2019 01:40 8,6 °C 93 % 1014,5 hPa 0,0 mm 6,5 km/h (2 Bft) SW 228 ° 0 min 0,000 mm 0,0 UV-I 0 W/m² 7,5 °C 7,7 °C 12,9 km/h (3 Bft)
22.05.2019 01:41 8,6 °C 93 % 1014,5 hPa 0,0 mm 6,0 km/h (2 Bft) W-NW 286 ° 0 min 0,000 mm 0,0 UV-I 0 W/m² 7,5 °C 7,9 °C 11,3 km/h (2 Bft)
22.05.2019 01:42 8,6 °C 93 % 1014,4 hPa 0,0 mm 5,0 km/h (1 Bft) W 260 ° 0 min 0,000 mm 0,0 UV-I 0 W/m² 7,5 °C 8,2 °C 12,9 km/h (3 Bft)
22.05.2019 01:43 8,6 °C 93 % 1014,4 hPa 0,0 mm 6,6 km/h (2 Bft) W 261 ° 0 min 0,000 mm 0,0 UV-I 0 W/m² 7,5 °C 7,7 °C 14,5 km/h (3 Bft)
22.05.2019 01:44 8,6 °C 93 % 1014,4 hPa 0,0 mm 4,3 km/h (1 Bft) W 267 ° 0 min 0,000 mm 0,0 UV-I 0 W/m² 7,5 °C 8,6 °C 6,4 km/h (2 Bft)
22.05.2019 01:45 8,6 °C 93 % 1014,6 hPa 0,0 mm 11,5 km/h (2 Bft) W-NW 284 ° 0 min 0,000 mm 0,0 UV-I 0 W/m² 7,5 °C 6,7 °C 19,3 km/h (3 Bft)
22.05.2019 01:46 8,6 °C 93 % 1014,5 hPa 0,0 mm 10,6 km/h (2 Bft) W-SW 256 ° 0 min 0,000 mm 0,0 UV-I 0 W/m² 7,5 °C 6,9 °C 19,3 km/h (3 Bft)
22.05.2019 01:47 8,6 °C 93 % 1014,5 hPa 0,2 mm 11,7 km/h (2 Bft) SW 233 ° 0 min 0,000 mm 0,0 UV-I 0 W/m² 7,5 °C 6,7 °C 19,3 km/h (3 Bft)
22.05.2019 01:48 8,6 °C 93 % 1014,5 hPa 0,0 mm 11,5 km/h (2 Bft) W-NW 294 ° 0 min 0,000 mm 0,0 UV-I 0 W/m² 7,5 °C 6,7 °C 19,3 km/h (3 Bft)
22.05.2019 01:49 8,6 °C 93 % 1014,5 hPa 0,0 mm 4,3 km/h (1 Bft) SW 225 ° 0 min 0,000 mm 0,0 UV-I 0 W/m² 7,5 °C 8,6 °C 12,9 km/h (3 Bft)
22.05.2019 01:50 8,6 °C 93 % 1014,5 hPa 0,0 mm 8,0 km/h (2 Bft) SW 224 ° 0 min 0,000 mm 0,0 UV-I 0 W/m² 7,5 °C 7,4 °C 12,9 km/h (3 Bft)
22.05.2019 01:51 8,6 °C 93 % 1014,5 hPa 0,0 mm 8,2 km/h (2 Bft) S-SW 199 ° 0 min 0,000 mm 0,0 UV-I 0 W/m² 7,5 °C 7,3 °C 12,9 km/h (3 Bft)
22.05.2019 01:52 8,6 °C 93 % 1014,5 hPa 0,0 mm 5,0 km/h (1 Bft) W-SW 238 ° 0 min 0,000 mm 0,0 UV-I 0 W/m² 7,5 °C 8,2 °C 9,7 km/h (2 Bft)
22.05.2019 01:53 8,6 °C 93 % 1014,5 hPa 0,0 mm 6,2 km/h (2 Bft) W 277 ° 0 min 0,000 mm 0,0 UV-I 0 W/m² 7,5 °C 7,8 °C 11,3 km/h (2 Bft)
22.05.2019 01:54 8,6 °C 93 % 1014,5 hPa 0,0 mm 4,8 km/h (1 Bft) W 273 ° 0 min 0,000 mm 0,0 UV-I 0 W/m² 7,5 °C 8,2 °C 11,3 km/h (2 Bft)
22.05.2019 01:55 8,6 °C 93 % 1014,5 hPa 0,0 mm 5,3 km/h (1 Bft) W-SW 242 ° 0 min 0,000 mm 0,0 UV-I 0 W/m² 7,5 °C 8,1 °C 8,0 km/h (2 Bft)
22.05.2019 01:56 8,6 °C 93 % 1014,4 hPa 0,2 mm 11,1 km/h (2 Bft) W 269 ° 0 min 0,000 mm 0,0 UV-I 0 W/m² 7,5 °C 6,8 °C 19,3 km/h (3 Bft)
22.05.2019 01:57 8,6 °C 93 % 1014,5 hPa 0,0 mm 10,5 km/h (2 Bft) W-SW 248 ° 0 min 0,000 mm 0,0 UV-I 0 W/m² 7,5 °C 6,9 °C 12,9 km/h (3 Bft)
22.05.2019 01:58 8,6 °C 93 % 1014,5 hPa 0,0 mm 5,6 km/h (1 Bft) W 272 ° 0 min 0,000 mm 0,0 UV-I 0 W/m² 7,5 °C 8,0 °C 9,7 km/h (2 Bft)
22.05.2019 01:59 8,6 °C 93 % 1014,5 hPa 0,0 mm 10,9 km/h (2 Bft) W 261 ° 0 min 0,000 mm 0,0 UV-I 0 W/m² 7,5 °C 6,8 °C 16,1 km/h (3 Bft)
22.05.2019 02:00 8,6 °C 93 % 1014,5 hPa 0,0 mm 7,7 km/h (2 Bft) W 261 ° 0 min 0,000 mm 0,0 UV-I 0 W/m² 7,5 °C 7,4 °C 12,9 km/h (3 Bft)
22.05.2019 02:01 8,6 °C 93 % 1014,5 hPa 0,0 mm 8,7 km/h (2 Bft) W-SW 254 ° 0 min 0,000 mm 0,0 UV-I 0 W/m² 7,5 °C 7,2 °C 14,5 km/h (3 Bft)
22.05.2019 02:02 8,6 °C 93 % 1014,5 hPa 0,0 mm 6,0 km/h (2 Bft) W 267 ° 0 min 0,000 mm 0,0 UV-I 0 W/m² 7,5 °C 7,9 °C 12,9 km/h (3 Bft)
22.05.2019 02:03 8,6 °C 93 % 1014,5 hPa 0,0 mm 7,1 km/h (2 Bft) W-NW 294 ° 0 min 0,000 mm 0,0 UV-I 0 W/m² 7,5 °C 7,6 °C 11,3 km/h (2 Bft)
22.05.2019 02:04 8,6 °C 93 % 1014,5 hPa 0,2 mm 6,7 km/h (2 Bft) W 263 ° 0 min 0,000 mm 0,0 UV-I 0 W/m² 7,5 °C 7,7 °C 11,3 km/h (2 Bft)
22.05.2019 02:05 8,6 °C 93 % 1014,5 hPa 0,0 mm 14,0 km/h (3 Bft) W 265 ° 0 min 0,000 mm 0,0 UV-I 0 W/m² 7,5 °C 6,3 °C 17,7 km/h (3 Bft)
22.05.2019 02:06 8,6 °C 93 % 1014,5 hPa 0,0 mm 8,6 km/h (2 Bft) W-SW 258 ° 0 min 0,000 mm 0,0 UV-I 0 W/m² 7,5 °C 7,2 °C 16,1 km/h (3 Bft)
22.05.2019 02:07 8,6 °C 93 % 1014,6 hPa 0,0 mm 14,0 km/h (3 Bft) S-SW 195 ° 0 min 0,000 mm 0,0 UV-I 0 W/m² 7,5 °C 6,3 °C 20,9 km/h (4 Bft)
22.05.2019 02:08 8,6 °C 93 % 1014,5 hPa 0,0 mm 9,0 km/h (2 Bft) W-SW 257 ° 0 min 0,000 mm 0,0 UV-I 0 W/m² 7,5 °C 7,2 °C 17,7 km/h (3 Bft)
22.05.2019 02:09 8,6 °C 93 % 1014,5 hPa 0,0 mm 6,2 km/h (2 Bft) W 264 ° 0 min 0,000 mm 0,0 UV-I 0 W/m² 7,5 °C 7,8 °C 9,7 km/h (2 Bft)
22.05.2019 02:10 8,6 °C 93 % 1014,5 hPa 0,0 mm 6,1 km/h (2 Bft) W 259 ° 0 min 0,000 mm 0,0 UV-I 0 W/m² 7,5 °C 7,8 °C 14,5 km/h (3 Bft)
22.05.2019 02:11 8,6 °C 93 % 1014,5 hPa 0,0 mm 7,5 km/h (2 Bft) W-SW 243 ° 0 min 0,000 mm 0,0 UV-I 0 W/m² 7,5 °C 7,5 °C 12,9 km/h (3 Bft)
22.05.2019 02:12 8,6 °C 93 % 1014,5 hPa 0,0 mm 6,9 km/h (2 Bft) W 263 ° 0 min 0,000 mm 0,0 UV-I 0 W/m² 7,5 °C 7,6 °C 12,9 km/h (3 Bft)
22.05.2019 02:13 8,6 °C 93 % 1014,5 hPa 0,2 mm 6,0 km/h (2 Bft) W-SW 250 ° 0 min 0,000 mm 0,0 UV-I 0 W/m² 7,5 °C 7,9 °C 11,3 km/h (2 Bft)
22.05.2019 02:14 8,6 °C 93 % 1014,5 hPa 0,0 mm 3,6 km/h (1 Bft) S-SW 211 ° 0 min 0,000 mm 0,0 UV-I 0 W/m² 7,5 °C 8,6 °C 6,4 km/h (2 Bft)
22.05.2019 02:15 8,6 °C 93 % 1014,5 hPa 0,0 mm 9,3 km/h (2 Bft) W 270 ° 0 min 0,000 mm 0,0 UV-I 0 W/m² 7,5 °C 7,1 °C 12,9 km/h (3 Bft)
22.05.2019 02:16 8,6 °C 93 % 1014,5 hPa 0,0 mm 9,2 km/h (2 Bft) S 185 ° 0 min 0,000 mm 0,0 UV-I 0 W/m² 7,5 °C 7,1 °C 14,5 km/h (3 Bft)
22.05.2019 02:17 8,6 °C 93 % 1014,5 hPa 0,0 mm 8,0 km/h (2 Bft) W 259 ° 0 min 0,000 mm 0,0 UV-I 0 W/m² 7,5 °C 7,4 °C 14,5 km/h (3 Bft)
22.05.2019 02:18 8,6 °C 93 % 1014,5 hPa 0,0 mm 9,9 km/h (2 Bft) W 274 ° 0 min 0,000 mm 0,0 UV-I 0 W/m² 7,5 °C 7,0 °C 14,5 km/h (3 Bft)
22.05.2019 02:19 8,6 °C 93 % 1014,5 hPa 0,0 mm 9,0 km/h (2 Bft) W 273 ° 0 min 0,000 mm 0,0 UV-I 0 W/m² 7,5 °C 7,2 °C 14,5 km/h (3 Bft)
22.05.2019 02:20 8,6 °C 93 % 1014,5 hPa 0,0 mm 8,0 km/h (2 Bft) W 270 ° 0 min 0,000 mm 0,0 UV-I 0 W/m² 7,5 °C 7,4 °C 11,3 km/h (2 Bft)
22.05.2019 02:21 8,6 °C 93 % 1014,5 hPa 0,2 mm 4,7 km/h (1 Bft) W 267 ° 0 min 0,000 mm 0,0 UV-I 0 W/m² 7,5 °C 8,3 °C 14,5 km/h (3 Bft)
22.05.2019 02:22 8,6 °C 93 % 1014,5 hPa 0,0 mm 6,0 km/h (2 Bft) SW 234 ° 0 min 0,000 mm 0,0 UV-I 0 W/m² 7,5 °C 7,9 °C 11,3 km/h (2 Bft)
22.05.2019 02:23 8,6 °C 93 % 1014,5 hPa 0,0 mm 7,2 km/h (2 Bft) W-SW 242 ° 0 min 0,000 mm 0,0 UV-I 0 W/m² 7,5 °C 7,5 °C 12,9 km/h (3 Bft)
22.05.2019 02:24 8,6 °C 93 % 1014,5 hPa 0,0 mm 5,6 km/h (1 Bft) SW 235 ° 0 min 0,000 mm 0,0 UV-I 0 W/m² 7,5 °C 8,0 °C 12,9 km/h (3 Bft)
22.05.2019 02:25 8,6 °C 93 % 1014,5 hPa 0,0 mm 3,5 km/h (1 Bft) SW 231 ° 0 min 0,000 mm 0,0 UV-I 0 W/m² 7,5 °C 8,6 °C 6,4 km/h (2 Bft)
22.05.2019 02:26 8,6 °C 93 % 1014,5 hPa 0,0 mm 4,9 km/h (1 Bft) W 271 ° 0 min 0,000 mm 0,0 UV-I 0 W/m² 7,5 °C 8,2 °C 9,7 km/h (2 Bft)
22.05.2019 02:27 8,6 °C 93 % 1014,5 hPa 0,0 mm 8,1 km/h (2 Bft) W 281 ° 0 min 0,000 mm 0,0 UV-I 0 W/m² 7,5 °C 7,3 °C 12,9 km/h (3 Bft)
22.05.2019 02:28 8,6 °C 93 % 1014,5 hPa 0,0 mm 4,1 km/h (1 Bft) W 275 ° 0 min 0,000 mm 0,0 UV-I 0 W/m² 7,5 °C 8,6 °C 16,1 km/h (3 Bft)
22.05.2019 02:29 8,6 °C 93 % 1014,6 hPa 0,0 mm 12,5 km/h (3 Bft) SW 221 ° 0 min 0,000 mm 0,0 UV-I 0 W/m² 7,5 °C 6,5 °C 19,3 km/h (3 Bft)
22.05.2019 02:30 8,7 °C 93 % 1014,6 hPa 0,0 mm 7,0 km/h (2 Bft) W 263 ° 0 min 0,000 mm 0,0 UV-I 0 W/m² 7,6 °C 7,7 °C 17,7 km/h (3 Bft)
22.05.2019 02:31 8,6 °C 94 % 1014,5 hPa 0,0 mm 4,7 km/h (1 Bft) W 263 ° 0 min 0,000 mm 0,0 UV-I 0 W/m² 7,7 °C 8,3 °C 11,3 km/h (2 Bft)
22.05.2019 02:32 8,7 °C 94 % 1014,6 hPa 0,2 mm 6,6 km/h (2 Bft) W 260 ° 0 min 0,000 mm 0,0 UV-I 0 W/m² 7,8 °C 7,8 °C 9,7 km/h (2 Bft)
22.05.2019 02:33 8,6 °C 93 % 1014,6 hPa 0,0 mm 4,0 km/h (1 Bft) W 263 ° 0 min 0,000 mm 0,0 UV-I 0 W/m² 7,5 °C 8,6 °C 11,3 km/h (2 Bft)
22.05.2019 02:34 8,7 °C 94 % 1014,6 hPa 0,0 mm 5,9 km/h (2 Bft) W-SW 241 ° 0 min 0,000 mm 0,0 UV-I 0 W/m² 7,8 °C 8,0 °C 11,3 km/h (2 Bft)
22.05.2019 02:35 8,7 °C 94 % 1014,6 hPa 0,0 mm 3,3 km/h (1 Bft) W 275 ° 0 min 0,000 mm 0,0 UV-I 0 W/m² 7,8 °C 8,7 °C 6,4 km/h (2 Bft)
22.05.2019 02:36 8,7 °C 93 % 1014,6 hPa 0,0 mm 5,6 km/h (1 Bft) W-NW 283 ° 0 min 0,000 mm 0,0 UV-I 0 W/m² 7,6 °C 8,1 °C 11,3 km/h (2 Bft)
22.05.2019 02:37 8,7 °C 94 % 1014,6 hPa 0,0 mm 7,2 km/h (2 Bft) W 270 ° 0 min 0,000 mm 0,0 UV-I 0 W/m² 7,8 °C 7,7 °C 16,1 km/h (3 Bft)
22.05.2019 02:38 8,7 °C 93 % 1014,6 hPa 0,0 mm 7,2 km/h (2 Bft) W 265 ° 0 min 0,000 mm 0,0 UV-I 0 W/m² 7,6 °C 7,7 °C 14,5 km/h (3 Bft)
22.05.2019 02:39 8,7 °C 93 % 1014,6 hPa 0,0 mm 10,9 km/h (2 Bft) W 281 ° 0 min 0,000 mm 0,0 UV-I 0 W/m² 7,6 °C 6,9 °C 16,1 km/h (3 Bft)
22.05.2019 02:40 8,7 °C 93 % 1014,6 hPa 0,0 mm 8,0 km/h (2 Bft) W 263 ° 0 min 0,000 mm 0,0 UV-I 0 W/m² 7,6 °C 7,5 °C 12,9 km/h (3 Bft)
22.05.2019 02:41 8,7 °C 93 % 1014,6 hPa 0,0 mm 12,0 km/h (2 Bft) W-NW 290 ° 0 min 0,000 mm 0,0 UV-I 0 W/m² 7,6 °C 6,7 °C 16,1 km/h (3 Bft)
22.05.2019 02:42 8,7 °C 93 % 1014,6 hPa 0,2 mm 4,6 km/h (1 Bft) W 270 ° 0 min 0,000 mm 0,0 UV-I 0 W/m² 7,6 °C 8,4 °C 11,3 km/h (2 Bft)
22.05.2019 02:43 8,7 °C 93 % 1014,7 hPa 0,0 mm 4,4 km/h (1 Bft) W-SW 250 ° 0 min 0,000 mm 0,0 UV-I 0 W/m² 7,6 °C 8,7 °C 6,4 km/h (2 Bft)
22.05.2019 02:44 8,6 °C 93 % 1014,6 hPa 0,0 mm 8,6 km/h (2 Bft) W 272 ° 0 min 0,000 mm 0,0 UV-I 0 W/m² 7,5 °C 7,2 °C 17,7 km/h (3 Bft)
22.05.2019 02:45 8,6 °C 93 % 1014,6 hPa 0,0 mm 11,0 km/h (2 Bft) W 260 ° 0 min 0,000 mm 0,0 UV-I 0 W/m² 7,5 °C 6,8 °C 16,1 km/h (3 Bft)
22.05.2019 02:46 8,6 °C 93 % 1014,6 hPa 0,0 mm 3,4 km/h (1 Bft) W 261 ° 0 min 0,000 mm 0,0 UV-I 0 W/m² 7,5 °C 8,6 °C 9,7 km/h (2 Bft)
22.05.2019 02:47 8,6 °C 93 % 1014,7 hPa 0,0 mm 6,3 km/h (2 Bft) W 266 ° 0 min 0,000 mm 0,0 UV-I 0 W/m² 7,5 °C 7,8 °C 11,3 km/h (2 Bft)
22.05.2019 02:48 8,6 °C 93 % 1014,7 hPa 0,0 mm 3,6 km/h (1 Bft) W-SW 246 ° 0 min 0,000 mm 0,0 UV-I 0 W/m² 7,5 °C 8,6 °C 9,7 km/h (2 Bft)
22.05.2019 02:49 8,6 °C 93 % 1014,7 hPa 0,0 mm 5,6 km/h (1 Bft) SW 231 ° 0 min 0,000 mm 0,0 UV-I 0 W/m² 7,5 °C 8,0 °C 9,7 km/h (2 Bft)
22.05.2019 02:50 8,6 °C 93 % 1014,7 hPa 0,0 mm 5,6 km/h (1 Bft) W 271 ° 0 min 0,000 mm 0,0 UV-I 0 W/m² 7,5 °C 8,0 °C 8,0 km/h (2 Bft)
22.05.2019 02:51 8,6 °C 93 % 1014,7 hPa 0,0 mm 3,4 km/h (1 Bft) W-SW 247 ° 0 min 0,000 mm 0,0 UV-I 0 W/m² 7,5 °C 8,6 °C 6,4 km/h (2 Bft)
22.05.2019 02:52 8,6 °C 93 % 1014,7 hPa 0,0 mm 4,3 km/h (1 Bft) W 266 ° 0 min 0,000 mm 0,0 UV-I 0 W/m² 7,5 °C 8,6 °C 11,3 km/h (2 Bft)
22.05.2019 02:53 8,6 °C 93 % 1014,7 hPa 0,0 mm 4,3 km/h (1 Bft) W-SW 254 ° 0 min 0,000 mm 0,0 UV-I 0 W/m² 7,5 °C 8,6 °C 11,3 km/h (2 Bft)
22.05.2019 02:54 8,6 °C 93 % 1014,7 hPa 0,2 mm 5,2 km/h (1 Bft) W 275 ° 0 min 0,000 mm 0,0 UV-I 0 W/m² 7,5 °C 8,1 °C 11,3 km/h (2 Bft)
22.05.2019 02:55 8,6 °C 93 % 1014,7 hPa 0,0 mm 9,7 km/h (2 Bft) W-SW 241 ° 0 min 0,000 mm 0,0 UV-I 0 W/m² 7,5 °C 7,0 °C 14,5 km/h (3 Bft)
22.05.2019 02:56 8,6 °C 93 % 1014,7 hPa 0,0 mm 7,2 km/h (2 Bft) W-SW 250 ° 0 min 0,000 mm 0,0 UV-I 0 W/m² 7,5 °C 7,5 °C 16,1 km/h (3 Bft)
22.05.2019 02:57 8,6 °C 93 % 1014,7 hPa 0,0 mm 6,0 km/h (2 Bft) SW 221 ° 0 min 0,000 mm 0,0 UV-I 0 W/m² 7,5 °C 7,9 °C 9,7 km/h (2 Bft)
22.05.2019 02:58 8,6 °C 93 % 1014,7 hPa 0,0 mm 5,2 km/h (1 Bft) W 277 ° 0 min 0,000 mm 0,0 UV-I 0 W/m² 7,5 °C 8,1 °C 9,7 km/h (2 Bft)
22.05.2019 02:59 8,5 °C 93 % 1014,7 hPa 0,0 mm 11,5 km/h (2 Bft) W 259 ° 0 min 0,000 mm 0,0 UV-I 0 W/m² 7,4 °C 6,6 °C 17,7 km/h (3 Bft)
22.05.2019 03:00 8,6 °C 93 % 1014,7 hPa 0,0 mm 10,0 km/h (2 Bft) W 260 ° 0 min 0,000 mm 0,0 UV-I 0 W/m² 7,5 °C 7,0 °C 17,7 km/h (3 Bft)
22.05.2019 03:01 8,6 °C 93 % 1014,7 hPa 0,0 mm 7,7 km/h (2 Bft) W-SW 256 ° 0 min 0,000 mm 0,0 UV-I 0 W/m² 7,5 °C 7,4 °C 14,5 km/h (3 Bft)
22.05.2019 03:02 8,6 °C 93 % 1014,7 hPa 0,0 mm 5,9 km/h (2 Bft) W 269 ° 0 min 0,000 mm 0,0 UV-I 0 W/m² 7,5 °C 7,9 °C 9,7 km/h (2 Bft)
22.05.2019 03:03 8,6 °C 93 % 1014,7 hPa 0,0 mm 12,9 km/h (3 Bft) W-SW 252 ° 0 min 0,000 mm 0,0 UV-I 0 W/m² 7,5 °C 6,5 °C 14,5 km/h (3 Bft)
22.05.2019 03:04 8,5 °C 93 % 1014,7 hPa 0,0 mm 7,4 km/h (2 Bft) W 270 ° 0 min 0,000 mm 0,0 UV-I 0 W/m² 7,4 °C 7,4 °C 11,3 km/h (2 Bft)
22.05.2019 03:05 8,5 °C 93 % 1014,7 hPa 0,0 mm 6,3 km/h (2 Bft) W-SW 248 ° 0 min 0,000 mm 0,0 UV-I 0 W/m² 7,4 °C 7,7 °C 11,3 km/h (2 Bft)
22.05.2019 03:06 8,5 °C 93 % 1014,7 hPa 0,0 mm 6,9 km/h (2 Bft) SW 221 ° 0 min 0,000 mm 0,0 UV-I 0 W/m² 7,4 °C 7,5 °C 12,9 km/h (3 Bft)
22.05.2019 03:07 8,6 °C 93 % 1014,7 hPa 0,2 mm 8,4 km/h (2 Bft) W-SW 250 ° 0 min 0,000 mm 0,0 UV-I 0 W/m² 7,5 °C 7,3 °C 11,3 km/h (2 Bft)
22.05.2019 03:08 8,5 °C 94 % 1014,7 hPa 0,0 mm 7,2 km/h (2 Bft) W 265 ° 0 min 0,000 mm 0,0 UV-I 0 W/m² 7,6 °C 7,4 °C 11,3 km/h (2 Bft)
22.05.2019 03:09 8,5 °C 94 % 1014,8 hPa 0,0 mm 5,8 km/h (2 Bft) W 260 ° 0 min 0,000 mm 0,0 UV-I 0 W/m² 7,6 °C 7,8 °C 9,7 km/h (2 Bft)
22.05.2019 03:10 8,5 °C 94 % 1014,8 hPa 0,0 mm 6,1 km/h (2 Bft) W-SW 254 ° 0 min 0,000 mm 0,0 UV-I 0 W/m² 7,6 °C 7,7 °C 9,7 km/h (2 Bft)
22.05.2019 03:11 8,4 °C 94 % 1014,8 hPa 0,0 mm 8,6 km/h (2 Bft) W-SW 252 ° 0 min 0,000 mm 0,0 UV-I 0 W/m² 7,5 °C 7,0 °C 12,9 km/h (3 Bft)
22.05.2019 03:12 8,5 °C 94 % 1014,7 hPa 0,0 mm 6,0 km/h (2 Bft) W-SW 257 ° 0 min 0,000 mm 0,0 UV-I 0 W/m² 7,6 °C 7,7 °C 8,0 km/h (2 Bft)
22.05.2019 03:13 8,4 °C 94 % 1014,7 hPa 0,0 mm 8,2 km/h (2 Bft) SW 227 ° 0 min 0,000 mm 0,0 UV-I 0 W/m² 7,5 °C 7,1 °C 12,9 km/h (3 Bft)
22.05.2019 03:14 8,4 °C 94 % 1014,7 hPa 0,0 mm 8,0 km/h (2 Bft) SW 219 ° 0 min 0,000 mm 0,0 UV-I 0 W/m² 7,5 °C 7,1 °C 12,9 km/h (3 Bft)
22.05.2019 03:15 8,4 °C 94 % 1014,7 hPa 0,0 mm 8,6 km/h (2 Bft) W-SW 252 ° 0 min 0,000 mm 0,0 UV-I 0 W/m² 7,5 °C 7,0 °C 14,5 km/h (3 Bft)
22.05.2019 03:16 8,4 °C 94 % 1014,7 hPa 0,0 mm 6,8 km/h (2 Bft) W-SW 255 ° 0 min 0,000 mm 0,0 UV-I 0 W/m² 7,5 °C 7,4 °C 12,9 km/h (3 Bft)
22.05.2019 03:17 8,4 °C 94 % 1014,7 hPa 0,0 mm 8,9 km/h (2 Bft) W-NW 294 ° 0 min 0,000 mm 0,0 UV-I 0 W/m² 7,5 °C 6,9 °C 12,9 km/h (3 Bft)
22.05.2019 03:18 8,4 °C 94 % 1014,7 hPa 0,0 mm 3,4 km/h (1 Bft) W 261 ° 0 min 0,000 mm 0,0 UV-I 0 W/m² 7,5 °C 8,4 °C 11,3 km/h (2 Bft)
22.05.2019 03:19 8,4 °C 94 % 1014,8 hPa 0,0 mm 3,8 km/h (1 Bft) S-SW 201 ° 0 min 0,000 mm 0,0 UV-I 0 W/m² 7,5 °C 8,4 °C 8,0 km/h (2 Bft)
22.05.2019 03:20 8,4 °C 94 % 1014,7 hPa 0,0 mm 9,1 km/h (2 Bft) W-SW 248 ° 0 min 0,000 mm 0,0 UV-I 0 W/m² 7,5 °C 6,9 °C 17,7 km/h (3 Bft)
22.05.2019 03:21 8,5 °C 94 % 1014,7 hPa 0,2 mm 5,6 km/h (1 Bft) SW 224 ° 0 min 0,000 mm 0,0 UV-I 0 W/m² 7,6 °C 7,9 °C 11,3 km/h (2 Bft)
22.05.2019 03:22 8,4 °C 94 % 1014,7 hPa 0,0 mm 6,8 km/h (2 Bft) W-SW 256 ° 0 min 0,000 mm 0,0 UV-I 0 W/m² 7,5 °C 7,4 °C 12,9 km/h (3 Bft)
22.05.2019 03:23 8,4 °C 94 % 1014,7 hPa 0,0 mm 9,1 km/h (2 Bft) W 260 ° 0 min 0,000 mm 0,0 UV-I 0 W/m² 7,5 °C 6,9 °C 17,7 km/h (3 Bft)
22.05.2019 03:24 8,4 °C 94 % 1014,7 hPa 0,0 mm 13,1 km/h (3 Bft) S-SW 211 ° 0 min 0,000 mm 0,0 UV-I 0 W/m² 7,5 °C 6,2 °C 17,7 km/h (3 Bft)
22.05.2019 03:25 8,5 °C 94 % 1014,7 hPa 0,0 mm 4,1 km/h (1 Bft) S 186 ° 0 min 0,000 mm 0,0 UV-I 0 W/m² 7,6 °C 8,5 °C 8,0 km/h (2 Bft)
22.05.2019 03:26 8,5 °C 94 % 1014,7 hPa 0,0 mm 4,1 km/h (1 Bft) SW 224 ° 0 min 0,000 mm 0,0 UV-I 0 W/m² 7,6 °C 8,5 °C 6,4 km/h (2 Bft)
22.05.2019 03:27 8,4 °C 94 % 1014,7 hPa 0,0 mm 9,3 km/h (2 Bft) W 263 ° 0 min 0,000 mm 0,0 UV-I 0 W/m² 7,5 °C 6,9 °C 16,1 km/h (3 Bft)
22.05.2019 03:28 8,5 °C 94 % 1014,7 hPa 0,0 mm 3,5 km/h (1 Bft) SW 220 ° 0 min 0,000 mm 0,0 UV-I 0 W/m² 7,6 °C 8,5 °C 6,4 km/h (2 Bft)
22.05.2019 03:29 8,5 °C 94 % 1014,8 hPa 0,0 mm 5,7 km/h (1 Bft) W-SW 252 ° 0 min 0,000 mm 0,0 UV-I 0 W/m² 7,6 °C 7,8 °C 12,9 km/h (3 Bft)
22.05.2019 03:30 8,5 °C 94 % 1014,8 hPa 0,0 mm 5,6 km/h (1 Bft) SW 215 ° 0 min 0,000 mm 0,0 UV-I 0 W/m² 7,6 °C 7,9 °C 9,7 km/h (2 Bft)
22.05.2019 03:31 8,5 °C 94 % 1014,7 hPa 0,2 mm 4,1 km/h (1 Bft) W 271 ° 0 min 0,000 mm 0,0 UV-I 0 W/m² 7,6 °C 8,5 °C 6,4 km/h (2 Bft)
22.05.2019 03:32 8,5 °C 94 % 1014,7 hPa 0,0 mm 3,5 km/h (1 Bft) W 262 ° 0 min 0,000 mm 0,0 UV-I 0 W/m² 7,6 °C 8,5 °C 6,4 km/h (2 Bft)
22.05.2019 03:33 8,5 °C 94 % 1014,7 hPa 0,0 mm 8,7 km/h (2 Bft) W-SW 246 ° 0 min 0,000 mm 0,0 UV-I 0 W/m² 7,6 °C 7,1 °C 19,3 km/h (3 Bft)
22.05.2019 03:34 8,5 °C 94 % 1014,7 hPa 0,0 mm 5,1 km/h (1 Bft) W 262 ° 0 min 0,000 mm 0,0 UV-I 0 W/m² 7,6 °C 8,0 °C 8,0 km/h (2 Bft)
22.05.2019 03:35 8,6 °C 94 % 1014,7 hPa 0,0 mm 3,2 km/h (1 Bft) W 269 ° 0 min 0,000 mm 0,0 UV-I 0 W/m² 7,7 °C 8,6 °C 6,4 km/h (2 Bft)
22.05.2019 03:36 8,5 °C 94 % 1014,8 hPa 0,0 mm 6,4 km/h (2 Bft) SW 234 ° 0 min 0,000 mm 0,0 UV-I 0 W/m² 7,6 °C 7,6 °C 11,3 km/h (2 Bft)
22.05.2019 03:37 8,5 °C 94 % 1014,7 hPa 0,0 mm 6,0 km/h (2 Bft) W-NW 288 ° 0 min 0,000 mm 0,0 UV-I 0 W/m² 7,6 °C 7,7 °C 12,9 km/h (3 Bft)
22.05.2019 03:38 8,5 °C 94 % 1014,7 hPa 0,0 mm 3,2 km/h (1 Bft) W 281 ° 0 min 0,000 mm 0,0 UV-I 0 W/m² 7,6 °C 8,5 °C 6,4 km/h (2 Bft)
22.05.2019 03:39 8,5 °C 94 % 1014,7 hPa 0,0 mm 4,9 km/h (1 Bft) W 277 ° 0 min 0,000 mm 0,0 UV-I 0 W/m² 7,6 °C 8,1 °C 11,3 km/h (2 Bft)
22.05.2019 03:40 8,5 °C 94 % 1014,7 hPa 0,0 mm 10,4 km/h (2 Bft) W 262 ° 0 min 0,000 mm 0,0 UV-I 0 W/m² 7,6 °C 6,8 °C 12,9 km/h (3 Bft)
22.05.2019 03:41 8,5 °C 94 % 1014,7 hPa 0,2 mm 6,5 km/h (2 Bft) SW 234 ° 0 min 0,000 mm 0,0 UV-I 0 W/m² 7,6 °C 7,6 °C 9,7 km/h (2 Bft)
22.05.2019 03:42 8,5 °C 94 % 1014,7 hPa 0,0 mm 7,4 km/h (2 Bft) W 271 ° 0 min 0,000 mm 0,0 UV-I 0 W/m² 7,6 °C 7,4 °C 11,3 km/h (2 Bft)
22.05.2019 03:43 8,5 °C 94 % 1014,7 hPa 0,0 mm 7,5 km/h (2 Bft) S-SW 203 ° 0 min 0,000 mm 0,0 UV-I 0 W/m² 7,6 °C 7,4 °C 11,3 km/h (2 Bft)
22.05.2019 03:44 8,4 °C 94 % 1014,7 hPa 0,0 mm 7,1 km/h (2 Bft) SW 217 ° 0 min 0,000 mm 0,0 UV-I 0 W/m² 7,5 °C 7,3 °C 12,9 km/h (3 Bft)
22.05.2019 03:45 8,4 °C 94 % 1014,7 hPa 0,0 mm 4,0 km/h (1 Bft) NW 304 ° 0 min 0,000 mm 0,0 UV-I 0 W/m² 7,5 °C 8,4 °C 11,3 km/h (2 Bft)
22.05.2019 03:46 8,5 °C 94 % 1014,8 hPa 0,0 mm 9,9 km/h (2 Bft) W-SW 257 ° 0 min 0,000 mm 0,0 UV-I 0 W/m² 7,6 °C 6,9 °C 16,1 km/h (3 Bft)
22.05.2019 03:47 8,5 °C 94 % 1014,8 hPa 0,0 mm 8,6 km/h (2 Bft) W-SW 256 ° 0 min 0,000 mm 0,0 UV-I 0 W/m² 7,6 °C 7,1 °C 14,5 km/h (3 Bft)
22.05.2019 03:48 8,5 °C 94 % 1014,8 hPa 0,0 mm 12,6 km/h (3 Bft) W 275 ° 0 min 0,000 mm 0,0 UV-I 0 W/m² 7,6 °C 6,4 °C 17,7 km/h (3 Bft)
22.05.2019 03:49 8,4 °C 94 % 1014,8 hPa 0,0 mm 7,0 km/h (2 Bft) W 262 ° 0 min 0,000 mm 0,0 UV-I 0 W/m² 7,5 °C 7,4 °C 11,3 km/h (2 Bft)
22.05.2019 03:50 8,4 °C 94 % 1014,8 hPa 0,2 mm 9,3 km/h (2 Bft) W-SW 243 ° 0 min 0,000 mm 0,0 UV-I 0 W/m² 7,5 °C 6,9 °C 14,5 km/h (3 Bft)
22.05.2019 03:51 8,4 °C 94 % 1014,8 hPa 0,0 mm 10,6 km/h (2 Bft) W 264 ° 0 min 0,000 mm 0,0 UV-I 0 W/m² 7,5 °C 6,6 °C 14,5 km/h (3 Bft)
22.05.2019 03:52 8,4 °C 94 % 1014,7 hPa 0,0 mm 8,6 km/h (2 Bft) W-SW 254 ° 0 min 0,000 mm 0,0 UV-I 0 W/m² 7,5 °C 7,0 °C 14,5 km/h (3 Bft)
22.05.2019 03:53 8,4 °C 94 % 1014,7 hPa 0,0 mm 9,5 km/h (2 Bft) W-SW 256 ° 0 min 0,000 mm 0,0 UV-I 0 W/m² 7,5 °C 6,8 °C 16,1 km/h (3 Bft)
22.05.2019 03:54 8,4 °C 94 % 1014,9 hPa 0,0 mm 6,8 km/h (2 Bft) W-SW 243 ° 0 min 0,000 mm 0,0 UV-I 0 W/m² 7,5 °C 7,4 °C 12,9 km/h (3 Bft)
22.05.2019 03:55 8,4 °C 94 % 1014,8 hPa 0,0 mm 3,8 km/h (1 Bft) W-SW 256 ° 0 min 0,000 mm 0,0 UV-I 0 W/m² 7,5 °C 8,4 °C 6,4 km/h (2 Bft)
22.05.2019 03:56 8,4 °C 94 % 1014,9 hPa 0,0 mm 6,8 km/h (2 Bft) W 263 ° 0 min 0,000 mm 0,0 UV-I 0 W/m² 7,5 °C 7,4 °C 14,5 km/h (3 Bft)
22.05.2019 03:57 8,4 °C 94 % 1014,8 hPa 0,0 mm 6,6 km/h (2 Bft) SW 219 ° 0 min 0,000 mm 0,0 UV-I 0 W/m² 7,5 °C 7,5 °C 14,5 km/h (3 Bft)
22.05.2019 03:58 8,4 °C 94 % 1014,8 hPa 0,0 mm 4,6 km/h (1 Bft) W-SW 248 ° 0 min 0,000 mm 0,0 UV-I 0 W/m² 7,5 °C 8,1 °C 11,3 km/h (2 Bft)
22.05.2019 03:59 8,4 °C 94 % 1014,8 hPa 0,2 mm 2,5 km/h (1 Bft) W-SW 245 ° 0 min 0,000 mm 0,0 UV-I 0 W/m² 7,5 °C 8,4 °C 8,0 km/h (2 Bft)
22.05.2019 04:00 8,4 °C 94 % 1014,8 hPa 0,0 mm 8,4 km/h (2 Bft) W 270 ° 0 min 0,000 mm 0,0 UV-I 0 W/m² 7,5 °C 7,0 °C 14,5 km/h (3 Bft)
22.05.2019 04:01 8,4 °C 94 % 1014,8 hPa 0,0 mm 6,0 km/h (2 Bft) W 259 ° 0 min 0,000 mm 0,0 UV-I 0 W/m² 7,5 °C 7,6 °C 9,7 km/h (2 Bft)
22.05.2019 04:02 8,4 °C 94 % 1014,8 hPa 0,0 mm 6,1 km/h (2 Bft) W-NW 285 ° 0 min 0,000 mm 0,0 UV-I 0 W/m² 7,5 °C 7,6 °C 11,3 km/h (2 Bft)
22.05.2019 04:03 8,4 °C 94 % 1014,9 hPa 0,0 mm 4,6 km/h (1 Bft) W-SW 257 ° 0 min 0,000 mm 0,0 UV-I 0 W/m² 7,5 °C 8,1 °C 9,7 km/h (2 Bft)
22.05.2019 04:04 8,4 °C 94 % 1014,8 hPa 0,0 mm 4,7 km/h (1 Bft) W-SW 248 ° 0 min 0,000 mm 0,0 UV-I 0 W/m² 7,5 °C 8,0 °C 8,0 km/h (2 Bft)
22.05.2019 04:05 8,4 °C 94 % 1014,8 hPa 0,0 mm 5,3 km/h (1 Bft) S-SW 213 ° 0 min 0,000 mm 0,0 UV-I 0 W/m² 7,5 °C 7,8 °C 8,0 km/h (2 Bft)
22.05.2019 04:06 8,4 °C 94 % 1014,8 hPa 0,0 mm 3,8 km/h (1 Bft) W 260 ° 0 min 0,000 mm 0,0 UV-I 0 W/m² 7,5 °C 8,4 °C 9,7 km/h (2 Bft)
22.05.2019 04:07 8,4 °C 94 % 1014,8 hPa 0,0 mm 4,4 km/h (1 Bft) W 279 ° 0 min 0,000 mm 0,0 UV-I 0 W/m² 7,5 °C 8,4 °C 11,3 km/h (2 Bft)
22.05.2019 04:08 8,4 °C 94 % 1014,8 hPa 0,2 mm 6,0 km/h (2 Bft) SW 226 ° 0 min 0,000 mm 0,0 UV-I 0 W/m² 7,5 °C 7,6 °C 11,3 km/h (2 Bft)
22.05.2019 04:09 8,4 °C 94 % 1014,8 hPa 0,0 mm 4,3 km/h (1 Bft) W 264 ° 0 min 0,000 mm 0,0 UV-I 0 W/m² 7,5 °C 8,4 °C 9,7 km/h (2 Bft)
22.05.2019 04:10 8,5 °C 94 % 1014,8 hPa 0,0 mm 5,0 km/h (1 Bft) SW 225 ° 0 min 0,000 mm 0,0 UV-I 0 W/m² 7,6 °C 8,1 °C 8,0 km/h (2 Bft)
22.05.2019 04:11 8,4 °C 94 % 1014,8 hPa 0,0 mm 3,9 km/h (1 Bft) W 267 ° 0 min 0,000 mm 0,0 UV-I 0 W/m² 7,5 °C 8,4 °C 6,4 km/h (2 Bft)
22.05.2019 04:12 8,4 °C 94 % 1014,8 hPa 0,0 mm 5,8 km/h (2 Bft) W 269 ° 0 min 0,000 mm 0,0 UV-I 0 W/m² 7,5 °C 7,7 °C 11,3 km/h (2 Bft)
22.05.2019 04:13 8,4 °C 94 % 1014,8 hPa 0,0 mm 6,2 km/h (2 Bft) SW 226 ° 0 min 0,000 mm 0,0 UV-I 0 W/m² 7,5 °C 7,6 °C 12,9 km/h (3 Bft)
22.05.2019 04:14 8,4 °C 94 % 1014,8 hPa 0,0 mm 6,8 km/h (2 Bft) W-SW 252 ° 0 min 0,000 mm 0,0 UV-I 0 W/m² 7,5 °C 7,4 °C 12,9 km/h (3 Bft)
22.05.2019 04:15 8,4 °C 94 % 1014,8 hPa 0,0 mm 8,4 km/h (2 Bft) W-SW 238 ° 0 min 0,000 mm 0,0 UV-I 0 W/m² 7,5 °C 7,0 °C 14,5 km/h (3 Bft)
22.05.2019 04:16 8,4 °C 94 % 1014,7 hPa 0,0 mm 3,1 km/h (1 Bft) W 263 ° 0 min 0,000 mm 0,0 UV-I 0 W/m² 7,5 °C 8,4 °C 4,8 km/h (1 Bft)
22.05.2019 04:17 8,4 °C 94 % 1014,7 hPa 0,2 mm 5,4 km/h (1 Bft) W-SW 244 ° 0 min 0,000 mm 0,0 UV-I 0 W/m² 7,5 °C 7,8 °C 11,3 km/h (2 Bft)
22.05.2019 04:18 8,4 °C 94 % 1014,7 hPa 0,0 mm 11,8 km/h (2 Bft) W 268 ° 0 min 0,000 mm 0,0 UV-I 0 W/m² 7,5 °C 6,4 °C 17,7 km/h (3 Bft)
22.05.2019 04:19 8,4 °C 94 % 1014,7 hPa 0,0 mm 6,1 km/h (2 Bft) W 259 ° 0 min 0,000 mm 0,0 UV-I 0 W/m² 7,5 °C 7,6 °C 8,0 km/h (2 Bft)
22.05.2019 04:20 8,4 °C 94 % 1014,7 hPa 0,0 mm 6,0 km/h (2 Bft) W-SW 250 ° 0 min 0,000 mm 0,0 UV-I 0 W/m² 7,5 °C 7,6 °C 9,7 km/h (2 Bft)
22.05.2019 04:21 8,4 °C 94 % 1014,7 hPa 0,0 mm 8,2 km/h (2 Bft) W-SW 239 ° 0 min 0,000 mm 0,0 UV-I 0 W/m² 7,5 °C 7,1 °C 14,5 km/h (3 Bft)
22.05.2019 04:22 8,4 °C 94 % 1014,7 hPa 0,0 mm 5,4 km/h (1 Bft) W-NW 286 ° 0 min 0,000 mm 0,0 UV-I 0 W/m² 7,5 °C 7,8 °C 11,3 km/h (2 Bft)
22.05.2019 04:23 8,4 °C 94 % 1014,7 hPa 0,0 mm 10,5 km/h (2 Bft) W 259 ° 0 min 0,000 mm 0,0 UV-I 0 W/m² 7,5 °C 6,6 °C 17,7 km/h (3 Bft)
22.05.2019 04:24 8,4 °C 94 % 1014,7 hPa 0,0 mm 7,0 km/h (2 Bft) W-NW 284 ° 0 min 0,000 mm 0,0 UV-I 0 W/m² 7,5 °C 7,4 °C 11,3 km/h (2 Bft)
22.05.2019 04:25 8,4 °C 94 % 1014,7 hPa 0,0 mm 6,4 km/h (2 Bft) W 277 ° 0 min 0,000 mm 0,0 UV-I 0 W/m² 7,5 °C 7,5 °C 9,7 km/h (2 Bft)
22.05.2019 04:26 8,4 °C 94 % 1014,7 hPa 0,0 mm 5,7 km/h (1 Bft) W-NW 298 ° 0 min 0,000 mm 0,0 UV-I 0 W/m² 7,5 °C 7,7 °C 11,3 km/h (2 Bft)
22.05.2019 04:27 8,4 °C 94 % 1014,7 hPa 0,2 mm 10,0 km/h (2 Bft) W 266 ° 0 min 0,000 mm 0,0 UV-I 0 W/m² 7,5 °C 6,7 °C 14,5 km/h (3 Bft)
22.05.2019 04:28 8,4 °C 94 % 1014,7 hPa 0,0 mm 4,0 km/h (1 Bft) W 260 ° 0 min 0,000 mm 0,0 UV-I 0 W/m² 7,5 °C 8,4 °C 9,7 km/h (2 Bft)
22.05.2019 04:29 8,4 °C 94 % 1014,7 hPa 0,0 mm 10,1 km/h (2 Bft) SW 233 ° 0 min 0,000 mm 0,0 UV-I 0 W/m² 7,5 °C 6,7 °C 14,5 km/h (3 Bft)
22.05.2019 04:30 8,4 °C 94 % 1014,7 hPa 0,0 mm 6,3 km/h (2 Bft) W-SW 249 ° 0 min 0,000 mm 0,0 UV-I 0 W/m² 7,5 °C 7,5 °C 12,9 km/h (3 Bft)
22.05.2019 04:31 8,4 °C 94 % 1014,7 hPa 0,0 mm 6,4 km/h (2 Bft) W-SW 254 ° 0 min 0,000 mm 0,0 UV-I 0 W/m² 7,5 °C 7,5 °C 9,7 km/h (2 Bft)
22.05.2019 04:32 8,4 °C 94 % 1014,7 hPa 0,0 mm 6,3 km/h (2 Bft) SW 215 ° 0 min 0,000 mm 0,0 UV-I 0 W/m² 7,5 °C 7,5 °C 12,9 km/h (3 Bft)
22.05.2019 04:33 8,4 °C 94 % 1014,7 hPa 0,0 mm 9,5 km/h (2 Bft) W-SW 246 ° 0 min 0,000 mm 0,0 UV-I 0 W/m² 7,5 °C 6,8 °C 14,5 km/h (3 Bft)
22.05.2019 04:34 8,4 °C 94 % 1014,7 hPa 0,0 mm 7,0 km/h (2 Bft) SW 224 ° 0 min 0,000 mm 0,0 UV-I 0 W/m² 7,5 °C 7,4 °C 16,1 km/h (3 Bft)
22.05.2019 04:35 8,4 °C 94 % 1014,7 hPa 0,0 mm 5,8 km/h (2 Bft) W-SW 251 ° 0 min 0,000 mm 0,0 UV-I 0 W/m² 7,5 °C 7,7 °C 9,7 km/h (2 Bft)
22.05.2019 04:36 8,4 °C 94 % 1014,7 hPa 0,0 mm 9,1 km/h (2 Bft) S-SW 202 ° 0 min 0,000 mm 0,0 UV-I 0 W/m² 7,5 °C 6,9 °C 19,3 km/h (3 Bft)
22.05.2019 04:37 8,4 °C 94 % 1014,7 hPa 0,0 mm 5,0 km/h (1 Bft) W 265 ° 0 min 0,000 mm 0,0 UV-I 0 W/m² 7,5 °C 7,9 °C 11,3 km/h (2 Bft)
22.05.2019 04:38 8,4 °C 94 % 1014,8 hPa 0,0 mm 5,9 km/h (2 Bft) W 281 ° 0 min 0,000 mm 0,0 UV-I 0 W/m² 7,5 °C 7,7 °C 11,3 km/h (2 Bft)
22.05.2019 04:39 8,4 °C 94 % 1014,8 hPa 0,2 mm 9,5 km/h (2 Bft) W 266 ° 0 min 0,000 mm 0,0 UV-I 0 W/m² 7,5 °C 6,8 °C 12,9 km/h (3 Bft)
22.05.2019 04:40 8,4 °C 94 % 1014,8 hPa 0,0 mm 7,2 km/h (2 Bft) W 259 ° 0 min 0,000 mm 0,0 UV-I 0 W/m² 7,5 °C 7,3 °C 12,9 km/h (3 Bft)
22.05.2019 04:41 8,4 °C 94 % 1014,8 hPa 0,0 mm 9,5 km/h (2 Bft) W-NW 290 ° 0 min 0,000 mm 0,0 UV-I 0 W/m² 7,5 °C 6,8 °C 16,1 km/h (3 Bft)
22.05.2019 04:42 8,4 °C 94 % 1014,8 hPa 0,0 mm 9,6 km/h (2 Bft) W 264 ° 0 min 0,000 mm 0,0 UV-I 0 W/m² 7,5 °C 6,8 °C 17,7 km/h (3 Bft)
22.05.2019 04:43 8,4 °C 94 % 1014,8 hPa 0,0 mm 7,5 km/h (2 Bft) W-SW 250 ° 0 min 0,000 mm 0,0 UV-I 0 W/m² 7,5 °C 7,2 °C 12,9 km/h (3 Bft)
22.05.2019 04:44 8,4 °C 94 % 1014,8 hPa 0,0 mm 6,6 km/h (2 Bft) SW 230 ° 0 min 0,000 mm 0,0 UV-I 0 W/m² 7,5 °C 7,5 °C 12,9 km/h (3 Bft)
22.05.2019 04:45 8,4 °C 94 % 1014,8 hPa 0,0 mm 3,7 km/h (1 Bft) W-SW 258 ° 0 min 0,000 mm 0,0 UV-I 0 W/m² 7,5 °C 8,4 °C 6,4 km/h (2 Bft)
22.05.2019 04:46 8,4 °C 94 % 1014,9 hPa 0,0 mm 7,0 km/h (2 Bft) W 264 ° 0 min 0,000 mm 0,0 UV-I 0 W/m² 7,5 °C 7,4 °C 11,3 km/h (2 Bft)
22.05.2019 04:47 8,4 °C 94 % 1014,8 hPa 0,0 mm 8,1 km/h (2 Bft) W-SW 255 ° 0 min 0,000 mm 0,0 UV-I 0 W/m² 7,5 °C 7,1 °C 14,5 km/h (3 Bft)
22.05.2019 04:48 8,4 °C 94 % 1014,9 hPa 0,0 mm 7,4 km/h (2 Bft) W 270 ° 0 min 0,000 mm 0,0 UV-I 0 W/m² 7,5 °C 7,3 °C 12,9 km/h (3 Bft)
22.05.2019 04:49 8,4 °C 94 % 1014,9 hPa 0,0 mm 9,7 km/h (2 Bft) W-SW 246 ° 0 min 0,000 mm 0,0 UV-I 0 W/m² 7,5 °C 6,8 °C 12,9 km/h (3 Bft)
22.05.2019 04:50 8,4 °C 94 % 1014,9 hPa 0,0 mm 6,6 km/h (2 Bft) W-SW 240 ° 0 min 0,000 mm 0,0 UV-I 0 W/m² 7,5 °C 7,5 °C 11,3 km/h (2 Bft)
22.05.2019 04:51 8,4 °C 94 % 1014,9 hPa 0,2 mm 6,6 km/h (2 Bft) SW 225 ° 0 min 0,000 mm 0,0 UV-I 0 W/m² 7,5 °C 7,5 °C 12,9 km/h (3 Bft)
22.05.2019 04:52 8,4 °C 94 % 1014,9 hPa 0,0 mm 13,0 km/h (3 Bft) W 271 ° 0 min 0,000 mm 0,0 UV-I 0 W/m² 7,5 °C 6,2 °C 22,5 km/h (4 Bft)
22.05.2019 04:53 8,4 °C 94 % 1014,9 hPa 0,0 mm 13,5 km/h (3 Bft) W 261 ° 0 min 0,000 mm 0,0 UV-I 0 W/m² 7,5 °C 6,1 °C 20,9 km/h (4 Bft)
22.05.2019 04:54 8,4 °C 94 % 1014,9 hPa 0,0 mm 8,9 km/h (2 Bft) W-SW 254 ° 0 min 0,000 mm 0,0 UV-I 0 W/m² 7,5 °C 6,9 °C 17,7 km/h (3 Bft)
22.05.2019 04:55 8,4 °C 94 % 1014,9 hPa 0,0 mm 13,5 km/h (3 Bft) W 274 ° 0 min 0,000 mm 0,0 UV-I 0 W/m² 7,5 °C 6,1 °C 17,7 km/h (3 Bft)
22.05.2019 04:56 8,4 °C 94 % 1014,9 hPa 0,0 mm 10,0 km/h (2 Bft) W 271 ° 0 min 0,000 mm 0,0 UV-I 0 W/m² 7,5 °C 6,7 °C 12,9 km/h (3 Bft)
22.05.2019 04:57 8,4 °C 94 % 1014,9 hPa 0,0 mm 10,1 km/h (2 Bft) W 263 ° 0 min 0,000 mm 0,0 UV-I 0 W/m² 7,5 °C 6,7 °C 22,5 km/h (4 Bft)
22.05.2019 04:58 8,4 °C 94 % 1014,9 hPa 0,0 mm 12,3 km/h (3 Bft) W 271 ° 0 min 0,000 mm 0,0 UV-I 0 W/m² 7,5 °C 6,3 °C 16,1 km/h (3 Bft)
22.05.2019 04:59 8,4 °C 94 % 1014,9 hPa 0,0 mm 9,3 km/h (2 Bft) W-SW 240 ° 0 min 0,000 mm 0,0 UV-I 0 W/m² 7,5 °C 6,9 °C 12,9 km/h (3 Bft)
22.05.2019 05:00 8,4 °C 94 % 1014,9 hPa 0,0 mm 10,6 km/h (2 Bft) W 270 ° 0 min 0,000 mm 0,0 UV-I 0 W/m² 7,5 °C 6,6 °C 17,7 km/h (3 Bft)
22.05.2019 05:01 8,4 °C 94 % 1014,9 hPa 0,0 mm 3,7 km/h (1 Bft) W 277 ° 0 min 0,000 mm 0,0 UV-I 0 W/m² 7,5 °C 8,4 °C 9,7 km/h (2 Bft)
22.05.2019 05:02 8,4 °C 94 % 1014,9 hPa 0,0 mm 11,9 km/h (2 Bft) W-SW 242 ° 0 min 0,000 mm 0,0 UV-I 0 W/m² 7,5 °C 6,4 °C 17,7 km/h (3 Bft)
22.05.2019 05:03 8,4 °C 94 % 1014,9 hPa 0,0 mm 13,1 km/h (3 Bft) W 266 ° 0 min 0,000 mm 0,0 UV-I 0 W/m² 7,5 °C 6,2 °C 19,3 km/h (3 Bft)
22.05.2019 05:04 8,4 °C 94 % 1014,9 hPa 0,0 mm 9,6 km/h (2 Bft) W 281 ° 0 min 0,000 mm 0,0 UV-I 0 W/m² 7,5 °C 6,8 °C 16,1 km/h (3 Bft)
22.05.2019 05:05 8,4 °C 94 % 1014,9 hPa 0,2 mm 5,4 km/h (1 Bft) W 267 ° 0 min 0,000 mm 0,0 UV-I 0 W/m² 7,5 °C 7,8 °C 9,7 km/h (2 Bft)
22.05.2019 05:06 8,4 °C 94 % 1014,9 hPa 0,0 mm 13,6 km/h (3 Bft) W 259 ° 0 min 0,000 mm 0,0 UV-I 0 W/m² 7,5 °C 6,1 °C 16,1 km/h (3 Bft)
22.05.2019 05:07 8,4 °C 94 % 1014,9 hPa 0,0 mm 8,5 km/h (2 Bft) W-SW 252 ° 0 min 0,000 mm 0,0 UV-I 0 W/m² 7,5 °C 7,0 °C 14,5 km/h (3 Bft)
22.05.2019 05:08 8,4 °C 94 % 1014,9 hPa 0,0 mm 3,8 km/h (1 Bft) W 269 ° 0 min 0,000 mm 0,0 UV-I 0 W/m² 7,5 °C 8,4 °C 6,4 km/h (2 Bft)
22.05.2019 05:09 8,4 °C 94 % 1014,9 hPa 0,0 mm 11,8 km/h (2 Bft) W 260 ° 0 min 0,000 mm 0,0 UV-I 0 W/m² 7,5 °C 6,4 °C 17,7 km/h (3 Bft)
22.05.2019 05:10 8,4 °C 94 % 1014,9 hPa 0,0 mm 10,6 km/h (2 Bft) SW 230 ° 0 min 0,000 mm 0,0 UV-I 0 W/m² 7,5 °C 6,6 °C 14,5 km/h (3 Bft)
22.05.2019 05:11 8,4 °C 94 % 1014,9 hPa 0,0 mm 7,7 km/h (2 Bft) SW 221 ° 0 min 0,000 mm 0,0 UV-I 0 W/m² 7,5 °C 7,2 °C 11,3 km/h (2 Bft)
22.05.2019 05:12 8,4 °C 94 % 1014,9 hPa 0,0 mm 10,1 km/h (2 Bft) W-SW 253 ° 0 min 0,000 mm 0,0 UV-I 0 W/m² 7,5 °C 6,7 °C 12,9 km/h (3 Bft)
22.05.2019 05:13 8,4 °C 94 % 1014,9 hPa 0,0 mm 9,3 km/h (2 Bft) SW 222 ° 0 min 0,000 mm 0,0 UV-I 0 W/m² 7,5 °C 6,9 °C 17,7 km/h (3 Bft)
22.05.2019 05:14 8,4 °C 94 % 1014,9 hPa 0,0 mm 6,4 km/h (2 Bft) W-SW 248 ° 0 min 0,000 mm 0,0 UV-I 0 W/m² 7,5 °C 7,5 °C 9,7 km/h (2 Bft)
22.05.2019 05:15 8,4 °C 94 % 1014,9 hPa 0,0 mm 9,9 km/h (2 Bft) W 263 ° 0 min 0,000 mm 0,0 UV-I 0 W/m² 7,5 °C 6,7 °C 14,5 km/h (3 Bft)
22.05.2019 05:16 8,4 °C 94 % 1014,9 hPa 0,0 mm 5,9 km/h (2 Bft) S-SW 205 ° 0 min 0,000 mm 0,0 UV-I 0 W/m² 7,5 °C 7,7 °C 9,7 km/h (2 Bft)
22.05.2019 05:17 8,4 °C 94 % 1014,9 hPa 0,0 mm 6,4 km/h (2 Bft) W-SW 256 ° 0 min 0,000 mm 0,0 UV-I 0 W/m² 7,5 °C 7,5 °C 11,3 km/h (2 Bft)
22.05.2019 05:18 8,4 °C 94 % 1014,9 hPa 0,2 mm 13,6 km/h (3 Bft) W-SW 245 ° 0 min 0,000 mm 0,0 UV-I 0 W/m² 7,5 °C 6,1 °C 20,9 km/h (4 Bft)
22.05.2019 05:19 8,4 °C 94 % 1014,9 hPa 0,0 mm 3,5 km/h (1 Bft) W 264 ° 0 min 0,000 mm 0,0 UV-I 0 W/m² 7,5 °C 8,4 °C 6,4 km/h (2 Bft)
22.05.2019 05:20 8,4 °C 94 % 1015,0 hPa 0,0 mm 5,7 km/h (1 Bft) W 269 ° 0 min 0,000 mm 0,0 UV-I 0 W/m² 7,5 °C 7,7 °C 11,3 km/h (2 Bft)
22.05.2019 05:21 8,4 °C 94 % 1015,0 hPa 0,0 mm 5,2 km/h (1 Bft) W 271 ° 0 min 0,000 mm 0,0 UV-I 0 W/m² 7,5 °C 7,9 °C 6,4 km/h (2 Bft)
22.05.2019 05:22 8,4 °C 94 % 1015,0 hPa 0,0 mm 4,2 km/h (1 Bft) W 281 ° 0 min 0,000 mm 0,0 UV-I 0 W/m² 7,5 °C 8,4 °C 9,7 km/h (2 Bft)
22.05.2019 05:23 8,4 °C 94 % 1015,0 hPa 0,0 mm 10,3 km/h (2 Bft) W 264 ° 0 min 0,000 mm 0,0 UV-I 0 W/m² 7,5 °C 6,7 °C 14,5 km/h (3 Bft)
22.05.2019 05:24 8,4 °C 94 % 1015,0 hPa 0,0 mm 6,5 km/h (2 Bft) W-SW 249 ° 0 min 0,000 mm 0,0 UV-I 0 W/m² 7,5 °C 7,5 °C 12,9 km/h (3 Bft)
22.05.2019 05:25 8,4 °C 94 % 1014,9 hPa 0,0 mm 6,8 km/h (2 Bft) W-SW 253 ° 0 min 0,000 mm 0,0 UV-I 0 W/m² 7,5 °C 7,4 °C 11,3 km/h (2 Bft)
22.05.2019 05:26 8,3 °C 94 % 1015,0 hPa 0,0 mm 6,3 km/h (2 Bft) W 271 ° 0 min 0,000 mm 0,0 UV-I 0 W/m² 7,4 °C 7,4 °C 11,3 km/h (2 Bft)
22.05.2019 05:27 8,3 °C 94 % 1015,0 hPa 0,0 mm 6,2 km/h (2 Bft) W 263 ° 0 min 0,000 mm 0,0 UV-I 0 W/m² 7,4 °C 7,5 °C 12,9 km/h (3 Bft)
22.05.2019 05:28 8,3 °C 94 % 1015,0 hPa 0,0 mm 11,1 km/h (2 Bft) W 262 ° 0 min 0,000 mm 0,0 UV-I 0 W/m² 7,4 °C 6,4 °C 19,3 km/h (3 Bft)
22.05.2019 05:29 8,3 °C 94 % 1015,0 hPa 0,0 mm 7,2 km/h (2 Bft) W-SW 254 ° 0 min 0,000 mm 0,0 UV-I 0 W/m² 7,4 °C 7,2 °C 11,3 km/h (2 Bft)
22.05.2019 05:30 8,3 °C 94 % 1015,0 hPa 0,0 mm 7,1 km/h (2 Bft) W-SW 257 ° 0 min 0,000 mm 0,0 UV-I 0 W/m² 7,4 °C 7,2 °C 14,5 km/h (3 Bft)
22.05.2019 05:31 8,3 °C 94 % 1015,0 hPa 0,0 mm 5,2 km/h (1 Bft) W 277 ° 0 min 0,000 mm 0,0 UV-I 0 W/m² 7,4 °C 7,8 °C 11,3 km/h (2 Bft)
22.05.2019 05:32 8,3 °C 94 % 1015,0 hPa 0,0 mm 9,1 km/h (2 Bft) W-SW 257 ° 0 min 0,000 mm 0,0 UV-I 0 W/m² 7,4 °C 6,8 °C 17,7 km/h (3 Bft)
22.05.2019 05:33 8,3 °C 94 % 1015,1 hPa 0,2 mm 5,0 km/h (1 Bft) W-SW 239 ° 0 min 0,000 mm 0,0 UV-I 0 W/m² 7,4 °C 7,8 °C 8,0 km/h (2 Bft)
22.05.2019 05:34 8,3 °C 94 % 1015,1 hPa 0,0 mm 5,6 km/h (1 Bft) W 278 ° 0 min 0,000 mm 0,0 UV-I 0 W/m² 7,4 °C 7,6 °C 11,3 km/h (2 Bft)
22.05.2019 05:35 8,3 °C 94 % 1015,1 hPa 0,0 mm 5,7 km/h (1 Bft) W 275 ° 0 min 0,000 mm 0,0 UV-I 0 W/m² 7,4 °C 7,6 °C 12,9 km/h (3 Bft)
22.05.2019 05:36 8,3 °C 94 % 1015,1 hPa 0,0 mm 5,0 km/h (1 Bft) W-NW 285 ° 0 min 0,000 mm 0,0 UV-I 0 W/m² 7,4 °C 7,8 °C 11,3 km/h (2 Bft)
22.05.2019 05:37 8,3 °C 94 % 1015,1 hPa 0,0 mm 9,3 km/h (2 Bft) W-SW 249 ° 0 min 0,000 mm 0,0 UV-I 0 W/m² 7,4 °C 6,7 °C 16,1 km/h (3 Bft)
22.05.2019 05:38 8,3 °C 94 % 1015,1 hPa 0,0 mm 8,5 km/h (2 Bft) SW 219 ° 0 min 0,000 mm 0,0 UV-I 0 W/m² 7,4 °C 6,9 °C 12,9 km/h (3 Bft)
22.05.2019 05:39 8,3 °C 94 % 1015,1 hPa 0,0 mm 6,8 km/h (2 Bft) W 266 ° 0 min 0,000 mm 0,0 UV-I 0 W/m² 7,4 °C 7,3 °C 11,3 km/h (2 Bft)
22.05.2019 05:40 8,3 °C 94 % 1015,1 hPa 0,0 mm 7,9 km/h (2 Bft) W 272 ° 0 min 0,000 mm 0,0 UV-I 0 W/m² 7,4 °C 7,0 °C 11,3 km/h (2 Bft)
22.05.2019 05:41 8,3 °C 94 % 1015,2 hPa 0,0 mm 4,4 km/h (1 Bft) W 272 ° 0 min 0,000 mm 0,0 UV-I 0 W/m² 7,4 °C 8,3 °C 9,7 km/h (2 Bft)
22.05.2019 05:42 8,3 °C 94 % 1015,2 hPa 0,0 mm 4,1 km/h (1 Bft) W-NW 282 ° 0 min 0,000 mm 0,0 UV-I 0 W/m² 7,4 °C 8,3 °C 11,3 km/h (2 Bft)
22.05.2019 05:43 8,3 °C 94 % 1015,2 hPa 0,0 mm 3,8 km/h (1 Bft) W-NW 294 ° 0 min 0,000 mm 0,0 UV-I 0 W/m² 7,4 °C 8,3 °C 9,7 km/h (2 Bft)
22.05.2019 05:44 8,3 °C 94 % 1015,2 hPa 0,0 mm 10,7 km/h (2 Bft) W 279 ° 0 min 0,000 mm 0,0 UV-I 0 W/m² 7,4 °C 6,5 °C 14,5 km/h (3 Bft)
22.05.2019 05:45 8,3 °C 94 % 1015,2 hPa 0,0 mm 11,9 km/h (2 Bft) W 267 ° 0 min 0,000 mm 0,0 UV-I 0 W/m² 7,4 °C 6,3 °C 17,7 km/h (3 Bft)
22.05.2019 05:46 8,3 °C 94 % 1015,1 hPa 0,0 mm 5,6 km/h (1 Bft) SW 234 ° 0 min 0,000 mm 0,0 UV-I 0 W/m² 7,4 °C 7,6 °C 11,3 km/h (2 Bft)
22.05.2019 05:47 8,3 °C 94 % 1015,2 hPa 0,0 mm 4,1 km/h (1 Bft) W-SW 252 ° 0 min 0,000 mm 0,0 UV-I 0 W/m² 7,4 °C 8,3 °C 6,4 km/h (2 Bft)
22.05.2019 05:48 8,3 °C 94 % 1015,3 hPa 0,0 mm 6,8 km/h (2 Bft) W-SW 250 ° 0 min 0,000 mm 0,0 UV-I 0 W/m² 7,4 °C 7,3 °C 12,9 km/h (3 Bft)
22.05.2019 05:49 8,3 °C 94 % 1015,2 hPa 0,2 mm 8,6 km/h (2 Bft) W 271 ° 0 min 0,000 mm 0,0 UV-I 0 W/m² 7,4 °C 6,9 °C 16,1 km/h (3 Bft)
22.05.2019 05:50 8,3 °C 94 % 1015,1 hPa 0,0 mm 5,8 km/h (2 Bft) SW 224 ° 0 min 0,000 mm 0,0 UV-I 0 W/m² 7,4 °C 7,6 °C 11,3 km/h (2 Bft)
22.05.2019 05:51 8,3 °C 94 % 1015,2 hPa 0,0 mm 7,0 km/h (2 Bft) W 276 ° 0 min 0,000 mm 0,0 UV-I 0 W/m² 7,4 °C 7,2 °C 12,9 km/h (3 Bft)
22.05.2019 05:52 8,3 °C 94 % 1015,2 hPa 0,0 mm 6,6 km/h (2 Bft) W 280 ° 0 min 0,000 mm 0,0 UV-I 0 W/m² 7,4 °C 7,4 °C 11,3 km/h (2 Bft)
22.05.2019 05:53 8,3 °C 94 % 1015,2 hPa 0,0 mm 8,4 km/h (2 Bft) W-SW 254 ° 0 min 0,000 mm 0,0 UV-I 0 W/m² 7,4 °C 6,9 °C 12,9 km/h (3 Bft)
22.05.2019 05:54 8,3 °C 94 % 1015,3 hPa 0,0 mm 6,2 km/h (2 Bft) W 277 ° 0 min 0,000 mm 0,0 UV-I 0 W/m² 7,4 °C 7,5 °C 11,3 km/h (2 Bft)
22.05.2019 05:55 8,3 °C 94 % 1015,3 hPa 0,0 mm 7,3 km/h (2 Bft) SW 227 ° 0 min 0,000 mm 0,0 UV-I 0 W/m² 7,4 °C 7,2 °C 9,7 km/h (2 Bft)
22.05.2019 05:56 8,3 °C 94 % 1015,2 hPa 0,0 mm 6,3 km/h (2 Bft) W 262 ° 0 min 0,000 mm 0,0 UV-I 0 W/m² 7,4 °C 7,4 °C 12,9 km/h (3 Bft)
22.05.2019 05:57 8,3 °C 94 % 1015,3 hPa 0,0 mm 8,2 km/h (2 Bft) W 259 ° 0 min 0,000 mm 0,0 UV-I 0 W/m² 7,4 °C 7,0 °C 12,9 km/h (3 Bft)
22.05.2019 05:58 8,3 °C 94 % 1015,3 hPa 0,0 mm 6,2 km/h (2 Bft) W-NW 288 ° 0 min 0,000 mm 0,0 UV-I 0 W/m² 7,4 °C 7,5 °C 11,3 km/h (2 Bft)
22.05.2019 05:59 8,3 °C 94 % 1015,3 hPa 0,0 mm 8,0 km/h (2 Bft) W-SW 254 ° 0 min 0,000 mm 0,0 UV-I 0 W/m² 7,4 °C 7,0 °C 11,3 km/h (2 Bft)
22.05.2019 06:00 8,3 °C 94 % 1015,3 hPa 0,0 mm 3,8 km/h (1 Bft) W 268 ° 0 min 0,000 mm 0,0 UV-I 0 W/m² 7,4 °C 8,3 °C 6,4 km/h (2 Bft)
22.05.2019 06:01 8,3 °C 94 % 1015,3 hPa 0,0 mm 7,6 km/h (2 Bft) W 261 ° 0 min 0,000 mm 0,0 UV-I 0 W/m² 7,4 °C 7,1 °C 16,1 km/h (3 Bft)
22.05.2019 06:02 8,3 °C 94 % 1015,3 hPa 0,0 mm 9,3 km/h (2 Bft) SW 214 ° 0 min 0,000 mm 0,0 UV-I 0 W/m² 7,4 °C 6,7 °C 14,5 km/h (3 Bft)
22.05.2019 06:03 8,3 °C 94 % 1015,3 hPa 0,0 mm 7,6 km/h (2 Bft) W-SW 240 ° 0 min 0,000 mm 0,0 UV-I 0 W/m² 7,4 °C 7,1 °C 12,9 km/h (3 Bft)
22.05.2019 06:04 8,3 °C 94 % 1015,3 hPa 0,0 mm 7,4 km/h (2 Bft) W 275 ° 0 min 0,000 mm 0,0 UV-I 0 W/m² 7,4 °C 7,1 °C 11,3 km/h (2 Bft)
22.05.2019 06:05 8,3 °C 94 % 1015,3 hPa 0,0 mm 5,1 km/h (1 Bft) S-SW 210 ° 0 min 0,000 mm 0,0 UV-I 0 W/m² 7,4 °C 7,8 °C 9,7 km/h (2 Bft)
22.05.2019 06:06 8,3 °C 94 % 1015,3 hPa 0,2 mm 7,0 km/h (2 Bft) W-NW 286 ° 0 min 0,000 mm 0,0 UV-I 0 W/m² 7,4 °C 7,2 °C 12,9 km/h (3 Bft)
22.05.2019 06:07 8,3 °C 94 % 1015,4 hPa 0,0 mm 5,2 km/h (1 Bft) W-SW 254 ° 0 min 0,000 mm 0,0 UV-I 0 W/m² 7,4 °C 7,8 °C 9,7 km/h (2 Bft)
22.05.2019 06:08 8,3 °C 94 % 1015,4 hPa 0,0 mm 8,0 km/h (2 Bft) W-SW 257 ° 0 min 0,000 mm 0,0 UV-I 0 W/m² 7,4 °C 7,0 °C 14,5 km/h (3 Bft)
22.05.2019 06:09 8,3 °C 94 % 1015,3 hPa 0,0 mm 9,7 km/h (2 Bft) W-NW 283 ° 0 min 0,000 mm 0,0 UV-I 0 W/m² 7,4 °C 6,7 °C 12,9 km/h (3 Bft)
22.05.2019 06:10 8,3 °C 94 % 1015,3 hPa 0,0 mm 7,4 km/h (2 Bft) W-SW 246 ° 0 min 0,000 mm 0,0 UV-I 5 W/m² 7,4 °C 7,1 °C 12,9 km/h (3 Bft)
22.05.2019 06:11 8,3 °C 94 % 1015,4 hPa 0,0 mm 3,9 km/h (1 Bft) W 259 ° 0 min 0,000 mm 0,0 UV-I 5 W/m² 7,4 °C 8,3 °C 8,0 km/h (2 Bft)
22.05.2019 06:12 8,3 °C 94 % 1015,4 hPa 0,0 mm 7,3 km/h (2 Bft) W 281 ° 0 min 0,000 mm 0,0 UV-I 5 W/m² 7,4 °C 7,2 °C 11,3 km/h (2 Bft)
22.05.2019 06:13 8,3 °C 94 % 1015,4 hPa 0,0 mm 7,4 km/h (2 Bft) W-SW 245 ° 0 min 0,000 mm 0,0 UV-I 5 W/m² 7,4 °C 7,1 °C 11,3 km/h (2 Bft)
22.05.2019 06:14 8,3 °C 94 % 1015,4 hPa 0,0 mm 4,8 km/h (1 Bft) W-NW 294 ° 0 min 0,000 mm 0,0 UV-I 5 W/m² 7,4 °C 7,9 °C 8,0 km/h (2 Bft)
22.05.2019 06:15 8,3 °C 94 % 1015,4 hPa 0,0 mm 5,2 km/h (1 Bft) W-SW 248 ° 0 min 0,000 mm 0,0 UV-I 5 W/m² 7,4 °C 7,8 °C 9,7 km/h (2 Bft)
22.05.2019 06:16 8,3 °C 94 % 1015,4 hPa 0,0 mm 5,4 km/h (1 Bft) W 270 ° 0 min 0,000 mm 0,0 UV-I 5 W/m² 7,4 °C 7,7 °C 12,9 km/h (3 Bft)
22.05.2019 06:17 8,3 °C 94 % 1015,4 hPa 0,0 mm 6,6 km/h (2 Bft) W-NW 287 ° 0 min 0,000 mm 0,0 UV-I 5 W/m² 7,4 °C 7,4 °C 11,3 km/h (2 Bft)
22.05.2019 06:18 8,3 °C 94 % 1015,4 hPa 0,0 mm 7,4 km/h (2 Bft) SW 223 ° 0 min 0,000 mm 0,0 UV-I 5 W/m² 7,4 °C 7,1 °C 11,3 km/h (2 Bft)
22.05.2019 06:19 8,2 °C 94 % 1015,5 hPa 0,2 mm 6,2 km/h (2 Bft) W 281 ° 0 min 0,000 mm 0,0 UV-I 5 W/m² 7,3 °C 7,3 °C 11,3 km/h (2 Bft)
22.05.2019 06:20 8,3 °C 94 % 1015,4 hPa 0,0 mm 5,3 km/h (1 Bft) SW 220 ° 0 min 0,000 mm 0,0 UV-I 5 W/m² 7,4 °C 7,7 °C 8,0 km/h (2 Bft)
22.05.2019 06:21 8,3 °C 94 % 1015,5 hPa 0,0 mm 10,5 km/h (2 Bft) W 275 ° 0 min 0,000 mm 0,0 UV-I 5 W/m² 7,4 °C 6,5 °C 12,9 km/h (3 Bft)
22.05.2019 06:22 8,2 °C 94 % 1015,4 hPa 0,0 mm 4,8 km/h (1 Bft) W 259 ° 0 min 0,000 mm 0,0 UV-I 7 W/m² 7,3 °C 7,8 °C 9,7 km/h (2 Bft)
22.05.2019 06:23 8,3 °C 94 % 1015,5 hPa 0,0 mm 6,0 km/h (2 Bft) S-SW 204 ° 0 min 0,000 mm 0,0 UV-I 7 W/m² 7,4 °C 7,5 °C 11,3 km/h (2 Bft)
22.05.2019 06:24 8,3 °C 94 % 1015,5 hPa 0,0 mm 7,3 km/h (2 Bft) W 272 ° 0 min 0,000 mm 0,0 UV-I 9 W/m² 7,4 °C 7,2 °C 12,9 km/h (3 Bft)
22.05.2019 06:25 8,3 °C 94 % 1015,4 hPa 0,0 mm 4,3 km/h (1 Bft) W 262 ° 0 min 0,000 mm 0,0 UV-I 11 W/m² 7,4 °C 8,3 °C 8,0 km/h (2 Bft)
22.05.2019 06:26 8,3 °C 94 % 1015,4 hPa 0,0 mm 5,0 km/h (1 Bft) SW 236 ° 0 min 0,000 mm 0,0 UV-I 11 W/m² 7,4 °C 7,8 °C 9,7 km/h (2 Bft)
22.05.2019 06:27 8,2 °C 94 % 1015,4 hPa 0,0 mm 8,2 km/h (2 Bft) W-NW 288 ° 0 min 0,000 mm 0,0 UV-I 12 W/m² 7,3 °C 6,8 °C 14,5 km/h (3 Bft)
22.05.2019 06:28 8,3 °C 94 % 1015,4 hPa 0,0 mm 7,2 km/h (2 Bft) W-NW 295 ° 0 min 0,000 mm 0,0 UV-I 14 W/m² 7,4 °C 7,2 °C 11,3 km/h (2 Bft)
22.05.2019 06:29 8,3 °C 94 % 1015,4 hPa 0,0 mm 6,4 km/h (2 Bft) W-SW 257 ° 0 min 0,000 mm 0,0 UV-I 16 W/m² 7,4 °C 7,4 °C 11,3 km/h (2 Bft)
22.05.2019 06:30 8,3 °C 94 % 1015,4 hPa 0,0 mm 4,7 km/h (1 Bft) W-SW 249 ° 0 min 0,000 mm 0,0 UV-I 18 W/m² 7,4 °C 7,9 °C 8,0 km/h (2 Bft)
22.05.2019 06:31 8,3 °C 94 % 1015,4 hPa 0,0 mm 1,9 km/h (1 Bft) W-SW 246 ° 0 min 0,000 mm 0,0 UV-I 18 W/m² 7,4 °C 8,3 °C 4,8 km/h (1 Bft)
22.05.2019 06:32 8,2 °C 94 % 1015,4 hPa 0,0 mm 6,8 km/h (2 Bft) SW 234 ° 0 min 0,000 mm 0,0 UV-I 19 W/m² 7,3 °C 7,2 °C 12,9 km/h (3 Bft)
22.05.2019 06:33 8,3 °C 94 % 1015,4 hPa 0,2 mm 8,5 km/h (2 Bft) W-SW 245 ° 0 min 0,000 mm 0,0 UV-I 25 W/m² 7,4 °C 6,9 °C 14,5 km/h (3 Bft)
22.05.2019 06:34 8,3 °C 94 % 1015,4 hPa 0,0 mm 7,8 km/h (2 Bft) W 265 ° 0 min 0,000 mm 0,0 UV-I 26 W/m² 7,4 °C 7,1 °C 11,3 km/h (2 Bft)
22.05.2019 06:35 8,3 °C 94 % 1015,4 hPa 0,0 mm 4,1 km/h (1 Bft) W-SW 257 ° 0 min 0,000 mm 0,0 UV-I 26 W/m² 7,4 °C 8,3 °C 11,3 km/h (2 Bft)
22.05.2019 06:36 8,3 °C 94 % 1015,4 hPa 0,0 mm 4,2 km/h (1 Bft) W 277 ° 0 min 0,000 mm 0,0 UV-I 26 W/m² 7,4 °C 8,3 °C 6,4 km/h (2 Bft)
22.05.2019 06:37 8,3 °C 94 % 1015,4 hPa 0,0 mm 3,6 km/h (1 Bft) W 281 ° 0 min 0,000 mm 0,0 UV-I 26 W/m² 7,4 °C 8,3 °C 6,4 km/h (2 Bft)
22.05.2019 06:38 8,3 °C 94 % 1015,4 hPa 0,0 mm 5,0 km/h (1 Bft) SW 233 ° 0 min 0,000 mm 0,0 UV-I 26 W/m² 7,4 °C 7,8 °C 9,7 km/h (2 Bft)
22.05.2019 06:39 8,3 °C 94 % 1015,4 hPa 0,0 mm 9,5 km/h (2 Bft) W 280 ° 0 min 0,000 mm 0,0 UV-I 28 W/m² 7,4 °C 6,7 °C 12,9 km/h (3 Bft)
22.05.2019 06:40 8,3 °C 94 % 1015,4 hPa 0,0 mm 5,5 km/h (1 Bft) W-SW 238 ° 0 min 0,000 mm 0,0 UV-I 30 W/m² 7,4 °C 7,7 °C 9,7 km/h (2 Bft)
22.05.2019 06:41 8,3 °C 94 % 1015,4 hPa 0,0 mm 10,5 km/h (2 Bft) W 274 ° 0 min 0,000 mm 0,0 UV-I 30 W/m² 7,4 °C 6,5 °C 16,1 km/h (3 Bft)
22.05.2019 06:42 8,3 °C 94 % 1015,4 hPa 0,0 mm 5,9 km/h (2 Bft) SW 234 ° 0 min 0,000 mm 0,0 UV-I 32 W/m² 7,4 °C 7,5 °C 11,3 km/h (2 Bft)
22.05.2019 06:43 8,3 °C 94 % 1015,4 hPa 0,0 mm 5,6 km/h (1 Bft) W 279 ° 0 min 0,000 mm 0,0 UV-I 32 W/m² 7,4 °C 7,6 °C 8,0 km/h (2 Bft)
22.05.2019 06:44 8,3 °C 94 % 1015,4 hPa 0,2 mm 5,0 km/h (1 Bft) W 262 ° 0 min 0,000 mm 0,0 UV-I 32 W/m² 7,4 °C 7,8 °C 9,7 km/h (2 Bft)
22.05.2019 06:45 8,3 °C 94 % 1015,4 hPa 0,0 mm 5,6 km/h (1 Bft) W-SW 242 ° 0 min 0,000 mm 0,0 UV-I 30 W/m² 7,4 °C 7,6 °C 9,7 km/h (2 Bft)
22.05.2019 06:46 8,3 °C 94 % 1015,4 hPa 0,0 mm 8,0 km/h (2 Bft) W-SW 254 ° 0 min 0,000 mm 0,0 UV-I 30 W/m² 7,4 °C 7,0 °C 12,9 km/h (3 Bft)
22.05.2019 06:47 8,3 °C 94 % 1015,4 hPa 0,0 mm 7,5 km/h (2 Bft) W 279 ° 0 min 0,000 mm 0,0 UV-I 30 W/m² 7,4 °C 7,1 °C 11,3 km/h (2 Bft)
22.05.2019 06:48 8,3 °C 94 % 1015,4 hPa 0,0 mm 3,3 km/h (1 Bft) W-SW 254 ° 0 min 0,000 mm 0,0 UV-I 28 W/m² 7,4 °C 8,3 °C 6,4 km/h (2 Bft)
22.05.2019 06:49 8,3 °C 94 % 1015,5 hPa 0,0 mm 4,0 km/h (1 Bft) W-SW 249 ° 0 min 0,000 mm 0,0 UV-I 28 W/m² 7,4 °C 8,3 °C 6,4 km/h (2 Bft)
22.05.2019 06:50 8,3 °C 94 % 1015,5 hPa 0,0 mm 5,5 km/h (1 Bft) W 263 ° 0 min 0,000 mm 0,0 UV-I 26 W/m² 7,4 °C 7,7 °C 6,4 km/h (2 Bft)
22.05.2019 06:51 8,3 °C 94 % 1015,5 hPa 0,0 mm 7,1 km/h (2 Bft) W-SW 257 ° 0 min 0,000 mm 0,0 UV-I 23 W/m² 7,4 °C 7,2 °C 9,7 km/h (2 Bft)
22.05.2019 06:52 8,3 °C 94 % 1015,5 hPa 0,0 mm 9,7 km/h (2 Bft) W-SW 255 ° 0 min 0,000 mm 0,0 UV-I 21 W/m² 7,4 °C 6,7 °C 16,1 km/h (3 Bft)
22.05.2019 06:53 8,3 °C 94 % 1015,5 hPa 0,0 mm 4,4 km/h (1 Bft) W-SW 254 ° 0 min 0,000 mm 0,0 UV-I 21 W/m² 7,4 °C 8,3 °C 6,4 km/h (2 Bft)
22.05.2019 06:54 8,3 °C 94 % 1015,5 hPa 0,0 mm 9,1 km/h (2 Bft) W 269 ° 0 min 0,000 mm 0,0 UV-I 19 W/m² 7,4 °C 6,8 °C 11,3 km/h (2 Bft)
22.05.2019 06:55 8,3 °C 94 % 1015,6 hPa 0,0 mm 7,3 km/h (2 Bft) W 263 ° 0 min 0,000 mm 0,0 UV-I 19 W/m² 7,4 °C 7,2 °C 14,5 km/h (3 Bft)
22.05.2019 06:56 8,3 °C 94 % 1015,6 hPa 0,0 mm 4,9 km/h (1 Bft) W 270 ° 0 min 0,000 mm 0,0 UV-I 19 W/m² 7,4 °C 7,9 °C 6,4 km/h (2 Bft)
22.05.2019 06:57 8,3 °C 94 % 1015,5 hPa 0,0 mm 3,0 km/h (1 Bft) W 272 ° 0 min 0,000 mm 0,0 UV-I 19 W/m² 7,4 °C 8,3 °C 4,8 km/h (1 Bft)
22.05.2019 06:58 8,3 °C 94 % 1015,5 hPa 0,2 mm 6,9 km/h (2 Bft) W 265 ° 0 min 0,000 mm 0,0 UV-I 21 W/m² 7,4 °C 7,3 °C 12,9 km/h (3 Bft)
22.05.2019 06:59 8,3 °C 94 % 1015,6 hPa 0,0 mm 6,6 km/h (2 Bft) S-SW 209 ° 0 min 0,000 mm 0,0 UV-I 23 W/m² 7,4 °C 7,4 °C 9,7 km/h (2 Bft)
22.05.2019 07:00 8,3 °C 94 % 1015,6 hPa 0,0 mm 6,6 km/h (2 Bft) S-SW 213 ° 0 min 0,000 mm 0,0 UV-I 25 W/m² 7,4 °C 7,4 °C 11,3 km/h (2 Bft)
22.05.2019 07:01 8,3 °C 94 % 1015,6 hPa 0,0 mm 5,7 km/h (1 Bft) W 263 ° 0 min 0,000 mm 0,0 UV-I 25 W/m² 7,4 °C 7,6 °C 9,7 km/h (2 Bft)
22.05.2019 07:02 8,3 °C 94 % 1015,5 hPa 0,0 mm 5,3 km/h (1 Bft) SW 227 ° 0 min 0,000 mm 0,0 UV-I 25 W/m² 7,4 °C 7,7 °C 12,9 km/h (3 Bft)
22.05.2019 07:04 8,3 °C 94 % 1015,6 hPa 0,0 mm 6,0 km/h (2 Bft) W-SW 237 ° 0 min 0,000 mm 0,0 UV-I 30 W/m² 7,4 °C 7,5 °C 9,7 km/h (2 Bft)
22.05.2019 07:05 8,3 °C 94 % 1015,6 hPa 0,0 mm 6,0 km/h (2 Bft) W 273 ° 0 min 0,000 mm 0,0 UV-I 32 W/m² 7,4 °C 7,5 °C 9,7 km/h (2 Bft)
22.05.2019 07:06 8,3 °C 94 % 1015,6 hPa 0,0 mm 5,8 km/h (2 Bft) W 272 ° 0 min 0,000 mm 0,0 UV-I 32 W/m² 7,4 °C 7,6 °C 9,7 km/h (2 Bft)
22.05.2019 07:07 8,4 °C 94 % 1015,6 hPa 0,0 mm 6,8 km/h (2 Bft) SW 231 ° 0 min 0,000 mm 0,0 UV-I 32 W/m² 7,5 °C 7,4 °C 12,9 km/h (3 Bft)
22.05.2019 07:08 8,4 °C 94 % 1015,6 hPa 0,0 mm 4,7 km/h (1 Bft) W 260 ° 0 min 0,000 mm 0,0 UV-I 28 W/m² 7,5 °C 8,0 °C 6,4 km/h (2 Bft)
22.05.2019 07:09 8,4 °C 94 % 1015,7 hPa 0,0 mm 5,9 km/h (2 Bft) W 274 ° 0 min 0,000 mm 0,0 UV-I 26 W/m² 7,5 °C 7,7 °C 9,7 km/h (2 Bft)
22.05.2019 07:10 8,4 °C 94 % 1015,6 hPa 0,0 mm 6,0 km/h (2 Bft) W-SW 243 ° 0 min 0,000 mm 0,0 UV-I 23 W/m² 7,5 °C 7,6 °C 9,7 km/h (2 Bft)
22.05.2019 07:11 8,4 °C 94 % 1015,7 hPa 0,0 mm 7,4 km/h (2 Bft) W 265 ° 0 min 0,000 mm 0,0 UV-I 21 W/m² 7,5 °C 7,3 °C 12,9 km/h (3 Bft)
22.05.2019 07:12 8,4 °C 94 % 1015,7 hPa 0,2 mm 9,6 km/h (2 Bft) W 273 ° 0 min 0,000 mm 0,0 UV-I 18 W/m² 7,5 °C 6,8 °C 14,5 km/h (3 Bft)
22.05.2019 07:13 8,4 °C 94 % 1015,7 hPa 0,0 mm 7,2 km/h (2 Bft) W-SW 247 ° 0 min 0,000 mm 0,0 UV-I 16 W/m² 7,5 °C 7,3 °C 11,3 km/h (2 Bft)
22.05.2019 07:14 8,4 °C 94 % 1015,7 hPa 0,0 mm 6,5 km/h (2 Bft) W 274 ° 0 min 0,000 mm 0,0 UV-I 16 W/m² 7,5 °C 7,5 °C 11,3 km/h (2 Bft)
22.05.2019 07:15 8,4 °C 94 % 1015,7 hPa 0,0 mm 11,7 km/h (2 Bft) W 262 ° 0 min 0,000 mm 0,0 UV-I 14 W/m² 7,5 °C 6,4 °C 16,1 km/h (3 Bft)
22.05.2019 07:16 8,4 °C 94 % 1015,7 hPa 0,0 mm 8,7 km/h (2 Bft) W 259 ° 0 min 0,000 mm 0,0 UV-I 12 W/m² 7,5 °C 7,0 °C 14,5 km/h (3 Bft)
22.05.2019 07:17 8,4 °C 94 % 1015,7 hPa 0,0 mm 1,8 km/h (1 Bft) W-SW 252 ° 0 min 0,000 mm 0,0 UV-I 12 W/m² 7,5 °C 8,4 °C 11,3 km/h (2 Bft)
22.05.2019 07:18 8,4 °C 94 % 1015,7 hPa 0,0 mm 8,9 km/h (2 Bft) NW 308 ° 0 min 0,000 mm 0,0 UV-I 14 W/m² 7,5 °C 6,9 °C 12,9 km/h (3 Bft)
22.05.2019 07:19 8,4 °C 94 % 1015,7 hPa 0,0 mm 4,5 km/h (1 Bft) W-SW 244 ° 0 min 0,000 mm 0,0 UV-I 14 W/m² 7,5 °C 8,4 °C 6,4 km/h (2 Bft)
22.05.2019 07:20 8,4 °C 94 % 1015,7 hPa 0,0 mm 4,6 km/h (1 Bft) W-SW 252 ° 0 min 0,000 mm 0,0 UV-I 14 W/m² 7,5 °C 8,1 °C 6,4 km/h (2 Bft)
22.05.2019 07:21 8,4 °C 94 % 1015,7 hPa 0,0 mm 9,3 km/h (2 Bft) W 259 ° 0 min 0,000 mm 0,0 UV-I 16 W/m² 7,5 °C 6,9 °C 14,5 km/h (3 Bft)
22.05.2019 07:22 8,4 °C 94 % 1015,8 hPa 0,0 mm 6,8 km/h (2 Bft) W 269 ° 0 min 0,000 mm 0,0 UV-I 18 W/m² 7,5 °C 7,4 °C 12,9 km/h (3 Bft)
22.05.2019 07:23 8,4 °C 94 % 1015,8 hPa 0,0 mm 5,2 km/h (1 Bft) W-SW 258 ° 0 min 0,000 mm 0,0 UV-I 18 W/m² 7,5 °C 7,9 °C 14,5 km/h (3 Bft)
22.05.2019 07:24 8,4 °C 94 % 1015,7 hPa 0,0 mm 10,2 km/h (2 Bft) W 278 ° 0 min 0,000 mm 0,0 UV-I 19 W/m² 7,5 °C 6,7 °C 12,9 km/h (3 Bft)
22.05.2019 07:25 8,4 °C 94 % 1015,7 hPa 0,0 mm 7,6 km/h (2 Bft) W-NW 297 ° 0 min 0,000 mm 0,0 UV-I 21 W/m² 7,5 °C 7,2 °C 12,9 km/h (3 Bft)
22.05.2019 07:26 8,5 °C 94 % 1015,7 hPa 0,0 mm 11,8 km/h (2 Bft) SW 231 ° 0 min 0,000 mm 0,0 UV-I 21 W/m² 7,6 °C 6,5 °C 17,7 km/h (3 Bft)
22.05.2019 07:27 8,5 °C 94 % 1015,8 hPa 0,0 mm 7,3 km/h (2 Bft) W 277 ° 0 min 0,000 mm 0,0 UV-I 21 W/m² 7,6 °C 7,4 °C 11,3 km/h (2 Bft)
22.05.2019 07:28 8,5 °C 94 % 1015,8 hPa 0,0 mm 5,3 km/h (1 Bft) W-SW 251 ° 0 min 0,000 mm 0,0 UV-I 23 W/m² 7,6 °C 8,0 °C 9,7 km/h (2 Bft)
22.05.2019 07:29 8,5 °C 94 % 1015,8 hPa 0,0 mm 5,6 km/h (1 Bft) W 275 ° 0 min 0,000 mm 0,0 UV-I 23 W/m² 7,6 °C 7,9 °C 12,9 km/h (3 Bft)
22.05.2019 07:30 8,4 °C 94 % 1015,8 hPa 0,0 mm 10,5 km/h (2 Bft) W-SW 258 ° 0 min 0,000 mm 0,0 UV-I 21 W/m² 7,5 °C 6,6 °C 14,5 km/h (3 Bft)
22.05.2019 07:31 8,5 °C 94 % 1015,8 hPa 0,0 mm 8,8 km/h (2 Bft) S-SW 198 ° 0 min 0,000 mm 0,0 UV-I 21 W/m² 7,6 °C 7,1 °C 12,9 km/h (3 Bft)
22.05.2019 07:32 8,5 °C 94 % 1015,8 hPa 0,0 mm 5,3 km/h (1 Bft) W-SW 248 ° 0 min 0,000 mm 0,0 UV-I 23 W/m² 7,6 °C 8,0 °C 9,7 km/h (2 Bft)
22.05.2019 07:33 8,4 °C 94 % 1015,8 hPa 0,0 mm 8,4 km/h (2 Bft) W 277 ° 0 min 0,000 mm 0,0 UV-I 23 W/m² 7,5 °C 7,0 °C 12,9 km/h (3 Bft)
22.05.2019 07:34 8,5 °C 94 % 1015,8 hPa 0,0 mm 5,8 km/h (2 Bft) W 270 ° 0 min 0,000 mm 0,0 UV-I 25 W/m² 7,6 °C 7,8 °C 11,3 km/h (2 Bft)
22.05.2019 07:35 8,4 °C 94 % 1015,8 hPa 0,0 mm 9,3 km/h (2 Bft) W 267 ° 0 min 0,000 mm 0,0 UV-I 25 W/m² 7,5 °C 6,9 °C 14,5 km/h (3 Bft)
22.05.2019 07:36 8,5 °C 94 % 1015,8 hPa 0,0 mm 15,2 km/h (3 Bft) W 262 ° 0 min 0,000 mm 0,0 UV-I 25 W/m² 7,6 °C 6,0 °C 17,7 km/h (3 Bft)
22.05.2019 07:37 8,5 °C 94 % 1015,8 hPa 0,0 mm 4,6 km/h (1 Bft) W 265 ° 0 min 0,000 mm 0,0 UV-I 25 W/m² 7,6 °C 8,2 °C 11,3 km/h (2 Bft)
22.05.2019 07:38 8,5 °C 94 % 1015,8 hPa 0,0 mm 7,9 km/h (2 Bft) W-SW 248 ° 0 min 0,000 mm 0,0 UV-I 26 W/m² 7,6 °C 7,3 °C 11,3 km/h (2 Bft)
22.05.2019 07:39 8,5 °C 94 % 1015,8 hPa 0,0 mm 9,0 km/h (2 Bft) W 262 ° 0 min 0,000 mm 0,0 UV-I 25 W/m² 7,6 °C 7,0 °C 12,9 km/h (3 Bft)
22.05.2019 07:40 8,5 °C 94 % 1015,8 hPa 0,0 mm 3,9 km/h (1 Bft) W 273 ° 0 min 0,000 mm 0,0 UV-I 23 W/m² 7,6 °C 8,5 °C 11,3 km/h (2 Bft)
22.05.2019 07:41 8,5 °C 94 % 1015,8 hPa 0,0 mm 8,9 km/h (2 Bft) W-SW 250 ° 0 min 0,000 mm 0,0 UV-I 21 W/m² 7,6 °C 7,1 °C 12,9 km/h (3 Bft)
22.05.2019 07:42 8,5 °C 94 % 1015,8 hPa 0,0 mm 5,9 km/h (2 Bft) W-SW 254 ° 0 min 0,000 mm 0,0 UV-I 21 W/m² 7,6 °C 7,8 °C 9,7 km/h (2 Bft)
22.05.2019 07:43 8,5 °C 94 % 1015,8 hPa 0,0 mm 7,3 km/h (2 Bft) W 263 ° 0 min 0,000 mm 0,0 UV-I 19 W/m² 7,6 °C 7,4 °C 16,1 km/h (3 Bft)
22.05.2019 07:44 8,5 °C 94 % 1015,8 hPa 0,0 mm 6,4 km/h (2 Bft) W-SW 252 ° 0 min 0,000 mm 0,0 UV-I 19 W/m² 7,6 °C 7,6 °C 12,9 km/h (3 Bft)
22.05.2019 07:45 8,4 °C 94 % 1015,8 hPa 0,0 mm 3,8 km/h (1 Bft) W 281 ° 0 min 0,000 mm 0,0 UV-I 19 W/m² 7,5 °C 8,4 °C 6,4 km/h (2 Bft)
22.05.2019 07:46 8,4 °C 94 % 1015,8 hPa 0,0 mm 3,8 km/h (1 Bft) SW 232 ° 0 min 0,000 mm 0,0 UV-I 19 W/m² 7,5 °C 8,4 °C 6,4 km/h (2 Bft)
22.05.2019 07:47 8,5 °C 94 % 1015,9 hPa 0,0 mm 3,9 km/h (1 Bft) SW 234 ° 0 min 0,000 mm 0,0 UV-I 21 W/m² 7,6 °C 8,5 °C 8,0 km/h (2 Bft)
22.05.2019 07:48 8,5 °C 94 % 1015,8 hPa 0,0 mm 7,5 km/h (2 Bft) SW 223 ° 0 min 0,000 mm 0,0 UV-I 21 W/m² 7,6 °C 7,4 °C 17,7 km/h (3 Bft)
22.05.2019 07:49 8,4 °C 94 % 1015,8 hPa 0,0 mm 7,8 km/h (2 Bft) W-SW 249 ° 0 min 0,000 mm 0,0 UV-I 23 W/m² 7,5 °C 7,2 °C 12,9 km/h (3 Bft)
22.05.2019 07:50 8,5 °C 94 % 1015,9 hPa 0,0 mm 7,1 km/h (2 Bft) W 262 ° 0 min 0,000 mm 0,0 UV-I 26 W/m² 7,6 °C 7,5 °C 11,3 km/h (2 Bft)
22.05.2019 07:51 8,5 °C 94 % 1015,8 hPa 0,0 mm 3,2 km/h (1 Bft) W 269 ° 0 min 0,000 mm 0,0 UV-I 28 W/m² 7,6 °C 8,5 °C 6,4 km/h (2 Bft)
22.05.2019 07:52 8,5 °C 94 % 1015,9 hPa 0,0 mm 2,8 km/h (1 Bft) W 275 ° 0 min 0,000 mm 0,0 UV-I 30 W/m² 7,6 °C 8,5 °C 4,8 km/h (1 Bft)
22.05.2019 07:53 8,6 °C 94 % 1015,9 hPa 0,0 mm 5,8 km/h (2 Bft) SW 236 ° 0 min 0,000 mm 0,0 UV-I 33 W/m² 7,7 °C 7,9 °C 9,7 km/h (2 Bft)
22.05.2019 07:54 8,5 °C 94 % 1015,9 hPa 0,0 mm 8,4 km/h (2 Bft) SW 229 ° 0 min 0,000 mm 0,0 UV-I 37 W/m² 7,6 °C 7,2 °C 14,5 km/h (3 Bft)
22.05.2019 07:55 8,6 °C 94 % 1015,9 hPa 0,0 mm 3,4 km/h (1 Bft) W-SW 248 ° 0 min 0,000 mm 0,0 UV-I 40 W/m² 7,7 °C 8,6 °C 4,8 km/h (1 Bft)
22.05.2019 07:56 8,6 °C 94 % 1015,9 hPa 0,0 mm 6,6 km/h (2 Bft) W-SW 254 ° 0 min 0,000 mm 0,0 UV-I 46 W/m² 7,7 °C 7,7 °C 12,9 km/h (3 Bft)
22.05.2019 07:57 8,6 °C 94 % 1015,9 hPa 0,0 mm 7,5 km/h (2 Bft) W 263 ° 0 min 0,000 mm 0,0 UV-I 44 W/m² 7,7 °C 7,5 °C 16,1 km/h (3 Bft)
22.05.2019 07:58 8,6 °C 94 % 1015,9 hPa 0,0 mm 8,8 km/h (2 Bft) W 277 ° 0 min 0,000 mm 0,0 UV-I 42 W/m² 7,7 °C 7,2 °C 12,9 km/h (3 Bft)
22.05.2019 07:59 8,6 °C 94 % 1015,9 hPa 0,0 mm 9,3 km/h (2 Bft) W 267 ° 0 min 0,000 mm 0,0 UV-I 40 W/m² 7,7 °C 7,1 °C 12,9 km/h (3 Bft)
22.05.2019 08:00 8,6 °C 94 % 1015,9 hPa 0,0 mm 6,9 km/h (2 Bft) W-SW 257 ° 0 min 0,000 mm 0,0 UV-I 39 W/m² 7,7 °C 7,6 °C 11,3 km/h (2 Bft)
22.05.2019 08:01 8,6 °C 94 % 1016,0 hPa 0,0 mm 5,3 km/h (1 Bft) W 263 ° 0 min 0,025 mm 0,0 UV-I 35 W/m² 7,7 °C 8,1 °C 11,3 km/h (2 Bft)
22.05.2019 08:02 8,6 °C 94 % 1016,0 hPa 0,0 mm 6,1 km/h (2 Bft) W-SW 254 ° 0 min 0,000 mm 0,0 UV-I 33 W/m² 7,7 °C 7,8 °C 9,7 km/h (2 Bft)
22.05.2019 08:03 8,6 °C 94 % 1016,0 hPa 0,0 mm 4,6 km/h (1 Bft) W-NW 293 ° 0 min 0,000 mm 0,0 UV-I 32 W/m² 7,7 °C 8,3 °C 6,4 km/h (2 Bft)
22.05.2019 08:04 8,6 °C 94 % 1015,9 hPa 0,0 mm 6,8 km/h (2 Bft) W-SW 257 ° 0 min 0,000 mm 0,0 UV-I 32 W/m² 7,7 °C 7,6 °C 9,7 km/h (2 Bft)
22.05.2019 08:05 8,6 °C 94 % 1015,9 hPa 0,0 mm 5,0 km/h (1 Bft) W 266 ° 0 min 0,000 mm 0,0 UV-I 30 W/m² 7,7 °C 8,2 °C 6,4 km/h (2 Bft)
22.05.2019 08:06 8,6 °C 94 % 1016,0 hPa 0,0 mm 5,2 km/h (1 Bft) W-SW 245 ° 0 min 0,000 mm 0,0 UV-I 30 W/m² 7,7 °C 8,1 °C 9,7 km/h (2 Bft)
22.05.2019 08:07 8,6 °C 94 % 1016,0 hPa 0,0 mm 3,7 km/h (1 Bft) W-SW 252 ° 0 min 0,000 mm 0,0 UV-I 32 W/m² 7,7 °C 8,6 °C 6,4 km/h (2 Bft)
22.05.2019 08:08 8,6 °C 94 % 1016,0 hPa 0,0 mm 6,2 km/h (2 Bft) S-SW 207 ° 0 min 0,000 mm 0,0 UV-I 32 W/m² 7,7 °C 7,8 °C 9,7 km/h (2 Bft)
22.05.2019 08:09 8,6 °C 94 % 1016,0 hPa 0,0 mm 4,6 km/h (1 Bft) W 269 ° 0 min 0,000 mm 0,0 UV-I 33 W/m² 7,7 °C 8,3 °C 11,3 km/h (2 Bft)
22.05.2019 08:10 8,6 °C 94 % 1016,0 hPa 0,0 mm 7,2 km/h (2 Bft) W-SW 258 ° 0 min 0,000 mm 0,0 UV-I 33 W/m² 7,7 °C 7,5 °C 11,3 km/h (2 Bft)
22.05.2019 08:11 8,6 °C 94 % 1016,0 hPa 0,0 mm 3,0 km/h (1 Bft) W-SW 255 ° 0 min 0,000 mm 0,0 UV-I 33 W/m² 7,7 °C 8,6 °C 4,8 km/h (1 Bft)
22.05.2019 08:12 8,6 °C 94 % 1016,0 hPa 0,0 mm 8,9 km/h (2 Bft) SW 226 ° 0 min 0,000 mm 0,0 UV-I 33 W/m² 7,7 °C 7,2 °C 12,9 km/h (3 Bft)
22.05.2019 08:13 8,6 °C 94 % 1016,0 hPa 0,0 mm 6,5 km/h (2 Bft) W 271 ° 0 min 0,000 mm 0,0 UV-I 37 W/m² 7,7 °C 7,7 °C 11,3 km/h (2 Bft)
22.05.2019 08:14 8,6 °C 94 % 1016,1 hPa 0,0 mm 4,3 km/h (1 Bft) W-NW 282 ° 0 min 0,000 mm 0,0 UV-I 39 W/m² 7,7 °C 8,6 °C 6,4 km/h (2 Bft)
22.05.2019 08:15 8,6 °C 94 % 1016,1 hPa 0,0 mm 4,3 km/h (1 Bft) W-SW 242 ° 0 min 0,000 mm 0,0 UV-I 39 W/m² 7,7 °C 8,6 °C 6,4 km/h (2 Bft)
22.05.2019 08:16 8,6 °C 94 % 1016,1 hPa 0,0 mm 3,7 km/h (1 Bft) W 277 ° 0 min 0,000 mm 0,0 UV-I 40 W/m² 7,7 °C 8,6 °C 4,8 km/h (1 Bft)
22.05.2019 08:17 8,7 °C 94 % 1016,1 hPa 0,0 mm 8,6 km/h (2 Bft) W 261 ° 0 min 0,000 mm 0,0 UV-I 42 W/m² 7,8 °C 7,4 °C 12,9 km/h (3 Bft)
22.05.2019 08:18 8,7 °C 94 % 1016,1 hPa 0,0 mm 2,7 km/h (1 Bft) W 261 ° 0 min 0,000 mm 0,0 UV-I 42 W/m² 7,8 °C 8,7 °C 4,8 km/h (1 Bft)
22.05.2019 08:19 8,7 °C 94 % 1016,1 hPa 0,0 mm 3,0 km/h (1 Bft) W-SW 258 ° 0 min 0,000 mm 0,0 UV-I 46 W/m² 7,8 °C 8,7 °C 4,8 km/h (1 Bft)
22.05.2019 08:20 8,7 °C 94 % 1016,1 hPa 0,0 mm 4,9 km/h (1 Bft) W 269 ° 0 min 0,000 mm 0,0 UV-I 46 W/m² 7,8 °C 8,3 °C 9,7 km/h (2 Bft)
22.05.2019 08:21 8,7 °C 94 % 1016,1 hPa 0,0 mm 4,0 km/h (1 Bft) W-SW 252 ° 0 min 0,000 mm 0,0 UV-I 42 W/m² 7,8 °C 8,7 °C 6,4 km/h (2 Bft)
22.05.2019 08:22 8,7 °C 94 % 1016,1 hPa 0,0 mm 3,9 km/h (1 Bft) W-SW 249 ° 0 min 0,000 mm 0,0 UV-I 40 W/m² 7,8 °C 8,7 °C 6,4 km/h (2 Bft)
22.05.2019 08:23 8,7 °C 94 % 1016,1 hPa 0,0 mm 5,1 km/h (1 Bft) W 267 ° 0 min 0,000 mm 0,0 UV-I 37 W/m² 7,8 °C 8,2 °C 9,7 km/h (2 Bft)
22.05.2019 08:24 8,8 °C 94 % 1016,2 hPa 0,0 mm 1,8 km/h (1 Bft) W 267 ° 0 min 0,000 mm 0,0 UV-I 33 W/m² 7,9 °C 8,8 °C 3,2 km/h (1 Bft)
22.05.2019 08:25 8,8 °C 94 % 1016,1 hPa 0,0 mm 2,8 km/h (1 Bft) W 274 ° 0 min 0,000 mm 0,0 UV-I 32 W/m² 7,9 °C 8,8 °C 6,4 km/h (2 Bft)
22.05.2019 08:26 8,8 °C 94 % 1016,2 hPa 0,0 mm 4,7 km/h (1 Bft) W 280 ° 0 min 0,000 mm 0,0 UV-I 32 W/m² 7,9 °C 8,5 °C 6,4 km/h (2 Bft)
22.05.2019 08:27 8,8 °C 94 % 1016,1 hPa 0,0 mm 3,8 km/h (1 Bft) W 281 ° 0 min 0,000 mm 0,0 UV-I 32 W/m² 7,9 °C 8,8 °C 6,4 km/h (2 Bft)
22.05.2019 08:28 8,7 °C 94 % 1016,2 hPa 0,0 mm 5,2 km/h (1 Bft) W 259 ° 0 min 0,000 mm 0,0 UV-I 33 W/m² 7,8 °C 8,2 °C 8,0 km/h (2 Bft)
22.05.2019 08:29 8,7 °C 94 % 1016,2 hPa 0,0 mm 4,0 km/h (1 Bft) SW 224 ° 0 min 0,000 mm 0,0 UV-I 35 W/m² 7,8 °C 8,7 °C 4,8 km/h (1 Bft)
22.05.2019 08:30 8,7 °C 94 % 1016,2 hPa 0,0 mm 4,1 km/h (1 Bft) W-SW 247 ° 0 min 0,000 mm 0,0 UV-I 37 W/m² 7,8 °C 8,7 °C 6,4 km/h (2 Bft)
22.05.2019 08:31 8,7 °C 94 % 1016,2 hPa 0,0 mm 3,7 km/h (1 Bft) W 265 ° 0 min 0,000 mm 0,0 UV-I 39 W/m² 7,8 °C 8,7 °C 6,4 km/h (2 Bft)
22.05.2019 08:32 8,7 °C 94 % 1016,3 hPa 0,0 mm 3,3 km/h (1 Bft) W 262 ° 0 min 0,000 mm 0,0 UV-I 39 W/m² 7,8 °C 8,7 °C 6,4 km/h (2 Bft)
22.05.2019 08:33 8,7 °C 94 % 1016,3 hPa 0,0 mm 3,7 km/h (1 Bft) W-SW 252 ° 0 min 0,000 mm 0,0 UV-I 40 W/m² 7,8 °C 8,7 °C 4,8 km/h (1 Bft)
22.05.2019 08:34 8,8 °C 94 % 1016,3 hPa 0,0 mm 2,1 km/h (1 Bft) W-SW 252 ° 0 min 0,000 mm 0,0 UV-I 42 W/m² 7,9 °C 8,8 °C 4,8 km/h (1 Bft)
22.05.2019 08:35 8,8 °C 94 % 1016,3 hPa 0,0 mm 2,8 km/h (1 Bft) SW 217 ° 0 min 0,000 mm 0,0 UV-I 42 W/m² 7,9 °C 8,8 °C 4,8 km/h (1 Bft)
22.05.2019 08:36 8,8 °C 94 % 1016,3 hPa 0,0 mm 1,9 km/h (1 Bft) W-SW 240 ° 0 min 0,000 mm 0,0 UV-I 44 W/m² 7,9 °C 8,8 °C 4,8 km/h (1 Bft)
22.05.2019 08:37 8,7 °C 94 % 1016,3 hPa 0,0 mm 3,6 km/h (1 Bft) W 259 ° 0 min 0,000 mm 0,0 UV-I 42 W/m² 7,8 °C 8,7 °C 6,4 km/h (2 Bft)
22.05.2019 08:38 8,7 °C 94 % 1016,3 hPa 0,0 mm 3,2 km/h (1 Bft) W 279 ° 0 min 0,000 mm 0,0 UV-I 42 W/m² 7,8 °C 8,7 °C 4,8 km/h (1 Bft)
22.05.2019 08:39 8,8 °C 94 % 1016,3 hPa 0,0 mm 5,0 km/h (1 Bft) W 269 ° 0 min 0,000 mm 0,0 UV-I 40 W/m² 7,9 °C 8,4 °C 6,4 km/h (2 Bft)
22.05.2019 08:40 8,8 °C 94 % 1016,3 hPa 0,0 mm 5,4 km/h (1 Bft) W-SW 248 ° 0 min 0,000 mm 0,0 UV-I 42 W/m² 7,9 °C 8,3 °C 9,7 km/h (2 Bft)
22.05.2019 08:41 8,7 °C 94 % 1016,3 hPa 0,0 mm 2,0 km/h (1 Bft) W 260 ° 0 min 0,000 mm 0,0 UV-I 44 W/m² 7,8 °C 8,7 °C 4,8 km/h (1 Bft)
22.05.2019 08:42 8,8 °C 94 % 1016,3 hPa 0,0 mm 5,5 km/h (1 Bft) W 274 ° 0 min 0,000 mm 0,0 UV-I 42 W/m² 7,9 °C 8,2 °C 11,3 km/h (2 Bft)
22.05.2019 08:43 8,7 °C 94 % 1016,4 hPa 0,0 mm 3,4 km/h (1 Bft) W-SW 258 ° 0 min 0,000 mm 0,0 UV-I 39 W/m² 7,8 °C 8,7 °C 6,4 km/h (2 Bft)
22.05.2019 08:44 8,7 °C 94 % 1016,4 hPa 0,0 mm 2,4 km/h (1 Bft) W-SW 256 ° 0 min 0,000 mm 0,0 UV-I 37 W/m² 7,8 °C 8,7 °C 4,8 km/h (1 Bft)
22.05.2019 08:45 8,8 °C 94 % 1016,4 hPa 0,2 mm 5,0 km/h (1 Bft) W-NW 290 ° 0 min 0,000 mm 0,0 UV-I 35 W/m² 7,9 °C 8,4 °C 9,7 km/h (2 Bft)
22.05.2019 08:46 8,8 °C 94 % 1016,4 hPa 0,0 mm 4,6 km/h (1 Bft) W-SW 257 ° 0 min 0,000 mm 0,0 UV-I 33 W/m² 7,9 °C 8,5 °C 6,4 km/h (2 Bft)
22.05.2019 08:47 8,8 °C 94 % 1016,4 hPa 0,0 mm 2,1 km/h (1 Bft) W-SW 257 ° 0 min 0,000 mm 0,0 UV-I 33 W/m² 7,9 °C 8,8 °C 3,2 km/h (1 Bft)
22.05.2019 08:48 8,7 °C 94 % 1016,4 hPa 0,0 mm 8,0 km/h (2 Bft) W-SW 252 ° 0 min 0,000 mm 0,0 UV-I 32 W/m² 7,8 °C 7,5 °C 14,5 km/h (3 Bft)
22.05.2019 08:49 8,7 °C 94 % 1016,4 hPa 0,0 mm 7,5 km/h (2 Bft) W 265 ° 0 min 0,000 mm 0,0 UV-I 30 W/m² 7,8 °C 7,6 °C 14,5 km/h (3 Bft)
22.05.2019 08:50 8,7 °C 94 % 1016,4 hPa 0,0 mm 2,8 km/h (1 Bft) W 263 ° 0 min 0,000 mm 0,0 UV-I 28 W/m² 7,8 °C 8,7 °C 6,4 km/h (2 Bft)
22.05.2019 08:51 8,7 °C 94 % 1016,4 hPa 0,0 mm 4,0 km/h (1 Bft) W-SW 253 ° 0 min 0,000 mm 0,0 UV-I 28 W/m² 7,8 °C 8,7 °C 6,4 km/h (2 Bft)
22.05.2019 08:52 8,7 °C 93 % 1016,4 hPa 0,0 mm 1,5 km/h (1 Bft) W-SW 251 ° 0 min 0,000 mm 0,0 UV-I 26 W/m² 7,6 °C 8,7 °C 3,2 km/h (1 Bft)
22.05.2019 08:53 8,7 °C 94 % 1016,4 hPa 0,0 mm 6,2 km/h (2 Bft) W 263 ° 0 min 0,000 mm 0,0 UV-I 26 W/m² 7,8 °C 7,9 °C 9,7 km/h (2 Bft)
22.05.2019 08:54 8,7 °C 94 % 1016,4 hPa 0,0 mm 3,3 km/h (1 Bft) W-SW 258 ° 0 min 0,000 mm 0,0 UV-I 28 W/m² 7,8 °C 8,7 °C 4,8 km/h (1 Bft)
22.05.2019 08:55 8,7 °C 94 % 1016,5 hPa 0,0 mm 3,5 km/h (1 Bft) W 281 ° 0 min 0,000 mm 0,0 UV-I 26 W/m² 7,8 °C 8,7 °C 6,4 km/h (2 Bft)
22.05.2019 08:56 8,7 °C 94 % 1016,4 hPa 0,0 mm 2,3 km/h (1 Bft) W 275 ° 0 min 0,000 mm 0,0 UV-I 26 W/m² 7,8 °C 8,7 °C 4,8 km/h (1 Bft)
22.05.2019 08:57 8,7 °C 94 % 1016,5 hPa 0,0 mm 3,0 km/h (1 Bft) W 276 ° 0 min 0,000 mm 0,0 UV-I 26 W/m² 7,8 °C 8,7 °C 4,8 km/h (1 Bft)
22.05.2019 08:58 8,7 °C 94 % 1016,5 hPa 0,0 mm 1,5 km/h (1 Bft) W 276 ° 0 min 0,000 mm 0,0 UV-I 28 W/m² 7,8 °C 8,7 °C 4,8 km/h (1 Bft)
22.05.2019 08:59 8,7 °C 94 % 1016,5 hPa 0,0 mm 3,4 km/h (1 Bft) W-NW 283 ° 0 min 0,000 mm 0,0 UV-I 28 W/m² 7,8 °C 8,7 °C 11,3 km/h (2 Bft)
22.05.2019 09:00 8,7 °C 94 % 1016,5 hPa 0,0 mm 7,1 km/h (2 Bft) S 190 ° 0 min 0,026 mm 0,0 UV-I 28 W/m² 7,8 °C 7,7 °C 12,9 km/h (3 Bft)
22.05.2019 09:01 8,7 °C 94 % 1016,5 hPa 0,0 mm 3,6 km/h (1 Bft) W 259 ° 0 min 0,000 mm 0,0 UV-I 30 W/m² 7,8 °C 8,7 °C 6,4 km/h (2 Bft)
22.05.2019 09:02 8,7 °C 94 % 1016,5 hPa 0,0 mm 3,3 km/h (1 Bft) W 259 ° 0 min 0,000 mm 0,0 UV-I 30 W/m² 7,8 °C 8,7 °C 4,8 km/h (1 Bft)
22.05.2019 09:03 8,7 °C 93 % 1016,5 hPa 0,0 mm 0,9 km/h (0 Bft) W 259 ° 0 min 0,000 mm 0,0 UV-I 32 W/m² 7,6 °C 8,7 °C 3,2 km/h (1 Bft)
22.05.2019 09:04 8,7 °C 94 % 1016,5 hPa 0,0 mm 0,1 km/h (0 Bft) W 259 ° 0 min 0,000 mm 0,0 UV-I 35 W/m² 7,8 °C 8,7 °C 1,6 km/h (1 Bft)
22.05.2019 09:05 8,7 °C 94 % 1016,5 hPa 0,0 mm 1,9 km/h (1 Bft) SW 227 ° 0 min 0,000 mm 0,0 UV-I 35 W/m² 7,8 °C 8,7 °C 4,8 km/h (1 Bft)
22.05.2019 09:06 8,7 °C 94 % 1016,5 hPa 0,0 mm 4,2 km/h (1 Bft) W 265 ° 0 min 0,000 mm 0,0 UV-I 37 W/m² 7,8 °C 8,7 °C 9,7 km/h (2 Bft)
22.05.2019 09:07 8,8 °C 93 % 1016,5 hPa 0,0 mm 1,3 km/h (1 Bft) W 265 ° 0 min 0,000 mm 0,0 UV-I 39 W/m² 7,7 °C 8,8 °C 3,2 km/h (1 Bft)
22.05.2019 09:08 8,7 °C 94 % 1016,5 hPa 0,0 mm 1,4 km/h (1 Bft) W-SW 249 ° 0 min 0,000 mm 0,0 UV-I 40 W/m² 7,8 °C 8,7 °C 4,8 km/h (1 Bft)
22.05.2019 09:09 8,8 °C 94 % 1016,5 hPa 0,0 mm 2,1 km/h (1 Bft) W-SW 248 ° 0 min 0,000 mm 0,0 UV-I 40 W/m² 7,9 °C 8,8 °C 4,8 km/h (1 Bft)
22.05.2019 09:10 8,8 °C 94 % 1016,5 hPa 0,0 mm 1,9 km/h (1 Bft) W-SW 249 ° 0 min 0,000 mm 0,0 UV-I 44 W/m² 7,9 °C 8,8 °C 4,8 km/h (1 Bft)
22.05.2019 09:11 8,8 °C 94 % 1016,5 hPa 0,0 mm 3,5 km/h (1 Bft) W 259 ° 0 min 0,000 mm 0,0 UV-I 46 W/m² 7,9 °C 8,8 °C 6,4 km/h (2 Bft)
22.05.2019 09:12 8,8 °C 94 % 1016,5 hPa 0,0 mm 5,2 km/h (1 Bft) W 267 ° 0 min 0,000 mm 0,0 UV-I 51 W/m² 7,9 °C 8,3 °C 9,7 km/h (2 Bft)
22.05.2019 09:13 8,8 °C 94 % 1016,5 hPa 0,0 mm 2,7 km/h (1 Bft) W-SW 251 ° 0 min 0,000 mm 0,0 UV-I 51 W/m² 7,9 °C 8,8 °C 4,8 km/h (1 Bft)
22.05.2019 09:14 8,8 °C 94 % 1016,5 hPa 0,0 mm 0,5 km/h (0 Bft) W-SW 251 ° 0 min 0,000 mm 0,0 UV-I 58 W/m² 7,9 °C 8,8 °C 1,6 km/h (1 Bft)
22.05.2019 09:15 8,8 °C 94 % 1016,5 hPa 0,0 mm 2,1 km/h (1 Bft) W-SW 251 ° 0 min 0,000 mm 0,5 UV-I 63 W/m² 7,9 °C 8,8 °C 4,8 km/h (1 Bft)
22.05.2019 09:16 8,9 °C 94 % 1016,5 hPa 0,0 mm 3,7 km/h (1 Bft) W-SW 258 ° 0 min 0,000 mm 0,5 UV-I 67 W/m² 8,0 °C 8,9 °C 4,8 km/h (1 Bft)
22.05.2019 09:17 8,8 °C 94 % 1016,5 hPa 0,0 mm 0,5 km/h (0 Bft) W 263 ° 0 min 0,000 mm 0,5 UV-I 67 W/m² 7,9 °C 8,8 °C 3,2 km/h (1 Bft)
22.05.2019 09:18 8,8 °C 94 % 1016,5 hPa 0,0 mm 4,2 km/h (1 Bft) W 259 ° 0 min 0,000 mm 0,5 UV-I 72 W/m² 7,9 °C 8,8 °C 4,8 km/h (1 Bft)
22.05.2019 09:19 8,9 °C 94 % 1016,5 hPa 0,0 mm 3,3 km/h (1 Bft) W 263 ° 0 min 0,000 mm 0,6 UV-I 74 W/m² 8,0 °C 8,9 °C 6,4 km/h (2 Bft)
22.05.2019 09:20 8,9 °C 94 % 1016,5 hPa 0,0 mm 2,5 km/h (1 Bft) W 261 ° 0 min 0,000 mm 0,6 UV-I 74 W/m² 8,0 °C 8,9 °C 3,2 km/h (1 Bft)
22.05.2019 09:21 8,9 °C 94 % 1016,5 hPa 0,0 mm 1,1 km/h (1 Bft) W 261 ° 0 min 0,000 mm 0,6 UV-I 74 W/m² 8,0 °C 8,9 °C 3,2 km/h (1 Bft)
22.05.2019 09:22 8,9 °C 94 % 1016,6 hPa 0,0 mm 1,5 km/h (1 Bft) W 262 ° 0 min 0,000 mm 0,6 UV-I 74 W/m² 8,0 °C 8,9 °C 4,8 km/h (1 Bft)
22.05.2019 09:23 8,9 °C 94 % 1016,5 hPa 0,0 mm 4,1 km/h (1 Bft) W 264 ° 0 min 0,000 mm 0,6 UV-I 76 W/m² 8,0 °C 8,9 °C 6,4 km/h (2 Bft)
22.05.2019 09:24 9,0 °C 94 % 1016,5 hPa 0,0 mm 3,3 km/h (1 Bft) W 263 ° 0 min 0,000 mm 0,6 UV-I 77 W/m² 8,1 °C 9,0 °C 6,4 km/h (2 Bft)
22.05.2019 09:25 9,0 °C 94 % 1016,5 hPa 0,0 mm 1,4 km/h (1 Bft) W 263 ° 0 min 0,000 mm 0,6 UV-I 77 W/m² 8,1 °C 9,0 °C 3,2 km/h (1 Bft)
22.05.2019 09:26 9,1 °C 94 % 1016,5 hPa 0,0 mm 2,3 km/h (1 Bft) W 263 ° 0 min 0,000 mm 0,6 UV-I 77 W/m² 8,2 °C 9,1 °C 4,8 km/h (1 Bft)
22.05.2019 09:27 9,1 °C 94 % 1016,5 hPa 0,0 mm 0,6 km/h (0 Bft) W 263 ° 0 min 0,000 mm 0,6 UV-I 76 W/m² 8,2 °C 9,1 °C 3,2 km/h (1 Bft)
22.05.2019 09:28 9,1 °C 94 % 1016,5 hPa 0,0 mm 2,4 km/h (1 Bft) W-SW 258 ° 0 min 0,000 mm 0,6 UV-I 74 W/m² 8,2 °C 9,1 °C 9,7 km/h (2 Bft)
22.05.2019 09:29 9,1 °C 94 % 1016,5 hPa 0,0 mm 5,1 km/h (1 Bft) W 279 ° 0 min 0,000 mm 0,6 UV-I 72 W/m² 8,2 °C 8,7 °C 8,0 km/h (2 Bft)
22.05.2019 09:30 9,1 °C 94 % 1016,5 hPa 0,0 mm 3,8 km/h (1 Bft) W-SW 245 ° 0 min 0,000 mm 0,6 UV-I 72 W/m² 8,2 °C 9,1 °C 6,4 km/h (2 Bft)
22.05.2019 09:31 9,0 °C 94 % 1016,5 hPa 0,0 mm 2,4 km/h (1 Bft) W-SW 246 ° 0 min 0,000 mm 0,6 UV-I 74 W/m² 8,1 °C 9,0 °C 4,8 km/h (1 Bft)
22.05.2019 09:32 9,0 °C 94 % 1016,5 hPa 0,0 mm 3,0 km/h (1 Bft) O-SO 112 ° 0 min 0,000 mm 0,6 UV-I 76 W/m² 8,1 °C 9,0 °C 4,8 km/h (1 Bft)
22.05.2019 09:33 9,0 °C 94 % 1016,5 hPa 0,0 mm 6,6 km/h (2 Bft) W-SW 257 ° 0 min 0,000 mm 0,6 UV-I 76 W/m² 8,1 °C 8,2 °C 11,3 km/h (2 Bft)
22.05.2019 09:34 9,0 °C 94 % 1016,6 hPa 0,0 mm 4,2 km/h (1 Bft) W 262 ° 0 min 0,000 mm 0,6 UV-I 76 W/m² 8,1 °C 9,0 °C 8,0 km/h (2 Bft)
22.05.2019 09:35 9,0 °C 94 % 1016,6 hPa 0,0 mm 1,3 km/h (1 Bft) W 267 ° 0 min 0,000 mm 0,7 UV-I 86 W/m² 8,1 °C 9,0 °C 4,8 km/h (1 Bft)
22.05.2019 09:36 9,0 °C 94 % 1016,6 hPa 0,0 mm 3,4 km/h (1 Bft) SW 217 ° 0 min 0,000 mm 0,8 UV-I 93 W/m² 8,1 °C 9,0 °C 4,8 km/h (1 Bft)
22.05.2019 09:37 9,1 °C 94 % 1016,6 hPa 0,0 mm 3,4 km/h (1 Bft) W-SW 249 ° 0 min 0,000 mm 0,9 UV-I 104 W/m² 8,2 °C 9,1 °C 6,4 km/h (2 Bft)
22.05.2019 09:38 9,1 °C 94 % 1016,6 hPa 0,0 mm 2,7 km/h (1 Bft) W-SW 253 ° 0 min 0,000 mm 1,0 UV-I 118 W/m² 8,2 °C 9,1 °C 4,8 km/h (1 Bft)
22.05.2019 09:39 9,1 °C 94 % 1016,6 hPa 0,0 mm 4,5 km/h (1 Bft) W-SW 245 ° 0 min 0,000 mm 1,1 UV-I 127 W/m² 8,2 °C 9,1 °C 8,0 km/h (2 Bft)
22.05.2019 09:40 9,1 °C 94 % 1016,6 hPa 0,0 mm 2,8 km/h (1 Bft) W 264 ° 0 min 0,000 mm 1,1 UV-I 132 W/m² 8,2 °C 9,1 °C 4,8 km/h (1 Bft)
22.05.2019 09:41 9,1 °C 94 % 1016,5 hPa 0,0 mm 2,0 km/h (1 Bft) W 266 ° 0 min 0,000 mm 1,1 UV-I 139 W/m² 8,2 °C 9,1 °C 3,2 km/h (1 Bft)
22.05.2019 09:42 9,1 °C 94 % 1016,6 hPa 0,0 mm 2,4 km/h (1 Bft) W 260 ° 0 min 0,000 mm 1,1 UV-I 142 W/m² 8,2 °C 9,1 °C 4,8 km/h (1 Bft)
22.05.2019 09:43 9,2 °C 94 % 1016,6 hPa 0,0 mm 3,1 km/h (1 Bft) W-NW 291 ° 0 min 0,000 mm 1,1 UV-I 141 W/m² 8,3 °C 9,2 °C 9,7 km/h (2 Bft)
22.05.2019 09:44 9,2 °C 94 % 1016,5 hPa 0,0 mm 6,8 km/h (2 Bft) W 265 ° 0 min 0,000 mm 1,1 UV-I 139 W/m² 8,3 °C 8,3 °C 12,9 km/h (3 Bft)
22.05.2019 09:45 9,2 °C 94 % 1016,6 hPa 0,0 mm 4,6 km/h (1 Bft) W-NW 284 ° 0 min 0,000 mm 1,1 UV-I 134 W/m² 8,3 °C 9,0 °C 6,4 km/h (2 Bft)
22.05.2019 09:46 9,3 °C 93 % 1016,6 hPa 0,0 mm 2,5 km/h (1 Bft) W-NW 284 ° 0 min 0,000 mm 1,0 UV-I 128 W/m² 8,2 °C 9,3 °C 4,8 km/h (1 Bft)
22.05.2019 09:47 9,3 °C 94 % 1016,6 hPa 0,0 mm 4,7 km/h (1 Bft) W 267 ° 0 min 0,000 mm 1,0 UV-I 118 W/m² 8,4 °C 9,1 °C 11,3 km/h (2 Bft)
22.05.2019 09:48 9,3 °C 94 % 1016,6 hPa 0,0 mm 4,6 km/h (1 Bft) W 273 ° 0 min 0,000 mm 0,9 UV-I 114 W/m² 8,4 °C 9,1 °C 9,7 km/h (2 Bft)
22.05.2019 09:49 9,3 °C 94 % 1016,6 hPa 0,0 mm 2,1 km/h (1 Bft) W 273 ° 0 min 0,000 mm 0,9 UV-I 113 W/m² 8,4 °C 9,3 °C 4,8 km/h (1 Bft)
22.05.2019 09:50 9,3 °C 93 % 1016,6 hPa 0,0 mm 4,1 km/h (1 Bft) W 279 ° 0 min 0,000 mm 0,9 UV-I 113 W/m² 8,2 °C 9,3 °C 9,7 km/h (2 Bft)
22.05.2019 09:51 9,3 °C 93 % 1016,6 hPa 0,0 mm 5,4 km/h (1 Bft) SW 227 ° 0 min 0,000 mm 0,9 UV-I 114 W/m² 8,2 °C 8,8 °C 8,0 km/h (2 Bft)
22.05.2019 09:52 9,3 °C 93 % 1016,6 hPa 0,0 mm 7,0 km/h (2 Bft) W 263 ° 0 min 0,000 mm 0,9 UV-I 123 W/m² 8,2 °C 8,4 °C 12,9 km/h (3 Bft)
22.05.2019 09:53 9,3 °C 93 % 1016,6 hPa 0,0 mm 7,2 km/h (2 Bft) W-SW 250 ° 0 min 0,000 mm 1,0 UV-I 123 W/m² 8,2 °C 8,4 °C 9,7 km/h (2 Bft)
22.05.2019 09:54 9,4 °C 93 % 1016,6 hPa 0,0 mm 3,4 km/h (1 Bft) SW 235 ° 0 min 0,000 mm 1,1 UV-I 132 W/m² 8,3 °C 9,4 °C 4,8 km/h (1 Bft)
22.05.2019 09:55 9,4 °C 93 % 1016,5 hPa 0,0 mm 4,9 km/h (1 Bft) W 277 ° 0 min 0,000 mm 1,1 UV-I 137 W/m² 8,3 °C 9,1 °C 8,0 km/h (2 Bft)
22.05.2019 09:56 9,4 °C 94 % 1016,6 hPa 0,0 mm 3,4 km/h (1 Bft) W 275 ° 0 min 0,000 mm 1,2 UV-I 142 W/m² 8,5 °C 9,4 °C 4,8 km/h (1 Bft)
22.05.2019 09:57 9,4 °C 94 % 1016,6 hPa 0,0 mm 3,6 km/h (1 Bft) W 275 ° 0 min 0,000 mm 1,2 UV-I 146 W/m² 8,5 °C 9,4 °C 6,4 km/h (2 Bft)
22.05.2019 09:58 9,4 °C 94 % 1016,5 hPa 0,0 mm 4,0 km/h (1 Bft) W 273 ° 0 min 0,000 mm 1,2 UV-I 149 W/m² 8,5 °C 9,4 °C 4,8 km/h (1 Bft)
22.05.2019 09:59 9,4 °C 94 % 1016,6 hPa 0,0 mm 4,9 km/h (1 Bft) W 265 ° 0 min 0,000 mm 1,2 UV-I 158 W/m² 8,5 °C 9,1 °C 9,7 km/h (2 Bft)
22.05.2019 10:00 9,4 °C 94 % 1016,6 hPa 0,0 mm 6,2 km/h (2 Bft) W-SW 254 ° 0 min 0,051 mm 1,3 UV-I 162 W/m² 8,5 °C 8,7 °C 9,7 km/h (2 Bft)
22.05.2019 10:01 9,4 °C 94 % 1016,5 hPa 0,0 mm 5,5 km/h (1 Bft) W-SW 256 ° 0 min 0,000 mm 1,3 UV-I 163 W/m² 8,5 °C 8,9 °C 8,0 km/h (2 Bft)
22.05.2019 10:02 9,4 °C 93 % 1016,5 hPa 0,0 mm 4,0 km/h (1 Bft) W 259 ° 0 min 0,000 mm 1,2 UV-I 162 W/m² 8,3 °C 9,4 °C 6,4 km/h (2 Bft)
22.05.2019 10:03 9,5 °C 94 % 1016,5 hPa 0,0 mm 3,3 km/h (1 Bft) W 281 ° 0 min 0,000 mm 1,2 UV-I 160 W/m² 8,6 °C 9,5 °C 6,4 km/h (2 Bft)
22.05.2019 10:04 9,6 °C 93 % 1016,5 hPa 0,0 mm 2,3 km/h (1 Bft) W-NW 294 ° 0 min 0,000 mm 1,2 UV-I 155 W/m² 8,5 °C 9,6 °C 6,4 km/h (2 Bft)
22.05.2019 10:05 9,6 °C 93 % 1016,5 hPa 0,2 mm 5,0 km/h (1 Bft) W-NW 294 ° 0 min 0,000 mm 1,2 UV-I 155 W/m² 8,5 °C 9,3 °C 8,0 km/h (2 Bft)
22.05.2019 10:06 9,6 °C 93 % 1016,5 hPa 0,0 mm 7,9 km/h (2 Bft) W 277 ° 0 min 0,000 mm 1,2 UV-I 153 W/m² 8,5 °C 8,6 °C 11,3 km/h (2 Bft)
22.05.2019 10:07 9,6 °C 93 % 1016,5 hPa 0,0 mm 6,2 km/h (2 Bft) W-NW 290 ° 0 min 0,000 mm 1,2 UV-I 151 W/m² 8,5 °C 9,0 °C 14,5 km/h (3 Bft)
22.05.2019 10:08 9,6 °C 93 % 1016,5 hPa 0,0 mm 1,7 km/h (1 Bft) W-NW 290 ° 0 min 0,000 mm 1,1 UV-I 146 W/m² 8,5 °C 9,6 °C 3,2 km/h (1 Bft)
22.05.2019 10:09 9,6 °C 93 % 1016,5 hPa 0,0 mm 5,9 km/h (2 Bft) W-SW 243 ° 0 min 0,000 mm 1,1 UV-I 146 W/m² 8,5 °C 9,0 °C 11,3 km/h (2 Bft)
22.05.2019 10:10 9,6 °C 93 % 1016,5 hPa 0,0 mm 5,2 km/h (1 Bft) W-SW 256 ° 0 min 0,000 mm 1,1 UV-I 142 W/m² 8,5 °C 9,2 °C 9,7 km/h (2 Bft)
22.05.2019 10:11 9,6 °C 93 % 1016,5 hPa 0,0 mm 8,2 km/h (2 Bft) W 260 ° 0 min 0,000 mm 1,1 UV-I 142 W/m² 8,5 °C 8,5 °C 12,9 km/h (3 Bft)
22.05.2019 10:12 9,6 °C 93 % 1016,5 hPa 0,0 mm 7,8 km/h (2 Bft) W 263 ° 0 min 0,000 mm 1,1 UV-I 142 W/m² 8,5 °C 8,6 °C 11,3 km/h (2 Bft)
22.05.2019 10:13 9,7 °C 93 % 1016,5 hPa 0,0 mm 5,1 km/h (1 Bft) W 272 ° 0 min 0,000 mm 1,1 UV-I 144 W/m² 8,6 °C 9,4 °C 9,7 km/h (2 Bft)
22.05.2019 10:14 9,7 °C 93 % 1016,5 hPa 0,0 mm 3,9 km/h (1 Bft) W-NW 298 ° 0 min 0,000 mm 1,2 UV-I 148 W/m² 8,6 °C 9,7 °C 6,4 km/h (2 Bft)
22.05.2019 10:15 9,7 °C 93 % 1016,5 hPa 0,0 mm 4,9 km/h (1 Bft) W-SW 258 ° 0 min 0,000 mm 1,2 UV-I 151 W/m² 8,6 °C 9,4 °C 6,4 km/h (2 Bft)
22.05.2019 10:16 9,7 °C 93 % 1016,5 hPa 0,0 mm 5,8 km/h (2 Bft) W 270 ° 0 min 0,000 mm 1,3 UV-I 163 W/m² 8,6 °C 9,2 °C 9,7 km/h (2 Bft)
22.05.2019 10:17 9,7 °C 93 % 1016,5 hPa 0,0 mm 2,8 km/h (1 Bft) W 276 ° 0 min 0,000 mm 1,3 UV-I 167 W/m² 8,6 °C 9,7 °C 4,8 km/h (1 Bft)
22.05.2019 10:18 9,8 °C 93 % 1016,6 hPa 0,0 mm 5,4 km/h (1 Bft) W 273 ° 0 min 0,000 mm 1,3 UV-I 162 W/m² 8,7 °C 9,4 °C 11,3 km/h (2 Bft)
22.05.2019 10:19 9,8 °C 93 % 1016,6 hPa 0,0 mm 5,6 km/h (1 Bft) W 259 ° 0 min 0,000 mm 1,3 UV-I 158 W/m² 8,7 °C 9,4 °C 9,7 km/h (2 Bft)
22.05.2019 10:20 9,8 °C 93 % 1016,6 hPa 0,0 mm 2,9 km/h (1 Bft) W-NW 287 ° 0 min 0,000 mm 1,3 UV-I 158 W/m² 8,7 °C 9,8 °C 4,8 km/h (1 Bft)
22.05.2019 10:21 9,8 °C 93 % 1016,5 hPa 0,0 mm 2,7 km/h (1 Bft) NW 311 ° 0 min 0,000 mm 1,2 UV-I 151 W/m² 8,7 °C 9,8 °C 6,4 km/h (2 Bft)
22.05.2019 10:22 9,8 °C 93 % 1016,5 hPa 0,0 mm 4,7 km/h (1 Bft) W-NW 289 ° 0 min 0,000 mm 1,1 UV-I 149 W/m² 8,7 °C 9,6 °C 6,4 km/h (2 Bft)
22.05.2019 10:23 9,8 °C 93 % 1016,5 hPa 0,0 mm 5,8 km/h (2 Bft) W 275 ° 0 min 0,000 mm 1,2 UV-I 160 W/m² 8,7 °C 9,3 °C 8,0 km/h (2 Bft)
22.05.2019 10:24 9,8 °C 93 % 1016,5 hPa 0,0 mm 2,4 km/h (1 Bft) W 263 ° 0 min 0,000 mm 1,3 UV-I 172 W/m² 8,7 °C 9,8 °C 6,4 km/h (2 Bft)
22.05.2019 10:25 9,8 °C 93 % 1016,6 hPa 0,0 mm 2,1 km/h (1 Bft) W 275 ° 0 min 0,000 mm 1,3 UV-I 181 W/m² 8,7 °C 9,8 °C 4,8 km/h (1 Bft)
22.05.2019 10:26 9,9 °C 93 % 1016,5 hPa 0,0 mm 1,1 km/h (1 Bft) W 275 ° 0 min 0,000 mm 1,4 UV-I 192 W/m² 8,8 °C 9,9 °C 3,2 km/h (1 Bft)
22.05.2019 10:27 9,9 °C 93 % 1016,5 hPa 0,0 mm 3,0 km/h (1 Bft) W 275 ° 0 min 0,000 mm 1,5 UV-I 199 W/m² 8,8 °C 9,9 °C 3,2 km/h (1 Bft)
22.05.2019 10:28 9,9 °C 93 % 1016,5 hPa 0,0 mm 8,1 km/h (2 Bft) SW 225 ° 0 min 0,000 mm 1,5 UV-I 200 W/m² 8,8 °C 8,9 °C 17,7 km/h (3 Bft)
22.05.2019 10:29 9,9 °C 92 % 1016,5 hPa 0,0 mm 6,2 km/h (2 Bft) W-NW 290 ° 0 min 0,000 mm 1,6 UV-I 202 W/m² 8,7 °C 9,3 °C 9,7 km/h (2 Bft)
22.05.2019 10:30 9,9 °C 93 % 1016,6 hPa 0,0 mm 5,8 km/h (2 Bft) W-NW 285 ° 0 min 0,000 mm 1,6 UV-I 204 W/m² 8,8 °C 9,4 °C 8,0 km/h (2 Bft)
22.05.2019 10:31 10,0 °C 93 % 1016,5 hPa 0,0 mm 11,7 km/h (2 Bft) NW 310 ° 0 min 0,000 mm 1,6 UV-I 209 W/m² 8,9 °C 8,4 °C 14,5 km/h (3 Bft)
22.05.2019 10:32 10,0 °C 93 % 1016,5 hPa 0,0 mm 6,7 km/h (2 Bft) W 263 ° 0 min 0,000 mm 1,7 UV-I 207 W/m² 8,9 °C 9,3 °C 11,3 km/h (2 Bft)
22.05.2019 10:33 10,1 °C 93 % 1016,5 hPa 0,0 mm 6,6 km/h (2 Bft) W-NW 296 ° 0 min 0,000 mm 1,7 UV-I 207 W/m² 9,0 °C 10,1 °C 9,7 km/h (2 Bft)
22.05.2019 10:34 10,1 °C 93 % 1016,5 hPa 0,0 mm 7,3 km/h (2 Bft) W 261 ° 0 min 0,000 mm 1,7 UV-I 211 W/m² 9,0 °C 10,1 °C 11,3 km/h (2 Bft)
22.05.2019 10:35 10,1 °C 93 % 1016,5 hPa 0,0 mm 6,5 km/h (2 Bft) W-SW 252 ° 0 min 0,000 mm 1,8 UV-I 211 W/m² 9,0 °C 10,1 °C 11,3 km/h (2 Bft)
22.05.2019 10:36 10,1 °C 92 % 1016,5 hPa 0,0 mm 4,0 km/h (1 Bft) W 277 ° 0 min 0,000 mm 1,8 UV-I 211 W/m² 8,9 °C 10,1 °C 6,4 km/h (2 Bft)
22.05.2019 10:37 10,1 °C 92 % 1016,5 hPa 0,0 mm 6,2 km/h (2 Bft) W 281 ° 0 min 0,000 mm 1,8 UV-I 216 W/m² 8,9 °C 10,1 °C 11,3 km/h (2 Bft)
22.05.2019 10:38 10,1 °C 93 % 1016,5 hPa 0,0 mm 9,3 km/h (2 Bft) SW 230 ° 0 min 0,000 mm 1,8 UV-I 221 W/m² 9,0 °C 10,1 °C 14,5 km/h (3 Bft)
22.05.2019 10:39 10,1 °C 92 % 1016,5 hPa 0,0 mm 4,0 km/h (1 Bft) W 269 ° 0 min 0,000 mm 1,8 UV-I 223 W/m² 8,9 °C 10,1 °C 6,4 km/h (2 Bft)
22.05.2019 10:40 10,1 °C 92 % 1016,6 hPa 0,0 mm 3,2 km/h (1 Bft) W-SW 254 ° 0 min 0,000 mm 1,8 UV-I 218 W/m² 8,9 °C 10,1 °C 6,4 km/h (2 Bft)
22.05.2019 10:41 10,1 °C 92 % 1016,6 hPa 0,0 mm 2,9 km/h (1 Bft) S-SW 212 ° 0 min 0,000 mm 1,7 UV-I 213 W/m² 8,9 °C 10,1 °C 4,8 km/h (1 Bft)
22.05.2019 10:42 10,2 °C 92 % 1016,6 hPa 0,0 mm 3,9 km/h (1 Bft) NW 306 ° 0 min 0,000 mm 1,6 UV-I 207 W/m² 9,0 °C 10,2 °C 6,4 km/h (2 Bft)
22.05.2019 10:43 10,2 °C 92 % 1016,6 hPa 0,0 mm 1,3 km/h (1 Bft) NW 306 ° 0 min 0,000 mm 1,6 UV-I 202 W/m² 9,0 °C 10,2 °C 3,2 km/h (1 Bft)
22.05.2019 10:44 10,2 °C 92 % 1016,6 hPa 0,0 mm 1,5 km/h (1 Bft) NW 309 ° 0 min 0,000 mm 1,6 UV-I 197 W/m² 9,0 °C 10,2 °C 4,8 km/h (1 Bft)
22.05.2019 10:45 10,2 °C 92 % 1016,7 hPa 0,0 mm 4,3 km/h (1 Bft) W-NW 303 ° 0 min 0,000 mm 1,6 UV-I 192 W/m² 9,0 °C 10,2 °C 9,7 km/h (2 Bft)
22.05.2019 10:46 10,2 °C 92 % 1016,7 hPa 0,0 mm 5,9 km/h (2 Bft) W 269 ° 0 min 0,000 mm 1,6 UV-I 192 W/m² 9,0 °C 10,2 °C 9,7 km/h (2 Bft)
22.05.2019 10:47 10,2 °C 92 % 1016,7 hPa 0,0 mm 4,7 km/h (1 Bft) W 265 ° 0 min 0,000 mm 1,6 UV-I 192 W/m² 9,0 °C 10,2 °C 9,7 km/h (2 Bft)
22.05.2019 10:48 10,2 °C 92 % 1016,8 hPa 0,0 mm 3,0 km/h (1 Bft) W-NW 289 ° 0 min 0,000 mm 1,7 UV-I 192 W/m² 9,0 °C 10,2 °C 4,8 km/h (1 Bft)
22.05.2019 10:49 10,2 °C 92 % 1016,7 hPa 0,0 mm 2,0 km/h (1 Bft) W 281 ° 0 min 0,000 mm 1,7 UV-I 192 W/m² 9,0 °C 10,2 °C 4,8 km/h (1 Bft)
22.05.2019 10:50 10,2 °C 92 % 1016,7 hPa 0,0 mm 4,6 km/h (1 Bft) W-SW 257 ° 0 min 0,000 mm 1,7 UV-I 192 W/m² 9,0 °C 10,2 °C 11,3 km/h (2 Bft)
22.05.2019 10:51 10,3 °C 92 % 1016,7 hPa 0,0 mm 3,5 km/h (1 Bft) W-SW 256 ° 0 min 0,000 mm 1,8 UV-I 199 W/m² 9,1 °C 10,3 °C 8,0 km/h (2 Bft)
22.05.2019 10:52 10,2 °C 92 % 1016,7 hPa 0,0 mm 2,4 km/h (1 Bft) W 264 ° 0 min 0,000 mm 1,8 UV-I 200 W/m² 9,0 °C 10,2 °C 6,4 km/h (2 Bft)
22.05.2019 10:53 10,2 °C 92 % 1016,7 hPa 0,0 mm 6,4 km/h (2 Bft) W-NW 282 ° 0 min 0,000 mm 1,9 UV-I 200 W/m² 9,0 °C 10,2 °C 9,7 km/h (2 Bft)
22.05.2019 10:54 10,3 °C 92 % 1016,7 hPa 0,0 mm 10,3 km/h (2 Bft) W 261 ° 0 min 0,000 mm 2,0 UV-I 209 W/m² 9,1 °C 10,3 °C 14,5 km/h (3 Bft)
22.05.2019 10:55 10,2 °C 92 % 1016,8 hPa 0,0 mm 10,1 km/h (2 Bft) W-SW 256 ° 0 min 0,000 mm 2,1 UV-I 229 W/m² 9,0 °C 10,2 °C 14,5 km/h (3 Bft)
22.05.2019 10:56 10,3 °C 92 % 1016,7 hPa 0,0 mm 8,8 km/h (2 Bft) W 267 ° 0 min 0,000 mm 2,2 UV-I 250 W/m² 9,1 °C 10,3 °C 11,3 km/h (2 Bft)
22.05.2019 10:57 10,3 °C 92 % 1016,7 hPa 0,0 mm 14,1 km/h (3 Bft) W-NW 288 ° 0 min 0,000 mm 2,3 UV-I 283 W/m² 9,1 °C 10,3 °C 17,7 km/h (3 Bft)
22.05.2019 10:58 10,3 °C 92 % 1016,7 hPa 0,0 mm 7,9 km/h (2 Bft) W 273 ° 0 min 0,000 mm 2,3 UV-I 292 W/m² 9,1 °C 10,3 °C 12,9 km/h (3 Bft)
22.05.2019 10:59 10,4 °C 92 % 1016,7 hPa 0,0 mm 7,8 km/h (2 Bft) W-SW 257 ° 0 min 0,000 mm 2,4 UV-I 301 W/m² 9,2 °C 10,4 °C 12,9 km/h (3 Bft)
22.05.2019 11:00 10,4 °C 92 % 1016,7 hPa 0,0 mm 9,1 km/h (2 Bft) W 262 ° 0 min 0,101 mm 2,4 UV-I 304 W/m² 9,2 °C 10,4 °C 14,5 km/h (3 Bft)
22.05.2019 11:01 10,4 °C 92 % 1016,7 hPa 0,0 mm 9,3 km/h (2 Bft) NW 314 ° 0 min 0,000 mm 2,3 UV-I 295 W/m² 9,2 °C 10,4 °C 12,9 km/h (3 Bft)
22.05.2019 11:02 10,6 °C 92 % 1016,7 hPa 0,0 mm 7,9 km/h (2 Bft) W-NW 298 ° 0 min 0,000 mm 2,2 UV-I 295 W/m² 9,4 °C 10,6 °C 14,5 km/h (3 Bft)
22.05.2019 11:03 10,6 °C 92 % 1016,7 hPa 0,0 mm 7,7 km/h (2 Bft) W 271 ° 0 min 0,000 mm 2,1 UV-I 248 W/m² 9,4 °C 10,6 °C 9,7 km/h (2 Bft)
22.05.2019 11:04 10,7 °C 92 % 1016,7 hPa 0,0 mm 5,5 km/h (1 Bft) W 275 ° 0 min 0,000 mm 1,9 UV-I 236 W/m² 9,5 °C 10,7 °C 9,7 km/h (2 Bft)
22.05.2019 11:05 10,7 °C 92 % 1016,7 hPa 0,0 mm 3,1 km/h (1 Bft) W-SW 247 ° 0 min 0,000 mm 1,9 UV-I 229 W/m² 9,5 °C 10,7 °C 6,4 km/h (2 Bft)
22.05.2019 11:06 10,7 °C 92 % 1016,7 hPa 0,0 mm 8,6 km/h (2 Bft) W 278 ° 0 min 0,000 mm 1,9 UV-I 227 W/m² 9,5 °C 10,7 °C 14,5 km/h (3 Bft)
22.05.2019 11:07 10,7 °C 91 % 1016,7 hPa 0,0 mm 9,4 km/h (2 Bft) W-NW 285 ° 0 min 0,000 mm 1,9 UV-I 227 W/m² 9,3 °C 10,7 °C 12,9 km/h (3 Bft)
22.05.2019 11:08 10,7 °C 91 % 1016,7 hPa 0,0 mm 5,1 km/h (1 Bft) SW 234 ° 0 min 0,000 mm 1,9 UV-I 225 W/m² 9,3 °C 10,7 °C 8,0 km/h (2 Bft)
22.05.2019 11:09 10,7 °C 91 % 1016,7 hPa 0,0 mm 8,9 km/h (2 Bft) W-SW 243 ° 0 min 0,000 mm 1,9 UV-I 218 W/m² 9,3 °C 10,7 °C 14,5 km/h (3 Bft)
22.05.2019 11:10 10,7 °C 91 % 1016,7 hPa 0,0 mm 6,7 km/h (2 Bft) W-SW 254 ° 0 min 0,000 mm 1,8 UV-I 216 W/m² 9,3 °C 10,7 °C 11,3 km/h (2 Bft)
22.05.2019 11:11 10,7 °C 91 % 1016,7 hPa 0,0 mm 4,3 km/h (1 Bft) W-SW 258 ° 0 min 0,000 mm 1,8 UV-I 211 W/m² 9,3 °C 10,7 °C 6,4 km/h (2 Bft)
22.05.2019 11:12 10,7 °C 91 % 1016,7 hPa 0,0 mm 3,5 km/h (1 Bft) W-NW 286 ° 0 min 0,000 mm 1,7 UV-I 202 W/m² 9,3 °C 10,7 °C 6,4 km/h (2 Bft)
22.05.2019 11:13 10,7 °C 91 % 1016,8 hPa 0,0 mm 4,8 km/h (1 Bft) W-SW 250 ° 0 min 0,000 mm 1,6 UV-I 193 W/m² 9,3 °C 10,7 °C 9,7 km/h (2 Bft)
22.05.2019 11:14 10,7 °C 91 % 1016,7 hPa 0,0 mm 4,0 km/h (1 Bft) W-SW 252 ° 0 min 0,000 mm 1,5 UV-I 186 W/m² 9,3 °C 10,7 °C 6,4 km/h (2 Bft)
22.05.2019 11:15 10,7 °C 91 % 1016,8 hPa 0,0 mm 5,3 km/h (1 Bft) SW 224 ° 0 min 0,000 mm 1,4 UV-I 174 W/m² 9,3 °C 10,7 °C 9,7 km/h (2 Bft)
22.05.2019 11:16 10,7 °C 91 % 1016,7 hPa 0,0 mm 4,7 km/h (1 Bft) W-SW 248 ° 0 min 0,000 mm 1,3 UV-I 167 W/m² 9,3 °C 10,7 °C 6,4 km/h (2 Bft)
22.05.2019 11:17 10,6 °C 91 % 1016,8 hPa 0,0 mm 3,7 km/h (1 Bft) S-SW 193 ° 0 min 0,000 mm 1,3 UV-I 158 W/m² 9,2 °C 10,6 °C 8,0 km/h (2 Bft)
22.05.2019 11:18 10,6 °C 91 % 1016,8 hPa 0,0 mm 1,9 km/h (1 Bft) S-SW 192 ° 0 min 0,000 mm 1,2 UV-I 153 W/m² 9,2 °C 10,6 °C 4,8 km/h (1 Bft)
22.05.2019 11:19 10,6 °C 90 % 1016,8 hPa 0,0 mm 2,6 km/h (1 Bft) W 259 ° 0 min 0,000 mm 1,2 UV-I 148 W/m² 9,0 °C 10,6 °C 4,8 km/h (1 Bft)
22.05.2019 11:20 10,6 °C 90 % 1016,8 hPa 0,0 mm 3,2 km/h (1 Bft) W 265 ° 0 min 0,000 mm 1,2 UV-I 144 W/m² 9,0 °C 10,6 °C 4,8 km/h (1 Bft)
22.05.2019 11:21 10,6 °C 91 % 1016,8 hPa 0,0 mm 0,1 km/h (0 Bft) W-SW 247 ° 0 min 0,000 mm 1,1 UV-I 135 W/m² 9,2 °C 10,6 °C 1,6 km/h (1 Bft)
22.05.2019 11:22 10,6 °C 91 % 1016,8 hPa 0,0 mm 4,3 km/h (1 Bft) W-NW 287 ° 0 min 0,000 mm 1,1 UV-I 134 W/m² 9,2 °C 10,6 °C 6,4 km/h (2 Bft)
22.05.2019 11:23 10,6 °C 90 % 1016,8 hPa 0,0 mm 6,3 km/h (2 Bft) W 279 ° 0 min 0,000 mm 1,1 UV-I 134 W/m² 9,0 °C 10,6 °C 11,3 km/h (2 Bft)
22.05.2019 11:24 10,6 °C 90 % 1016,8 hPa 0,0 mm 0,9 km/h (0 Bft) S 170 ° 0 min 0,000 mm 1,1 UV-I 135 W/m² 9,0 °C 10,6 °C 3,2 km/h (1 Bft)
22.05.2019 11:25 10,5 °C 90 % 1016,8 hPa 0,0 mm 0,7 km/h (0 Bft) S-SO 165 ° 0 min 0,000 mm 1,2 UV-I 141 W/m² 8,9 °C 10,5 °C 1,6 km/h (1 Bft)
22.05.2019 11:26 10,5 °C 90 % 1016,8 hPa 0,0 mm 8,6 km/h (2 Bft) W 266 ° 0 min 0,000 mm 1,2 UV-I 149 W/m² 8,9 °C 10,5 °C 12,9 km/h (3 Bft)
22.05.2019 11:27 10,5 °C 90 % 1016,8 hPa 0,0 mm 4,9 km/h (1 Bft) SW 220 ° 0 min 0,000 mm 1,2 UV-I 155 W/m² 8,9 °C 10,5 °C 8,0 km/h (2 Bft)
22.05.2019 11:28 10,5 °C 90 % 1016,8 hPa 0,0 mm 6,3 km/h (2 Bft) SW 233 ° 0 min 0,000 mm 1,3 UV-I 160 W/m² 8,9 °C 10,5 °C 12,9 km/h (3 Bft)
22.05.2019 11:29 10,4 °C 90 % 1016,8 hPa 0,0 mm 6,1 km/h (2 Bft) W-SW 257 ° 0 min 0,000 mm 1,3 UV-I 162 W/m² 8,8 °C 10,4 °C 12,9 km/h (3 Bft)
22.05.2019 11:30 10,6 °C 91 % 1016,8 hPa 0,0 mm 9,5 km/h (2 Bft) W-SW 251 ° 0 min 0,000 mm 1,3 UV-I 165 W/m² 9,2 °C 10,6 °C 14,5 km/h (3 Bft)
22.05.2019 11:31 10,6 °C 90 % 1016,9 hPa 0,0 mm 7,8 km/h (2 Bft) W 263 ° 0 min 0,000 mm 1,3 UV-I 169 W/m² 9,0 °C 10,6 °C 11,3 km/h (2 Bft)
22.05.2019 11:32 10,6 °C 91 % 1016,9 hPa 0,0 mm 6,8 km/h (2 Bft) W-SW 245 ° 0 min 0,000 mm 1,4 UV-I 174 W/m² 9,2 °C 10,6 °C 11,3 km/h (2 Bft)
22.05.2019 11:33 10,6 °C 90 % 1016,9 hPa 0,0 mm 8,7 km/h (2 Bft) W 277 ° 0 min 0,000 mm 1,4 UV-I 178 W/m² 9,0 °C 10,6 °C 12,9 km/h (3 Bft)
22.05.2019 11:34 10,6 °C 90 % 1016,9 hPa 0,0 mm 5,9 km/h (2 Bft) W 280 ° 0 min 0,000 mm 1,5 UV-I 179 W/m² 9,0 °C 10,6 °C 9,7 km/h (2 Bft)
22.05.2019 11:35 10,6 °C 90 % 1016,9 hPa 0,0 mm 5,2 km/h (1 Bft) W-NW 286 ° 0 min 0,000 mm 1,5 UV-I 181 W/m² 9,0 °C 10,6 °C 8,0 km/h (2 Bft)
22.05.2019 11:36 10,6 °C 90 % 1016,9 hPa 0,0 mm 3,2 km/h (1 Bft) S-SW 209 ° 0 min 0,000 mm 1,5 UV-I 179 W/m² 9,0 °C 10,6 °C 4,8 km/h (1 Bft)
22.05.2019 11:37 10,6 °C 90 % 1016,9 hPa 0,0 mm 3,2 km/h (1 Bft) W-SW 249 ° 0 min 0,000 mm 1,4 UV-I 178 W/m² 9,0 °C 10,6 °C 9,7 km/h (2 Bft)
22.05.2019 11:38 10,6 °C 90 % 1016,9 hPa 0,0 mm 5,1 km/h (1 Bft) W-SW 246 ° 0 min 0,000 mm 1,4 UV-I 174 W/m² 9,0 °C 10,6 °C 8,0 km/h (2 Bft)
22.05.2019 11:39 10,6 °C 90 % 1016,9 hPa 0,0 mm 8,0 km/h (2 Bft) W-SW 237 ° 0 min 0,000 mm 1,4 UV-I 174 W/m² 9,0 °C 10,6 °C 12,9 km/h (3 Bft)
22.05.2019 11:40 10,6 °C 90 % 1016,9 hPa 0,0 mm 5,2 km/h (1 Bft) SW 236 ° 0 min 0,000 mm 1,4 UV-I 176 W/m² 9,0 °C 10,6 °C 6,4 km/h (2 Bft)
22.05.2019 11:41 10,6 °C 90 % 1016,9 hPa 0,0 mm 4,2 km/h (1 Bft) W-SW 242 ° 0 min 0,000 mm 1,5 UV-I 179 W/m² 9,0 °C 10,6 °C 6,4 km/h (2 Bft)
22.05.2019 11:42 10,6 °C 90 % 1016,9 hPa 0,0 mm 2,7 km/h (1 Bft) W-SW 249 ° 0 min 0,000 mm 1,5 UV-I 185 W/m² 9,0 °C 10,6 °C 6,4 km/h (2 Bft)
22.05.2019 11:43 10,6 °C 90 % 1016,9 hPa 0,0 mm 9,3 km/h (2 Bft) W-SW 247 ° 0 min 0,000 mm 1,5 UV-I 188 W/m² 9,0 °C 10,6 °C 14,5 km/h (3 Bft)
22.05.2019 11:44 10,7 °C 90 % 1017,0 hPa 0,0 mm 10,2 km/h (2 Bft) W 266 ° 0 min 0,000 mm 1,6 UV-I 195 W/m² 9,1 °C 10,7 °C 12,9 km/h (3 Bft)
22.05.2019 11:45 10,7 °C 90 % 1016,9 hPa 0,0 mm 6,4 km/h (2 Bft) W-SW 252 ° 0 min 0,000 mm 1,7 UV-I 199 W/m² 9,1 °C 10,7 °C 9,7 km/h (2 Bft)
22.05.2019 11:46 10,7 °C 90 % 1017,0 hPa 0,0 mm 1,5 km/h (1 Bft) W-SW 252 ° 0 min 0,000 mm 1,7 UV-I 204 W/m² 9,1 °C 10,7 °C 3,2 km/h (1 Bft)
22.05.2019 11:47 10,7 °C 90 % 1017,0 hPa 0,0 mm 6,3 km/h (2 Bft) W-SW 244 ° 0 min 0,000 mm 1,8 UV-I 214 W/m² 9,1 °C 10,7 °C 9,7 km/h (2 Bft)
22.05.2019 11:48 10,8 °C 91 % 1016,9 hPa 0,0 mm 3,6 km/h (1 Bft) W-SW 248 ° 0 min 0,000 mm 2,0 UV-I 230 W/m² 9,4 °C 10,8 °C 4,8 km/h (1 Bft)
22.05.2019 11:49 10,8 °C 90 % 1017,0 hPa 0,0 mm 5,4 km/h (1 Bft) W-SW 252 ° 0 min 0,000 mm 2,1 UV-I 248 W/m² 9,2 °C 10,8 °C 11,3 km/h (2 Bft)
22.05.2019 11:50 10,8 °C 90 % 1017,0 hPa 0,0 mm 8,1 km/h (2 Bft) W 279 ° 0 min 0,000 mm 2,3 UV-I 285 W/m² 9,2 °C 10,8 °C 11,3 km/h (2 Bft)
22.05.2019 11:51 10,9 °C 90 % 1017,0 hPa 0,0 mm 8,1 km/h (2 Bft) W 277 ° 0 min 0,000 mm 2,5 UV-I 297 W/m² 9,3 °C 10,9 °C 12,9 km/h (3 Bft)
22.05.2019 11:52 10,9 °C 90 % 1017,0 hPa 0,0 mm 7,2 km/h (2 Bft) W 262 ° 0 min 0,000 mm 2,5 UV-I 304 W/m² 9,3 °C 10,9 °C 12,9 km/h (3 Bft)
22.05.2019 11:53 10,9 °C 90 % 1017,0 hPa 0,0 mm 6,5 km/h (2 Bft) W-NW 291 ° 0 min 0,000 mm 2,5 UV-I 302 W/m² 9,3 °C 10,9 °C 12,9 km/h (3 Bft)
22.05.2019 11:54 10,9 °C 90 % 1017,0 hPa 0,0 mm 5,4 km/h (1 Bft) W-SW 251 ° 0 min 0,000 mm 2,4 UV-I 294 W/m² 9,3 °C 10,9 °C 8,0 km/h (2 Bft)
22.05.2019 11:55 11,1 °C 90 % 1017,0 hPa 0,0 mm 4,4 km/h (1 Bft) W 277 ° 0 min 0,000 mm 2,2 UV-I 281 W/m² 9,5 °C 11,1 °C 6,4 km/h (2 Bft)
22.05.2019 11:56 11,1 °C 90 % 1017,0 hPa 0,0 mm 3,5 km/h (1 Bft) W 279 ° 0 min 0,000 mm 2,1 UV-I 250 W/m² 9,5 °C 11,1 °C 9,7 km/h (2 Bft)
22.05.2019 11:57 11,2 °C 90 % 1017,0 hPa 0,0 mm 2,7 km/h (1 Bft) W-NW 303 ° 0 min 0,000 mm 1,9 UV-I 237 W/m² 9,6 °C 11,2 °C 4,8 km/h (1 Bft)
22.05.2019 11:58 11,2 °C 90 % 1017,0 hPa 0,0 mm 6,7 km/h (2 Bft) W-NW 301 ° 0 min 0,000 mm 1,8 UV-I 230 W/m² 9,6 °C 11,2 °C 11,3 km/h (2 Bft)
22.05.2019 11:59 11,2 °C 89 % 1017,0 hPa 0,0 mm 6,5 km/h (2 Bft) W 275 ° 0 min 0,000 mm 1,8 UV-I 227 W/m² 9,5 °C 11,2 °C 9,7 km/h (2 Bft)
22.05.2019 12:00 11,2 °C 89 % 1017,0 hPa 0,0 mm 5,9 km/h (2 Bft) W 274 ° 0 min 0,000 mm 1,8 UV-I 227 W/m² 9,5 °C 11,2 °C 11,3 km/h (2 Bft)
22.05.2019 12:01 11,1 °C 89 % 1017,0 hPa 0,0 mm 5,2 km/h (1 Bft) W 271 ° 0 min 0,102 mm 1,9 UV-I 237 W/m² 9,4 °C 11,1 °C 6,4 km/h (2 Bft)
22.05.2019 12:02 11,2 °C 90 % 1017,0 hPa 0,0 mm 2,8 km/h (1 Bft) W 269 ° 0 min 0,000 mm 1,9 UV-I 237 W/m² 9,6 °C 11,2 °C 4,8 km/h (1 Bft)
22.05.2019 12:03 11,2 °C 90 % 1017,0 hPa 0,0 mm 8,3 km/h (2 Bft) W 275 ° 0 min 0,000 mm 2,0 UV-I 248 W/m² 9,6 °C 11,2 °C 11,3 km/h (2 Bft)
22.05.2019 12:04 11,2 °C 89 % 1017,0 hPa 0,0 mm 7,2 km/h (2 Bft) W 266 ° 0 min 0,000 mm 2,0 UV-I 251 W/m² 9,5 °C 11,2 °C 11,3 km/h (2 Bft)
22.05.2019 12:05 11,3 °C 89 % 1017,0 hPa 0,0 mm 8,3 km/h (2 Bft) W-NW 286 ° 0 min 0,000 mm 2,1 UV-I 258 W/m² 9,6 °C 11,3 °C 11,3 km/h (2 Bft)
22.05.2019 12:06 11,2 °C 89 % 1017,0 hPa 0,0 mm 7,5 km/h (2 Bft) W 265 ° 0 min 0,000 mm 2,2 UV-I 267 W/m² 9,5 °C 11,2 °C 12,9 km/h (3 Bft)
22.05.2019 12:07 11,2 °C 88 % 1017,0 hPa 0,0 mm 10,8 km/h (2 Bft) SW 236 ° 0 min 0,000 mm 2,2 UV-I 278 W/m² 9,3 °C 11,2 °C 17,7 km/h (3 Bft)
22.05.2019 12:08 11,2 °C 88 % 1017,0 hPa 0,0 mm 7,8 km/h (2 Bft) W 279 ° 0 min 0,000 mm 2,3 UV-I 290 W/m² 9,3 °C 11,2 °C 12,9 km/h (3 Bft)
22.05.2019 12:09 11,2 °C 88 % 1017,0 hPa 0,0 mm 10,0 km/h (2 Bft) W 265 ° 0 min 0,000 mm 2,3 UV-I 290 W/m² 9,3 °C 11,2 °C 14,5 km/h (3 Bft)
22.05.2019 12:10 11,2 °C 89 % 1017,1 hPa 0,0 mm 7,9 km/h (2 Bft) NW 317 ° 0 min 0,000 mm 2,3 UV-I 288 W/m² 9,5 °C 11,2 °C 12,9 km/h (3 Bft)
22.05.2019 12:11 11,3 °C 89 % 1017,0 hPa 0,0 mm 6,7 km/h (2 Bft) NW 321 ° 0 min 0,000 mm 2,3 UV-I 285 W/m² 9,6 °C 11,3 °C 12,9 km/h (3 Bft)
22.05.2019 12:12 11,3 °C 89 % 1017,0 hPa 0,0 mm 7,3 km/h (2 Bft) W 277 ° 0 min 0,000 mm 2,3 UV-I 283 W/m² 9,6 °C 11,3 °C 11,3 km/h (2 Bft)
22.05.2019 12:13 11,3 °C 89 % 1017,1 hPa 0,0 mm 8,0 km/h (2 Bft) W-NW 292 ° 0 min 0,000 mm 2,3 UV-I 278 W/m² 9,6 °C 11,3 °C 19,3 km/h (3 Bft)
22.05.2019 12:14 11,3 °C 89 % 1017,0 hPa 0,0 mm 13,2 km/h (3 Bft) W 271 ° 0 min 0,000 mm 2,3 UV-I 278 W/m² 9,6 °C 11,3 °C 17,7 km/h (3 Bft)
22.05.2019 12:15 11,3 °C 88 % 1017,1 hPa 0,0 mm 9,1 km/h (2 Bft) W 272 ° 0 min 0,000 mm 2,3 UV-I 283 W/m² 9,4 °C 11,3 °C 12,9 km/h (3 Bft)
22.05.2019 12:16 11,3 °C 88 % 1017,1 hPa 0,0 mm 8,7 km/h (2 Bft) W 259 ° 0 min 0,000 mm 2,4 UV-I 290 W/m² 9,4 °C 11,3 °C 12,9 km/h (3 Bft)
22.05.2019 12:17 11,3 °C 88 % 1017,1 hPa 0,0 mm 8,2 km/h (2 Bft) W 277 ° 0 min 0,000 mm 2,5 UV-I 302 W/m² 9,4 °C 11,3 °C 12,9 km/h (3 Bft)
22.05.2019 12:18 11,3 °C 88 % 1017,1 hPa 0,0 mm 8,2 km/h (2 Bft) W 273 ° 0 min 0,000 mm 2,6 UV-I 316 W/m² 9,4 °C 11,3 °C 12,9 km/h (3 Bft)
22.05.2019 12:19 11,3 °C 87 % 1017,1 hPa 0,0 mm 6,2 km/h (2 Bft) W-NW 299 ° 0 min 0,000 mm 2,7 UV-I 343 W/m² 9,2 °C 11,3 °C 9,7 km/h (2 Bft)
22.05.2019 12:20 11,3 °C 88 % 1017,1 hPa 0,0 mm 10,5 km/h (2 Bft) W 275 ° 0 min 0,000 mm 2,8 UV-I 343 W/m² 9,4 °C 11,3 °C 19,3 km/h (3 Bft)
22.05.2019 12:21 11,3 °C 88 % 1017,1 hPa 0,0 mm 10,7 km/h (2 Bft) W 261 ° 0 min 0,000 mm 2,7 UV-I 330 W/m² 9,4 °C 11,3 °C 14,5 km/h (3 Bft)
22.05.2019 12:22 11,3 °C 87 % 1017,1 hPa 0,0 mm 8,0 km/h (2 Bft) W-SW 255 ° 0 min 0,000 mm 2,7 UV-I 327 W/m² 9,2 °C 11,3 °C 11,3 km/h (2 Bft)
22.05.2019 12:23 11,4 °C 88 % 1017,1 hPa 0,0 mm 7,6 km/h (2 Bft) W-NW 300 ° 0 min 0,000 mm 2,7 UV-I 325 W/m² 9,5 °C 11,4 °C 11,3 km/h (2 Bft)
22.05.2019 12:24 11,6 °C 89 % 1017,1 hPa 0,0 mm 4,8 km/h (1 Bft) W-NW 288 ° 0 min 0,000 mm 2,6 UV-I 323 W/m² 9,8 °C 11,6 °C 6,4 km/h (2 Bft)
22.05.2019 12:25 11,6 °C 88 % 1017,1 hPa 0,0 mm 7,0 km/h (2 Bft) W 275 ° 0 min 0,000 mm 2,6 UV-I 302 W/m² 9,7 °C 11,6 °C 12,9 km/h (3 Bft)
22.05.2019 12:26 11,6 °C 88 % 1017,1 hPa 0,0 mm 6,6 km/h (2 Bft) W-NW 293 ° 0 min 0,000 mm 2,4 UV-I 290 W/m² 9,7 °C 11,6 °C 9,7 km/h (2 Bft)
22.05.2019 12:27 11,6 °C 87 % 1017,1 hPa 0,0 mm 7,0 km/h (2 Bft) W 269 ° 0 min 0,000 mm 2,3 UV-I 279 W/m² 9,5 °C 11,6 °C 14,5 km/h (3 Bft)
22.05.2019 12:28 11,6 °C 88 % 1017,1 hPa 0,0 mm 12,5 km/h (3 Bft) NW 309 ° 0 min 0,000 mm 2,3 UV-I 274 W/m² 9,7 °C 11,6 °C 16,1 km/h (3 Bft)
22.05.2019 12:29 11,6 °C 87 % 1017,1 hPa 0,0 mm 10,3 km/h (2 Bft) W-SW 248 ° 0 min 0,000 mm 2,4 UV-I 278 W/m² 9,5 °C 11,6 °C 14,5 km/h (3 Bft)
22.05.2019 12:30 11,5 °C 86 % 1017,1 hPa 0,0 mm 11,8 km/h (2 Bft) W 276 ° 0 min 0,000 mm 2,5 UV-I 287 W/m² 9,2 °C 11,5 °C 14,5 km/h (3 Bft)
22.05.2019 12:31 11,4 °C 86 % 1017,1 hPa 0,0 mm 5,5 km/h (1 Bft) SW 228 ° 0 min 0,000 mm 2,6 UV-I 309 W/m² 9,1 °C 11,4 °C 12,9 km/h (3 Bft)
22.05.2019 12:32 11,4 °C 86 % 1017,1 hPa 0,0 mm 11,9 km/h (2 Bft) W 271 ° 0 min 0,000 mm 2,8 UV-I 320 W/m² 9,1 °C 11,4 °C 19,3 km/h (3 Bft)
22.05.2019 12:33 11,4 °C 87 % 1017,1 hPa 0,0 mm 7,3 km/h (2 Bft) NW 310 ° 0 min 0,000 mm 2,9 UV-I 332 W/m² 9,3 °C 11,4 °C 11,3 km/h (2 Bft)
22.05.2019 12:34 11,6 °C 88 % 1017,1 hPa 0,0 mm 3,2 km/h (1 Bft) W-NW 302 ° 0 min 0,000 mm 2,9 UV-I 338 W/m² 9,7 °C 11,6 °C 6,4 km/h (2 Bft)
22.05.2019 12:35 11,6 °C 88 % 1017,1 hPa 0,0 mm 7,8 km/h (2 Bft) W-SW 252 ° 0 min 0,000 mm 3,0 UV-I 346 W/m² 9,7 °C 11,6 °C 16,1 km/h (3 Bft)
22.05.2019 12:36 11,7 °C 88 % 1017,1 hPa 0,0 mm 13,3 km/h (3 Bft) W-SW 253 ° 0 min 0,000 mm 3,1 UV-I 357 W/m² 9,8 °C 11,7 °C 16,1 km/h (3 Bft)
22.05.2019 12:37 11,7 °C 87 % 1017,1 hPa 0,0 mm 12,1 km/h (2 Bft) W-SW 239 ° 0 min 0,000 mm 3,2 UV-I 378 W/m² 9,6 °C 11,7 °C 19,3 km/h (3 Bft)
22.05.2019 12:38 11,7 °C 86 % 1017,1 hPa 0,0 mm 11,4 km/h (2 Bft) W 267 ° 0 min 0,000 mm 3,3 UV-I 387 W/m² 9,4 °C 11,7 °C 19,3 km/h (3 Bft)
22.05.2019 12:39 11,7 °C 87 % 1017,1 hPa 0,0 mm 8,7 km/h (2 Bft) S 188 ° 0 min 0,000 mm 3,3 UV-I 394 W/m² 9,6 °C 11,7 °C 14,5 km/h (3 Bft)
22.05.2019 12:40 11,8 °C 87 % 1017,1 hPa 0,0 mm 9,7 km/h (2 Bft) W 262 ° 0 min 0,000 mm 3,4 UV-I 401 W/m² 9,7 °C 11,8 °C 14,5 km/h (3 Bft)
22.05.2019 12:41 11,8 °C 87 % 1017,1 hPa 0,0 mm 6,5 km/h (2 Bft) W-SW 253 ° 0 min 0,000 mm 3,5 UV-I 420 W/m² 9,7 °C 11,8 °C 19,3 km/h (3 Bft)
22.05.2019 12:42 11,8 °C 86 % 1017,1 hPa 0,0 mm 10,1 km/h (2 Bft) W-SW 245 ° 0 min 0,000 mm 3,6 UV-I 438 W/m² 9,5 °C 11,8 °C 16,1 km/h (3 Bft)
22.05.2019 12:43 11,8 °C 85 % 1017,1 hPa 0,0 mm 6,6 km/h (2 Bft) W-NW 293 ° 0 min 0,000 mm 3,6 UV-I 457 W/m² 9,4 °C 11,8 °C 11,3 km/h (2 Bft)
22.05.2019 12:44 11,7 °C 85 % 1017,1 hPa 0,0 mm 7,9 km/h (2 Bft) W 275 ° 0 min 0,000 mm 3,6 UV-I 446 W/m² 9,3 °C 11,7 °C 16,1 km/h (3 Bft)
22.05.2019 12:45 11,8 °C 86 % 1017,1 hPa 0,0 mm 11,3 km/h (2 Bft) W 268 ° 0 min 0,000 mm 3,3 UV-I 401 W/m² 9,5 °C 11,8 °C 16,1 km/h (3 Bft)
22.05.2019 12:46 11,8 °C 86 % 1017,1 hPa 0,0 mm 10,3 km/h (2 Bft) W 269 ° 0 min 0,000 mm 3,2 UV-I 378 W/m² 9,5 °C 11,8 °C 12,9 km/h (3 Bft)
22.05.2019 12:47 11,8 °C 86 % 1017,1 hPa 0,0 mm 11,3 km/h (2 Bft) W-NW 299 ° 0 min 0,000 mm 3,1 UV-I 362 W/m² 9,5 °C 11,8 °C 14,5 km/h (3 Bft)
22.05.2019 12:48 11,9 °C 87 % 1017,1 hPa 0,0 mm 7,5 km/h (2 Bft) W-NW 286 ° 0 min 0,000 mm 3,0 UV-I 350 W/m² 9,8 °C 11,9 °C 12,9 km/h (3 Bft)
22.05.2019 12:49 11,9 °C 86 % 1017,1 hPa 0,0 mm 7,6 km/h (2 Bft) W 276 ° 0 min 0,000 mm 3,0 UV-I 350 W/m² 9,6 °C 11,9 °C 14,5 km/h (3 Bft)
22.05.2019 12:50 11,9 °C 86 % 1017,1 hPa 0,0 mm 5,6 km/h (1 Bft) W-NW 292 ° 0 min 0,000 mm 3,0 UV-I 353 W/m² 9,6 °C 11,9 °C 9,7 km/h (2 Bft)
22.05.2019 12:51 11,8 °C 86 % 1017,1 hPa 0,0 mm 7,0 km/h (2 Bft) W-NW 297 ° 0 min 0,000 mm 3,1 UV-I 353 W/m² 9,5 °C 11,8 °C 11,3 km/h (2 Bft)
22.05.2019 12:52 11,9 °C 87 % 1017,1 hPa 0,0 mm 8,9 km/h (2 Bft) W-NW 288 ° 0 min 0,000 mm 3,1 UV-I 353 W/m² 9,8 °C 11,9 °C 11,3 km/h (2 Bft)
22.05.2019 12:53 12,0 °C 87 % 1017,2 hPa 0,0 mm 8,4 km/h (2 Bft) W-SW 244 ° 0 min 0,000 mm 3,5 UV-I 445 W/m² 9,9 °C 12,0 °C 11,3 km/h (2 Bft)
22.05.2019 12:54 12,1 °C 88 % 1017,1 hPa 0,0 mm 6,7 km/h (2 Bft) W 269 ° 0 min 0,000 mm 3,4 UV-I 410 W/m² 10,2 °C 12,1 °C 11,3 km/h (2 Bft)
22.05.2019 12:55 12,1 °C 88 % 1017,2 hPa 0,0 mm 12,3 km/h (3 Bft) W 264 ° 0 min 0,000 mm 3,2 UV-I 392 W/m² 10,2 °C 12,1 °C 19,3 km/h (3 Bft)
22.05.2019 12:56 12,1 °C 86 % 1017,2 hPa 0,0 mm 9,7 km/h (2 Bft) W-SW 240 ° 0 min 0,000 mm 3,1 UV-I 380 W/m² 9,8 °C 12,1 °C 16,1 km/h (3 Bft)
22.05.2019 12:57 12,0 °C 86 % 1017,1 hPa 0,0 mm 7,2 km/h (2 Bft) W 263 ° 0 min 0,000 mm 3,0 UV-I 373 W/m² 9,7 °C 12,0 °C 14,5 km/h (3 Bft)
22.05.2019 12:58 12,0 °C 86 % 1017,1 hPa 0,0 mm 9,7 km/h (2 Bft) W 263 ° 0 min 0,000 mm 3,0 UV-I 369 W/m² 9,7 °C 12,0 °C 14,5 km/h (3 Bft)
22.05.2019 12:59 12,0 °C 86 % 1017,2 hPa 0,0 mm 9,2 km/h (2 Bft) NW 305 ° 0 min 0,000 mm 3,0 UV-I 364 W/m² 9,7 °C 12,0 °C 14,5 km/h (3 Bft)
22.05.2019 13:00 12,0 °C 87 % 1017,2 hPa 0,0 mm 7,0 km/h (2 Bft) W-NW 285 ° 0 min 0,000 mm 2,9 UV-I 346 W/m² 9,9 °C 12,0 °C 9,7 km/h (2 Bft)
22.05.2019 13:01 12,0 °C 86 % 1017,1 hPa 0,0 mm 6,8 km/h (2 Bft) W 265 ° 0 min 0,178 mm 2,7 UV-I 336 W/m² 9,7 °C 12,0 °C 11,3 km/h (2 Bft)
22.05.2019 13:02 12,1 °C 87 % 1017,1 hPa 0,0 mm 8,2 km/h (2 Bft) NW 311 ° 0 min 0,000 mm 2,7 UV-I 322 W/m² 10,0 °C 12,1 °C 14,5 km/h (3 Bft)
22.05.2019 13:03 12,0 °C 86 % 1017,1 hPa 0,0 mm 14,9 km/h (3 Bft) W-NW 282 ° 0 min 0,000 mm 2,5 UV-I 308 W/m² 9,7 °C 12,0 °C 22,5 km/h (4 Bft)
22.05.2019 13:04 11,9 °C 86 % 1017,2 hPa 0,0 mm 16,2 km/h (3 Bft) W-NW 294 ° 0 min 0,000 mm 2,3 UV-I 287 W/m² 9,6 °C 11,9 °C 22,5 km/h (4 Bft)
22.05.2019 13:05 11,9 °C 86 % 1017,2 hPa 0,0 mm 9,1 km/h (2 Bft) W-NW 295 ° 0 min 0,000 mm 2,3 UV-I 279 W/m² 9,6 °C 11,9 °C 12,9 km/h (3 Bft)
22.05.2019 13:06 11,9 °C 86 % 1017,2 hPa 0,0 mm 16,5 km/h (3 Bft) W-NW 288 ° 0 min 0,000 mm 2,3 UV-I 297 W/m² 9,6 °C 11,9 °C 20,9 km/h (4 Bft)
22.05.2019 13:07 11,8 °C 85 % 1017,2 hPa 0,0 mm 10,2 km/h (2 Bft) W-NW 283 ° 0 min 0,000 mm 2,4 UV-I 306 W/m² 9,4 °C 11,8 °C 12,9 km/h (3 Bft)
22.05.2019 13:08 11,8 °C 85 % 1017,2 hPa 0,0 mm 9,1 km/h (2 Bft) W 269 ° 0 min 0,000 mm 2,4 UV-I 302 W/m² 9,4 °C 11,8 °C 14,5 km/h (3 Bft)
22.05.2019 13:09 11,8 °C 86 % 1017,2 hPa 0,0 mm 6,5 km/h (2 Bft) SW 225 ° 0 min 0,000 mm 2,3 UV-I 294 W/m² 9,5 °C 11,8 °C 12,9 km/h (3 Bft)
22.05.2019 13:10 11,8 °C 87 % 1017,2 hPa 0,0 mm 6,4 km/h (2 Bft) NW 307 ° 0 min 0,000 mm 2,2 UV-I 287 W/m² 9,7 °C 11,8 °C 11,3 km/h (2 Bft)
22.05.2019 13:11 11,9 °C 87 % 1017,2 hPa 0,0 mm 5,2 km/h (1 Bft) W 267 ° 0 min 0,000 mm 2,2 UV-I 283 W/m² 9,8 °C 11,9 °C 12,9 km/h (3 Bft)
22.05.2019 13:12 11,9 °C 87 % 1017,2 hPa 0,0 mm 8,2 km/h (2 Bft) W-SW 242 ° 0 min 0,000 mm 2,2 UV-I 283 W/m² 9,8 °C 11,9 °C 11,3 km/h (2 Bft)
22.05.2019 13:13 11,9 °C 87 % 1017,2 hPa 0,0 mm 10,1 km/h (2 Bft) W 260 ° 0 min 0,000 mm 2,2 UV-I 272 W/m² 9,8 °C 11,9 °C 16,1 km/h (3 Bft)
22.05.2019 13:14 11,9 °C 86 % 1017,2 hPa 0,0 mm 10,8 km/h (2 Bft) W 273 ° 0 min 0,000 mm 2,1 UV-I 265 W/m² 9,6 °C 11,9 °C 16,1 km/h (3 Bft)
22.05.2019 13:15 11,8 °C 87 % 1017,2 hPa 0,0 mm 11,1 km/h (2 Bft) W-SW 244 ° 0 min 0,000 mm 2,0 UV-I 251 W/m² 9,7 °C 11,8 °C 16,1 km/h (3 Bft)
22.05.2019 13:16 11,8 °C 86 % 1017,2 hPa 0,0 mm 5,5 km/h (1 Bft) SW 234 ° 0 min 0,000 mm 2,0 UV-I 246 W/m² 9,5 °C 11,8 °C 11,3 km/h (2 Bft)
22.05.2019 13:17 11,7 °C 85 % 1017,2 hPa 0,0 mm 14,4 km/h (3 Bft) W 269 ° 0 min 0,000 mm 2,0 UV-I 248 W/m² 9,3 °C 11,7 °C 20,9 km/h (4 Bft)
22.05.2019 13:18 11,7 °C 85 % 1017,1 hPa 0,0 mm 10,5 km/h (2 Bft) W 268 ° 0 min 0,000 mm 2,1 UV-I 272 W/m² 9,3 °C 11,7 °C 14,5 km/h (3 Bft)
22.05.2019 13:19 11,7 °C 85 % 1017,1 hPa 0,0 mm 10,1 km/h (2 Bft) NW 313 ° 0 min 0,000 mm 2,4 UV-I 295 W/m² 9,3 °C 11,7 °C 14,5 km/h (3 Bft)
22.05.2019 13:20 11,7 °C 86 % 1017,2 hPa 0,0 mm 10,3 km/h (2 Bft) W-NW 285 ° 0 min 0,000 mm 2,5 UV-I 311 W/m² 9,4 °C 11,7 °C 16,1 km/h (3 Bft)
22.05.2019 13:21 11,8 °C 86 % 1017,1 hPa 0,0 mm 9,5 km/h (2 Bft) W-NW 298 ° 0 min 0,000 mm 2,6 UV-I 322 W/m² 9,5 °C 11,8 °C 12,9 km/h (3 Bft)
22.05.2019 13:22 11,8 °C 86 % 1017,1 hPa 0,0 mm 11,3 km/h (2 Bft) W-NW 292 ° 0 min 0,000 mm 2,6 UV-I 322 W/m² 9,5 °C 11,8 °C 16,1 km/h (3 Bft)
22.05.2019 13:23 11,8 °C 86 % 1017,1 hPa 0,0 mm 7,2 km/h (2 Bft) W-NW 284 ° 0 min 0,000 mm 2,7 UV-I 323 W/m² 9,5 °C 11,8 °C 12,9 km/h (3 Bft)
22.05.2019 13:24 11,8 °C 86 % 1017,1 hPa 0,0 mm 5,5 km/h (1 Bft) W-NW 294 ° 0 min 0,000 mm 2,8 UV-I 355 W/m² 9,5 °C 11,8 °C 11,3 km/h (2 Bft)
22.05.2019 13:25 11,9 °C 86 % 1017,1 hPa 0,0 mm 9,1 km/h (2 Bft) W-NW 283 ° 0 min 0,000 mm 2,9 UV-I 353 W/m² 9,6 °C 11,9 °C 14,5 km/h (3 Bft)
22.05.2019 13:26 11,9 °C 86 % 1017,2 hPa 0,0 mm 8,0 km/h (2 Bft) W-NW 302 ° 0 min 0,000 mm 2,7 UV-I 339 W/m² 9,6 °C 11,9 °C 11,3 km/h (2 Bft)
22.05.2019 13:27 11,9 °C 86 % 1017,1 hPa 0,0 mm 8,5 km/h (2 Bft) W 263 ° 0 min 0,000 mm 2,4 UV-I 302 W/m² 9,6 °C 11,9 °C 12,9 km/h (3 Bft)
22.05.2019 13:28 11,9 °C 86 % 1017,1 hPa 0,0 mm 7,2 km/h (2 Bft) W-NW 299 ° 0 min 0,000 mm 2,2 UV-I 274 W/m² 9,6 °C 11,9 °C 11,3 km/h (2 Bft)
22.05.2019 13:29 11,9 °C 85 % 1017,2 hPa 0,0 mm 7,1 km/h (2 Bft) W-NW 285 ° 0 min 0,000 mm 2,2 UV-I 257 W/m² 9,5 °C 11,9 °C 11,3 km/h (2 Bft)
22.05.2019 13:30 11,9 °C 86 % 1017,1 hPa 0,0 mm 8,2 km/h (2 Bft) W-SW 250 ° 0 min 0,000 mm 2,1 UV-I 241 W/m² 9,6 °C 11,9 °C 9,7 km/h (2 Bft)
22.05.2019 13:31 12,0 °C 87 % 1017,1 hPa 0,0 mm 4,1 km/h (1 Bft) SW 233 ° 0 min 0,000 mm 1,7 UV-I 220 W/m² 9,9 °C 12,0 °C 6,4 km/h (2 Bft)
22.05.2019 13:32 12,0 °C 87 % 1017,2 hPa 0,0 mm 6,2 km/h (2 Bft) SW 236 ° 0 min 0,000 mm 1,5 UV-I 199 W/m² 9,9 °C 12,0 °C 12,9 km/h (3 Bft)
22.05.2019 13:33 12,0 °C 86 % 1017,2 hPa 0,0 mm 4,4 km/h (1 Bft) W 265 ° 0 min 0,000 mm 1,4 UV-I 179 W/m² 9,7 °C 12,0 °C 11,3 km/h (2 Bft)
22.05.2019 13:34 11,9 °C 87 % 1017,1 hPa 0,0 mm 5,5 km/h (1 Bft) SW 233 ° 0 min 0,000 mm 1,3 UV-I 171 W/m² 9,8 °C 11,9 °C 9,7 km/h (2 Bft)
22.05.2019 13:35 11,9 °C 86 % 1017,1 hPa 0,0 mm 6,4 km/h (2 Bft) W-SW 246 ° 0 min 0,000 mm 1,3 UV-I 162 W/m² 9,6 °C 11,9 °C 14,5 km/h (3 Bft)
22.05.2019 13:36 11,9 °C 86 % 1017,1 hPa 0,0 mm 8,8 km/h (2 Bft) W 265 ° 0 min 0,000 mm 1,2 UV-I 151 W/m² 9,6 °C 11,9 °C 12,9 km/h (3 Bft)
22.05.2019 13:37 11,9 °C 87 % 1017,2 hPa 0,0 mm 6,5 km/h (2 Bft) W-SW 244 ° 0 min 0,000 mm 1,1 UV-I 141 W/m² 9,8 °C 11,9 °C 11,3 km/h (2 Bft)
22.05.2019 13:38 11,8 °C 87 % 1017,2 hPa 0,0 mm 6,6 km/h (2 Bft) W 280 ° 0 min 0,000 mm 1,0 UV-I 132 W/m² 9,7 °C 11,8 °C 12,9 km/h (3 Bft)
22.05.2019 13:39 11,8 °C 87 % 1017,1 hPa 0,0 mm 10,5 km/h (2 Bft) W 263 ° 0 min 0,000 mm 1,0 UV-I 128 W/m² 9,7 °C 11,8 °C 12,9 km/h (3 Bft)
22.05.2019 13:40 11,7 °C 86 % 1017,1 hPa 0,0 mm 5,8 km/h (2 Bft) W 265 ° 0 min 0,000 mm 1,1 UV-I 135 W/m² 9,4 °C 11,7 °C 9,7 km/h (2 Bft)
22.05.2019 13:41 11,7 °C 86 % 1017,1 hPa 0,0 mm 3,2 km/h (1 Bft) W 265 ° 0 min 0,000 mm 1,1 UV-I 144 W/m² 9,4 °C 11,7 °C 6,4 km/h (2 Bft)
22.05.2019 13:42 11,8 °C 87 % 1017,1 hPa 0,0 mm 3,6 km/h (1 Bft) W 274 ° 0 min 0,000 mm 1,1 UV-I 134 W/m² 9,7 °C 11,8 °C 4,8 km/h (1 Bft)
22.05.2019 13:43 11,8 °C 87 % 1017,1 hPa 0,0 mm 4,3 km/h (1 Bft) W-NW 288 ° 0 min 0,000 mm 0,9 UV-I 123 W/m² 9,7 °C 11,8 °C 6,4 km/h (2 Bft)
22.05.2019 13:44 11,7 °C 87 % 1017,1 hPa 0,0 mm 4,7 km/h (1 Bft) W-NW 282 ° 0 min 0,000 mm 0,9 UV-I 114 W/m² 9,6 °C 11,7 °C 9,7 km/h (2 Bft)
22.05.2019 13:45 11,7 °C 87 % 1017,1 hPa 0,0 mm 3,1 km/h (1 Bft) W-NW 283 ° 0 min 0,000 mm 0,9 UV-I 113 W/m² 9,6 °C 11,7 °C 4,8 km/h (1 Bft)
22.05.2019 13:46 11,7 °C 87 % 1017,1 hPa 0,0 mm 3,6 km/h (1 Bft) W-NW 294 ° 0 min 0,000 mm 0,9 UV-I 113 W/m² 9,6 °C 11,7 °C 4,8 km/h (1 Bft)
22.05.2019 13:47 11,7 °C 87 % 1017,2 hPa 0,0 mm 4,8 km/h (1 Bft) W-SW 256 ° 0 min 0,000 mm 0,8 UV-I 107 W/m² 9,6 °C 11,7 °C 6,4 km/h (2 Bft)
22.05.2019 13:48 11,7 °C 86 % 1017,2 hPa 0,0 mm 6,2 km/h (2 Bft) SW 226 ° 0 min 0,000 mm 0,9 UV-I 109 W/m² 9,4 °C 11,7 °C 12,9 km/h (3 Bft)
22.05.2019 13:49 11,7 °C 86 % 1017,2 hPa 0,0 mm 9,5 km/h (2 Bft) NW 317 ° 0 min 0,000 mm 0,9 UV-I 111 W/m² 9,4 °C 11,7 °C 12,9 km/h (3 Bft)
22.05.2019 13:50 11,7 °C 86 % 1017,2 hPa 0,0 mm 4,8 km/h (1 Bft) W-NW 294 ° 0 min 0,000 mm 0,9 UV-I 113 W/m² 9,4 °C 11,7 °C 6,4 km/h (2 Bft)
22.05.2019 13:51 11,6 °C 87 % 1017,2 hPa 0,0 mm 5,2 km/h (1 Bft) W-NW 284 ° 0 min 0,000 mm 0,9 UV-I 111 W/m² 9,5 °C 11,6 °C 9,7 km/h (2 Bft)
22.05.2019 13:52 11,6 °C 87 % 1017,2 hPa 0,0 mm 6,7 km/h (2 Bft) W-NW 302 ° 0 min 0,000 mm 0,9 UV-I 111 W/m² 9,5 °C 11,6 °C 11,3 km/h (2 Bft)
22.05.2019 13:53 11,6 °C 87 % 1017,2 hPa 0,0 mm 4,0 km/h (1 Bft) W 277 ° 0 min 0,000 mm 0,9 UV-I 123 W/m² 9,5 °C 11,6 °C 6,4 km/h (2 Bft)
22.05.2019 13:54 11,6 °C 87 % 1017,2 hPa 0,0 mm 3,5 km/h (1 Bft) W-NW 295 ° 0 min 0,000 mm 1,1 UV-I 135 W/m² 9,5 °C 11,6 °C 4,8 km/h (1 Bft)
22.05.2019 13:55 11,6 °C 87 % 1017,2 hPa 0,0 mm 1,5 km/h (1 Bft) W-NW 293 ° 0 min 0,000 mm 1,2 UV-I 148 W/m² 9,5 °C 11,6 °C 3,2 km/h (1 Bft)
22.05.2019 13:56 11,6 °C 87 % 1017,2 hPa 0,0 mm 0,1 km/h (0 Bft) W-NW 293 ° 0 min 0,000 mm 1,3 UV-I 158 W/m² 9,5 °C 11,6 °C 1,6 km/h (1 Bft)
22.05.2019 13:57 11,6 °C 88 % 1017,2 hPa 0,0 mm 5,0 km/h (1 Bft) NW 319 ° 0 min 0,000 mm 1,4 UV-I 167 W/m² 9,7 °C 11,6 °C 8,0 km/h (2 Bft)
22.05.2019 13:58 11,6 °C 88 % 1017,2 hPa 0,0 mm 3,8 km/h (1 Bft) W 261 ° 0 min 0,000 mm 1,4 UV-I 174 W/m² 9,7 °C 11,6 °C 6,4 km/h (2 Bft)
22.05.2019 13:59 11,6 °C 88 % 1017,2 hPa 0,0 mm 5,4 km/h (1 Bft) W-NW 293 ° 0 min 0,000 mm 1,5 UV-I 190 W/m² 9,7 °C 11,6 °C 6,4 km/h (2 Bft)
22.05.2019 14:00 11,6 °C 87 % 1017,2 hPa 0,0 mm 6,5 km/h (2 Bft) W-NW 282 ° 0 min 0,127 mm 1,7 UV-I 207 W/m² 9,5 °C 11,6 °C 14,5 km/h (3 Bft)
22.05.2019 14:01 11,6 °C 87 % 1017,2 hPa 0,0 mm 8,7 km/h (2 Bft) W 260 ° 0 min 0,000 mm 1,9 UV-I 225 W/m² 9,5 °C 11,6 °C 12,9 km/h (3 Bft)
22.05.2019 14:02 11,6 °C 87 % 1017,2 hPa 0,0 mm 9,0 km/h (2 Bft) W 261 ° 0 min 0,000 mm 2,0 UV-I 246 W/m² 9,5 °C 11,6 °C 12,9 km/h (3 Bft)
22.05.2019 14:03 11,6 °C 87 % 1017,1 hPa 0,0 mm 10,0 km/h (2 Bft) W-NW 293 ° 0 min 0,000 mm 2,1 UV-I 255 W/m² 9,5 °C 11,6 °C 12,9 km/h (3 Bft)
22.05.2019 14:04 11,7 °C 87 % 1017,2 hPa 0,0 mm 4,3 km/h (1 Bft) W-NW 300 ° 0 min 0,000 mm 2,1 UV-I 262 W/m² 9,6 °C 11,7 °C 8,0 km/h (2 Bft)
22.05.2019 14:05 11,7 °C 88 % 1017,2 hPa 0,0 mm 6,1 km/h (2 Bft) W 259 ° 0 min 0,000 mm 2,2 UV-I 288 W/m² 9,8 °C 11,7 °C 9,7 km/h (2 Bft)
22.05.2019 14:06 11,8 °C 88 % 1017,2 hPa 0,0 mm 8,6 km/h (2 Bft) NW 323 ° 0 min 0,000 mm 2,3 UV-I 288 W/m² 9,9 °C 11,8 °C 12,9 km/h (3 Bft)
22.05.2019 14:07 11,9 °C 87 % 1017,2 hPa 0,0 mm 10,2 km/h (2 Bft) W 271 ° 0 min 0,000 mm 2,3 UV-I 281 W/m² 9,8 °C 11,9 °C 16,1 km/h (3 Bft)
22.05.2019 14:08 11,9 °C 87 % 1017,2 hPa 0,0 mm 9,5 km/h (2 Bft) W-NW 297 ° 0 min 0,000 mm 2,3 UV-I 290 W/m² 9,8 °C 11,9 °C 17,7 km/h (3 Bft)
22.05.2019 14:09 11,9 °C 87 % 1017,2 hPa 0,0 mm 6,8 km/h (2 Bft) N-NW 332 ° 0 min 0,000 mm 2,2 UV-I 278 W/m² 9,8 °C 11,9 °C 12,9 km/h (3 Bft)
22.05.2019 14:10 11,9 °C 87 % 1017,2 hPa 0,0 mm 6,9 km/h (2 Bft) W-NW 294 ° 0 min 0,000 mm 2,1 UV-I 283 W/m² 9,8 °C 11,9 °C 9,7 km/h (2 Bft)
22.05.2019 14:11 12,1 °C 87 % 1017,2 hPa 0,0 mm 3,0 km/h (1 Bft) NW 308 ° 0 min 0,000 mm 2,2 UV-I 316 W/m² 10,0 °C 12,1 °C 4,8 km/h (1 Bft)
22.05.2019 14:12 12,2 °C 88 % 1017,2 hPa 0,0 mm 4,0 km/h (1 Bft) W-NW 288 ° 0 min 0,000 mm 2,5 UV-I 316 W/m² 10,3 °C 12,2 °C 6,4 km/h (2 Bft)
22.05.2019 14:13 12,2 °C 88 % 1017,2 hPa 0,0 mm 9,4 km/h (2 Bft) W-SW 257 ° 0 min 0,000 mm 2,6 UV-I 330 W/m² 10,3 °C 12,2 °C 14,5 km/h (3 Bft)
22.05.2019 14:14 12,3 °C 87 % 1017,2 hPa 0,0 mm 11,6 km/h (2 Bft) W-NW 300 ° 0 min 0,000 mm 2,6 UV-I 327 W/m² 10,2 °C 12,3 °C 19,3 km/h (3 Bft)
22.05.2019 14:15 12,3 °C 86 % 1017,2 hPa 0,0 mm 6,1 km/h (2 Bft) W 281 ° 0 min 0,000 mm 2,6 UV-I 329 W/m² 10,0 °C 12,3 °C 11,3 km/h (2 Bft)
22.05.2019 14:16 12,3 °C 86 % 1017,2 hPa 0,0 mm 5,0 km/h (1 Bft) W 277 ° 0 min 0,000 mm 2,7 UV-I 352 W/m² 10,0 °C 12,3 °C 12,9 km/h (3 Bft)
22.05.2019 14:17 12,3 °C 86 % 1017,2 hPa 0,0 mm 5,2 km/h (1 Bft) W-NW 298 ° 0 min 0,000 mm 2,8 UV-I 359 W/m² 10,0 °C 12,3 °C 9,7 km/h (2 Bft)
22.05.2019 14:18 12,4 °C 86 % 1017,2 hPa 0,0 mm 6,8 km/h (2 Bft) W 269 ° 0 min 0,000 mm 2,9 UV-I 359 W/m² 10,1 °C 12,4 °C 12,9 km/h (3 Bft)
22.05.2019 14:19 12,4 °C 86 % 1017,2 hPa 0,0 mm 4,1 km/h (1 Bft) N-NW 335 ° 0 min 0,000 mm 2,8 UV-I 352 W/m² 10,1 °C 12,4 °C 6,4 km/h (2 Bft)
22.05.2019 14:20 12,5 °C 86 % 1017,2 hPa 0,0 mm 6,1 km/h (2 Bft) W 269 ° 0 min 0,000 mm 2,8 UV-I 345 W/m² 10,2 °C 12,5 °C 12,9 km/h (3 Bft)
22.05.2019 14:21 12,6 °C 85 % 1017,2 hPa 0,0 mm 14,7 km/h (3 Bft) W 279 ° 0 min 0,000 mm 3,0 UV-I 362 W/m² 10,1 °C 12,6 °C 17,7 km/h (3 Bft)
22.05.2019 14:22 12,6 °C 85 % 1017,2 hPa 0,0 mm 8,3 km/h (2 Bft) W 272 ° 0 min 0,000 mm 3,1 UV-I 396 W/m² 10,1 °C 12,6 °C 14,5 km/h (3 Bft)
22.05.2019 14:23 12,6 °C 85 % 1017,2 hPa 0,0 mm 6,7 km/h (2 Bft) W-SW 247 ° 0 min 0,000 mm 3,4 UV-I 413 W/m² 10,1 °C 12,6 °C 11,3 km/h (2 Bft)
22.05.2019 14:24 12,6 °C 85 % 1017,3 hPa 0,0 mm 13,9 km/h (3 Bft) W-SW 254 ° 0 min 0,000 mm 3,8 UV-I 473 W/m² 10,1 °C 12,6 °C 20,9 km/h (4 Bft)
22.05.2019 14:25 12,6 °C 84 % 1017,2 hPa 0,0 mm 10,1 km/h (2 Bft) W 259 ° 0 min 0,000 mm 3,4 UV-I 434 W/m² 10,0 °C 12,6 °C 14,5 km/h (3 Bft)
22.05.2019 14:26 12,7 °C 84 % 1017,2 hPa 0,0 mm 10,3 km/h (2 Bft) W-SW 256 ° 0 min 0,000 mm 3,4 UV-I 415 W/m² 10,1 °C 12,7 °C 16,1 km/h (3 Bft)
22.05.2019 14:27 12,8 °C 85 % 1017,2 hPa 0,0 mm 5,6 km/h (1 Bft) N-NW 331 ° 0 min 0,000 mm 3,3 UV-I 411 W/m² 10,3 °C 12,8 °C 9,7 km/h (2 Bft)
22.05.2019 14:28 12,8 °C 84 % 1017,2 hPa 0,0 mm 8,9 km/h (2 Bft) NW 316 ° 0 min 0,000 mm 3,4 UV-I 406 W/m² 10,2 °C 12,8 °C 14,5 km/h (3 Bft)
22.05.2019 14:29 12,8 °C 84 % 1017,2 hPa 0,0 mm 9,1 km/h (2 Bft) W 278 ° 0 min 0,000 mm 3,3 UV-I 404 W/m² 10,2 °C 12,8 °C 16,1 km/h (3 Bft)
22.05.2019 14:30 12,8 °C 83 % 1017,2 hPa 0,0 mm 10,9 km/h (2 Bft) W-NW 301 ° 0 min 0,000 mm 3,3 UV-I 404 W/m² 10,0 °C 12,8 °C 17,7 km/h (3 Bft)
22.05.2019 14:31 12,8 °C 84 % 1017,2 hPa 0,0 mm 9,7 km/h (2 Bft) W-NW 296 ° 0 min 0,000 mm 3,3 UV-I 406 W/m² 10,2 °C 12,8 °C 14,5 km/h (3 Bft)
22.05.2019 14:32 12,8 °C 83 % 1017,2 hPa 0,0 mm 7,8 km/h (2 Bft) SW 223 ° 0 min 0,000 mm 3,2 UV-I 401 W/m² 10,0 °C 12,8 °C 11,3 km/h (2 Bft)
22.05.2019 14:33 12,8 °C 83 % 1017,2 hPa 0,0 mm 10,8 km/h (2 Bft) W 264 ° 0 min 0,000 mm 3,1 UV-I 390 W/m² 10,0 °C 12,8 °C 14,5 km/h (3 Bft)
22.05.2019 14:34 12,8 °C 84 % 1017,3 hPa 0,0 mm 13,1 km/h (3 Bft) W 279 ° 0 min 0,000 mm 3,0 UV-I 366 W/m² 10,2 °C 12,8 °C 19,3 km/h (3 Bft)
22.05.2019 14:35 12,8 °C 84 % 1017,3 hPa 0,0 mm 13,1 km/h (3 Bft) W 265 ° 0 min 0,000 mm 2,9 UV-I 362 W/m² 10,2 °C 12,8 °C 16,1 km/h (3 Bft)
22.05.2019 14:36 12,8 °C 84 % 1017,3 hPa 0,0 mm 8,4 km/h (2 Bft) W-SW 240 ° 0 min 0,000 mm 2,7 UV-I 348 W/m² 10,2 °C 12,8 °C 16,1 km/h (3 Bft)
22.05.2019 14:37 12,8 °C 82 % 1017,2 hPa 0,0 mm 7,7 km/h (2 Bft) W 259 ° 0 min 0,000 mm 2,7 UV-I 343 W/m² 9,8 °C 12,8 °C 12,9 km/h (3 Bft)
22.05.2019 14:38 12,7 °C 81 % 1017,2 hPa 0,0 mm 11,4 km/h (2 Bft) W 277 ° 0 min 0,000 mm 2,7 UV-I 339 W/m² 9,5 °C 12,7 °C 14,5 km/h (3 Bft)
22.05.2019 14:39 12,6 °C 82 % 1017,2 hPa 0,0 mm 5,4 km/h (1 Bft) NW 323 ° 0 min 0,000 mm 2,7 UV-I 330 W/m² 9,6 °C 12,6 °C 9,7 km/h (2 Bft)
22.05.2019 14:40 12,7 °C 83 % 1017,2 hPa 0,0 mm 9,5 km/h (2 Bft) W-NW 284 ° 0 min 0,000 mm 2,7 UV-I 334 W/m² 9,9 °C 12,7 °C 17,7 km/h (3 Bft)
22.05.2019 14:41 12,7 °C 84 % 1017,2 hPa 0,0 mm 8,6 km/h (2 Bft) NW 324 ° 0 min 0,000 mm 2,5 UV-I 334 W/m² 10,1 °C 12,7 °C 16,1 km/h (3 Bft)
22.05.2019 14:42 12,6 °C 83 % 1017,2 hPa 0,0 mm 8,3 km/h (2 Bft) W-SW 246 ° 0 min 0,000 mm 2,6 UV-I 320 W/m² 9,8 °C 12,6 °C 12,9 km/h (3 Bft)
22.05.2019 14:43 12,6 °C 84 % 1017,3 hPa 0,0 mm 12,4 km/h (3 Bft) W-SW 246 ° 0 min 0,000 mm 2,7 UV-I 330 W/m² 10,0 °C 12,6 °C 17,7 km/h (3 Bft)
22.05.2019 14:44 12,6 °C 84 % 1017,3 hPa 0,0 mm 7,6 km/h (2 Bft) W 265 ° 0 min 0,000 mm 2,8 UV-I 345 W/m² 10,0 °C 12,6 °C 14,5 km/h (3 Bft)
22.05.2019 14:45 12,6 °C 83 % 1017,3 hPa 0,0 mm 11,5 km/h (2 Bft) W-SW 253 ° 0 min 0,000 mm 2,8 UV-I 352 W/m² 9,8 °C 12,6 °C 17,7 km/h (3 Bft)
22.05.2019 14:46 12,6 °C 84 % 1017,3 hPa 0,0 mm 13,9 km/h (3 Bft) W-SW 248 ° 0 min 0,000 mm 2,8 UV-I 348 W/m² 10,0 °C 12,6 °C 22,5 km/h (4 Bft)
22.05.2019 14:47 12,5 °C 83 % 1017,3 hPa 0,0 mm 12,4 km/h (3 Bft) W-SW 257 ° 0 min 0,000 mm 2,7 UV-I 339 W/m² 9,7 °C 12,5 °C 17,7 km/h (3 Bft)
22.05.2019 14:48 12,4 °C 82 % 1017,2 hPa 0,0 mm 16,6 km/h (3 Bft) W 276 ° 0 min 0,000 mm 2,8 UV-I 345 W/m² 9,4 °C 12,4 °C 22,5 km/h (4 Bft)
22.05.2019 14:49 12,4 °C 82 % 1017,3 hPa 0,0 mm 12,3 km/h (3 Bft) W 261 ° 0 min 0,000 mm 2,8 UV-I 350 W/m² 9,4 °C 12,4 °C 19,3 km/h (3 Bft)
22.05.2019 14:50 12,3 °C 82 % 1017,2 hPa 0,0 mm 11,0 km/h (2 Bft) NW 322 ° 0 min 0,000 mm 2,9 UV-I 357 W/m² 9,3 °C 12,3 °C 17,7 km/h (3 Bft)
22.05.2019 14:51 12,3 °C 82 % 1017,2 hPa 0,0 mm 9,2 km/h (2 Bft) NW 309 ° 0 min 0,000 mm 2,9 UV-I 362 W/m² 9,3 °C 12,3 °C 16,1 km/h (3 Bft)
22.05.2019 14:52 12,3 °C 83 % 1017,2 hPa 0,0 mm 7,1 km/h (2 Bft) N-NW 331 ° 0 min 0,000 mm 3,0 UV-I 383 W/m² 9,5 °C 12,3 °C 11,3 km/h (2 Bft)
22.05.2019 14:53 12,3 °C 83 % 1017,2 hPa 0,0 mm 6,0 km/h (2 Bft) W-NW 298 ° 0 min 0,000 mm 3,1 UV-I 392 W/m² 9,5 °C 12,3 °C 12,9 km/h (3 Bft)
22.05.2019 14:54 12,3 °C 81 % 1017,2 hPa 0,0 mm 6,3 km/h (2 Bft) W-NW 287 ° 0 min 0,000 mm 3,1 UV-I 396 W/m² 9,1 °C 12,3 °C 8,0 km/h (2 Bft)
22.05.2019 14:55 12,4 °C 83 % 1017,2 hPa 0,0 mm 11,5 km/h (2 Bft) W-SW 245 ° 0 min 0,000 mm 3,0 UV-I 376 W/m² 9,6 °C 12,4 °C 16,1 km/h (3 Bft)
22.05.2019 14:56 12,4 °C 83 % 1017,3 hPa 0,0 mm 14,2 km/h (3 Bft) W-NW 294 ° 0 min 0,000 mm 2,8 UV-I 362 W/m² 9,6 °C 12,4 °C 19,3 km/h (3 Bft)
22.05.2019 14:57 12,4 °C 81 % 1017,3 hPa 0,0 mm 12,3 km/h (3 Bft) NW 307 ° 0 min 0,000 mm 2,9 UV-I 371 W/m² 9,2 °C 12,4 °C 17,7 km/h (3 Bft)
22.05.2019 14:58 12,4 °C 82 % 1017,3 hPa 0,0 mm 5,7 km/h (1 Bft) W 266 ° 0 min 0,000 mm 2,9 UV-I 380 W/m² 9,4 °C 12,4 °C 9,7 km/h (2 Bft)
22.05.2019 14:59 12,4 °C 83 % 1017,3 hPa 0,0 mm 8,0 km/h (2 Bft) W 270 ° 0 min 0,000 mm 3,0 UV-I 396 W/m² 9,6 °C 12,4 °C 12,9 km/h (3 Bft)
22.05.2019 15:00 12,5 °C 83 % 1017,3 hPa 0,0 mm 10,7 km/h (2 Bft) W-SW 258 ° 0 min 0,000 mm 3,1 UV-I 408 W/m² 9,7 °C 12,5 °C 14,5 km/h (3 Bft)
22.05.2019 15:01 12,6 °C 83 % 1017,3 hPa 0,0 mm 10,3 km/h (2 Bft) W-NW 282 ° 0 min 0,177 mm 3,1 UV-I 403 W/m² 9,8 °C 12,6 °C 14,5 km/h (3 Bft)
22.05.2019 15:02 12,6 °C 82 % 1017,3 hPa 0,0 mm 6,6 km/h (2 Bft) W-NW 292 ° 0 min 0,000 mm 3,0 UV-I 399 W/m² 9,6 °C 12,6 °C 11,3 km/h (2 Bft)
22.05.2019 15:03 12,6 °C 83 % 1017,3 hPa 0,0 mm 8,4 km/h (2 Bft) S 186 ° 0 min 0,000 mm 3,0 UV-I 390 W/m² 9,8 °C 12,6 °C 14,5 km/h (3 Bft)
22.05.2019 15:04 12,6 °C 82 % 1017,2 hPa 0,0 mm 8,7 km/h (2 Bft) W-SW 249 ° 0 min 0,000 mm 2,9 UV-I 381 W/m² 9,6 °C 12,6 °C 19,3 km/h (3 Bft)
22.05.2019 15:05 12,7 °C 83 % 1017,2 hPa 0,0 mm 12,6 km/h (3 Bft) W 265 ° 0 min 0,000 mm 2,8 UV-I 373 W/m² 9,9 °C 12,7 °C 20,9 km/h (4 Bft)
22.05.2019 15:06 12,8 °C 83 % 1017,2 hPa 0,0 mm 9,7 km/h (2 Bft) W 272 ° 0 min 0,000 mm 2,7 UV-I 357 W/m² 10,0 °C 12,8 °C 19,3 km/h (3 Bft)
22.05.2019 15:07 12,8 °C 83 % 1017,2 hPa 0,0 mm 13,3 km/h (3 Bft) W-NW 283 ° 0 min 0,000 mm 2,7 UV-I 357 W/m² 10,0 °C 12,8 °C 16,1 km/h (3 Bft)
22.05.2019 15:08 12,8 °C 83 % 1017,2 hPa 0,0 mm 12,8 km/h (3 Bft) W 273 ° 0 min 0,000 mm 2,8 UV-I 357 W/m² 10,0 °C 12,8 °C 17,7 km/h (3 Bft)
22.05.2019 15:09 12,7 °C 82 % 1017,2 hPa 0,0 mm 10,9 km/h (2 Bft) W-SW 257 ° 0 min 0,000 mm 2,9 UV-I 385 W/m² 9,7 °C 12,7 °C 16,1 km/h (3 Bft)
22.05.2019 15:10 12,8 °C 84 % 1017,2 hPa 0,0 mm 10,3 km/h (2 Bft) W-NW 290 ° 0 min 0,000 mm 3,1 UV-I 399 W/m² 10,2 °C 12,8 °C 14,5 km/h (3 Bft)
22.05.2019 15:11 12,8 °C 83 % 1017,2 hPa 0,0 mm 9,2 km/h (2 Bft) W-NW 285 ° 0 min 0,000 mm 3,2 UV-I 418 W/m² 10,0 °C 12,8 °C 14,5 km/h (3 Bft)
22.05.2019 15:12 12,8 °C 83 % 1017,2 hPa 0,0 mm 10,8 km/h (2 Bft) W-SW 245 ° 0 min 0,000 mm 3,4 UV-I 452 W/m² 10,0 °C 12,8 °C 17,7 km/h (3 Bft)
22.05.2019 15:13 12,8 °C 81 % 1017,2 hPa 0,0 mm 11,2 km/h (2 Bft) W 261 ° 0 min 0,000 mm 3,5 UV-I 478 W/m² 9,6 °C 12,8 °C 16,1 km/h (3 Bft)
22.05.2019 15:14 12,8 °C 81 % 1017,2 hPa 0,0 mm 3,7 km/h (1 Bft) S-SW 203 ° 0 min 0,000 mm 3,3 UV-I 457 W/m² 9,6 °C 12,8 °C 11,3 km/h (2 Bft)
22.05.2019 15:15 12,8 °C 83 % 1017,2 hPa 0,0 mm 10,2 km/h (2 Bft) W 268 ° 0 min 0,000 mm 3,0 UV-I 350 W/m² 10,0 °C 12,8 °C 16,1 km/h (3 Bft)
22.05.2019 15:16 12,8 °C 82 % 1017,2 hPa 0,0 mm 16,2 km/h (3 Bft) W 265 ° 0 min 0,000 mm 2,6 UV-I 329 W/m² 9,8 °C 12,8 °C 22,5 km/h (4 Bft)
22.05.2019 15:17 12,8 °C 81 % 1017,2 hPa 0,0 mm 14,1 km/h (3 Bft) W-NW 289 ° 0 min 0,000 mm 2,6 UV-I 343 W/m² 9,6 °C 12,8 °C 19,3 km/h (3 Bft)
22.05.2019 15:18 12,7 °C 81 % 1017,2 hPa 0,0 mm 15,1 km/h (3 Bft) W 261 ° 0 min 0,000 mm 2,4 UV-I 323 W/m² 9,5 °C 12,7 °C 17,7 km/h (3 Bft)
22.05.2019 15:19 12,7 °C 82 % 1017,2 hPa 0,0 mm 12,2 km/h (2 Bft) W-SW 256 ° 0 min 0,000 mm 2,2 UV-I 288 W/m² 9,7 °C 12,7 °C 17,7 km/h (3 Bft)
22.05.2019 15:20 12,7 °C 82 % 1017,2 hPa 0,0 mm 13,6 km/h (3 Bft) W-SW 257 ° 0 min 0,000 mm 1,9 UV-I 248 W/m² 9,7 °C 12,7 °C 19,3 km/h (3 Bft)
22.05.2019 15:21 12,6 °C 83 % 1017,2 hPa 0,0 mm 11,3 km/h (2 Bft) W 269 ° 0 min 0,000 mm 1,7 UV-I 234 W/m² 9,8 °C 12,6 °C 17,7 km/h (3 Bft)
22.05.2019 15:22 12,6 °C 82 % 1017,2 hPa 0,0 mm 10,8 km/h (2 Bft) W 260 ° 0 min 0,000 mm 1,8 UV-I 239 W/m² 9,6 °C 12,6 °C 14,5 km/h (3 Bft)
22.05.2019 15:23 12,6 °C 84 % 1017,3 hPa 0,0 mm 8,7 km/h (2 Bft) W-NW 292 ° 0 min 0,000 mm 1,8 UV-I 244 W/m² 10,0 °C 12,6 °C 12,9 km/h (3 Bft)
22.05.2019 15:24 12,5 °C 83 % 1017,3 hPa 0,0 mm 6,1 km/h (2 Bft) W-NW 303 ° 0 min 0,000 mm 1,7 UV-I 236 W/m² 9,7 °C 12,5 °C 9,7 km/h (2 Bft)
22.05.2019 15:25 12,5 °C 83 % 1017,3 hPa 0,0 mm 7,3 km/h (2 Bft) W 280 ° 0 min 0,000 mm 1,6 UV-I 214 W/m² 9,7 °C 12,5 °C 11,3 km/h (2 Bft)
22.05.2019 15:26 12,5 °C 83 % 1017,3 hPa 0,0 mm 12,6 km/h (3 Bft) W-NW 296 ° 0 min 0,000 mm 1,4 UV-I 176 W/m² 9,7 °C 12,5 °C 17,7 km/h (3 Bft)
22.05.2019 15:27 12,5 °C 83 % 1017,3 hPa 0,0 mm 7,1 km/h (2 Bft) W-NW 302 ° 0 min 0,000 mm 1,4 UV-I 169 W/m² 9,7 °C 12,5 °C 12,9 km/h (3 Bft)
22.05.2019 15:28 12,4 °C 82 % 1017,3 hPa 0,0 mm 11,1 km/h (2 Bft) W-NW 289 ° 0 min 0,000 mm 1,3 UV-I 169 W/m² 9,4 °C 12,4 °C 14,5 km/h (3 Bft)
22.05.2019 15:29 12,4 °C 82 % 1017,3 hPa 0,0 mm 9,2 km/h (2 Bft) W-NW 302 ° 0 min 0,000 mm 1,3 UV-I 174 W/m² 9,4 °C 12,4 °C 17,7 km/h (3 Bft)
22.05.2019 15:30 12,3 °C 82 % 1017,3 hPa 0,0 mm 7,4 km/h (2 Bft) W-NW 296 ° 0 min 0,000 mm 1,3 UV-I 179 W/m² 9,3 °C 12,3 °C 16,1 km/h (3 Bft)
22.05.2019 15:31 12,3 °C 82 % 1017,3 hPa 0,0 mm 9,3 km/h (2 Bft) W-NW 284 ° 0 min 0,000 mm 1,3 UV-I 178 W/m² 9,3 °C 12,3 °C 16,1 km/h (3 Bft)
22.05.2019 15:32 12,2 °C 82 % 1017,3 hPa 0,0 mm 13,9 km/h (3 Bft) W-NW 301 ° 0 min 0,000 mm 1,3 UV-I 174 W/m² 9,2 °C 12,2 °C 19,3 km/h (3 Bft)
22.05.2019 15:33 12,2 °C 82 % 1017,3 hPa 0,0 mm 9,3 km/h (2 Bft) NW 304 ° 0 min 0,000 mm 1,3 UV-I 176 W/m² 9,2 °C 12,2 °C 14,5 km/h (3 Bft)
22.05.2019 15:34 12,1 °C 82 % 1017,3 hPa 0,0 mm 8,4 km/h (2 Bft) W-NW 284 ° 0 min 0,000 mm 1,3 UV-I 174 W/m² 9,1 °C 12,1 °C 14,5 km/h (3 Bft)
22.05.2019 15:35 12,1 °C 82 % 1017,3 hPa 0,0 mm 11,8 km/h (2 Bft) W-SW 242 ° 0 min 0,000 mm 1,3 UV-I 174 W/m² 9,1 °C 12,1 °C 16,1 km/h (3 Bft)
22.05.2019 15:36 12,1 °C 83 % 1017,3 hPa 0,0 mm 9,9 km/h (2 Bft) W 277 ° 0 min 0,000 mm 1,3 UV-I 176 W/m² 9,3 °C 12,1 °C 16,1 km/h (3 Bft)
22.05.2019 15:37 12,1 °C 83 % 1017,3 hPa 0,0 mm 9,0 km/h (2 Bft) W 276 ° 0 min 0,000 mm 1,4 UV-I 179 W/m² 9,3 °C 12,1 °C 11,3 km/h (2 Bft)
22.05.2019 15:38 12,1 °C 83 % 1017,3 hPa 0,0 mm 7,0 km/h (2 Bft) W-NW 290 ° 0 min 0,000 mm 1,4 UV-I 195 W/m² 9,3 °C 12,1 °C 12,9 km/h (3 Bft)
22.05.2019 15:39 12,1 °C 83 % 1017,3 hPa 0,0 mm 4,2 km/h (1 Bft) W 267 ° 0 min 0,000 mm 1,5 UV-I 206 W/m² 9,3 °C 12,1 °C 12,9 km/h (3 Bft)
22.05.2019 15:40 12,1 °C 84 % 1017,4 hPa 0,0 mm 10,9 km/h (2 Bft) W-NW 285 ° 0 min 0,000 mm 1,5 UV-I 213 W/m² 9,5 °C 12,1 °C 16,1 km/h (3 Bft)
22.05.2019 15:41 12,1 °C 83 % 1017,4 hPa 0,0 mm 9,4 km/h (2 Bft) W-NW 296 ° 0 min 0,000 mm 1,6 UV-I 221 W/m² 9,3 °C 12,1 °C 12,9 km/h (3 Bft)
22.05.2019 15:42 12,1 °C 83 % 1017,3 hPa 0,0 mm 11,9 km/h (2 Bft) W-NW 286 ° 0 min 0,000 mm 1,7 UV-I 227 W/m² 9,3 °C 12,1 °C 19,3 km/h (3 Bft)
22.05.2019 15:43 12,1 °C 83 % 1017,4 hPa 0,0 mm 12,2 km/h (2 Bft) W 273 ° 0 min 0,000 mm 1,7 UV-I 236 W/m² 9,3 °C 12,1 °C 16,1 km/h (3 Bft)
22.05.2019 15:44 12,1 °C 82 % 1017,4 hPa 0,0 mm 9,9 km/h (2 Bft) W-NW 294 ° 0 min 0,000 mm 1,8 UV-I 250 W/m² 9,1 °C 12,1 °C 16,1 km/h (3 Bft)
22.05.2019 15:45 12,1 °C 83 % 1017,3 hPa 0,0 mm 7,2 km/h (2 Bft) W 267 ° 0 min 0,000 mm 1,9 UV-I 255 W/m² 9,3 °C 12,1 °C 11,3 km/h (2 Bft)
22.05.2019 15:46 12,1 °C 83 % 1017,3 hPa 0,0 mm 10,4 km/h (2 Bft) W 261 ° 0 min 0,000 mm 2,0 UV-I 262 W/m² 9,3 °C 12,1 °C 16,1 km/h (3 Bft)
22.05.2019 15:47 12,1 °C 84 % 1017,3 hPa 0,0 mm 12,2 km/h (2 Bft) W 264 ° 0 min 0,000 mm 2,0 UV-I 267 W/m² 9,5 °C 12,1 °C 19,3 km/h (3 Bft)
22.05.2019 15:48 12,1 °C 83 % 1017,3 hPa 0,0 mm 9,6 km/h (2 Bft) W 263 ° 0 min 0,000 mm 2,0 UV-I 267 W/m² 9,3 °C 12,1 °C 14,5 km/h (3 Bft)
22.05.2019 15:49 12,1 °C 83 % 1017,3 hPa 0,0 mm 14,0 km/h (3 Bft) W 263 ° 0 min 0,000 mm 2,1 UV-I 279 W/m² 9,3 °C 12,1 °C 17,7 km/h (3 Bft)
22.05.2019 15:50 12,2 °C 83 % 1017,3 hPa 0,0 mm 12,0 km/h (2 Bft) NW 311 ° 0 min 0,000 mm 2,2 UV-I 285 W/m² 9,4 °C 12,2 °C 16,1 km/h (3 Bft)
22.05.2019 15:51 12,2 °C 83 % 1017,3 hPa 0,0 mm 14,3 km/h (3 Bft) W-NW 299 ° 0 min 0,000 mm 2,2 UV-I 287 W/m² 9,4 °C 12,2 °C 16,1 km/h (3 Bft)
22.05.2019 15:52 12,2 °C 82 % 1017,3 hPa 0,0 mm 12,8 km/h (3 Bft) NW 307 ° 0 min 0,000 mm 2,2 UV-I 288 W/m² 9,2 °C 12,2 °C 16,1 km/h (3 Bft)
22.05.2019 15:53 12,2 °C 83 % 1017,3 hPa 0,0 mm 10,9 km/h (2 Bft) W-NW 291 ° 0 min 0,000 mm 2,3 UV-I 294 W/m² 9,4 °C 12,2 °C 16,1 km/h (3 Bft)
22.05.2019 15:54 12,2 °C 83 % 1017,3 hPa 0,0 mm 10,1 km/h (2 Bft) W 261 ° 0 min 0,000 mm 2,3 UV-I 301 W/m² 9,4 °C 12,2 °C 14,5 km/h (3 Bft)
22.05.2019 15:55 12,3 °C 83 % 1017,4 hPa 0,0 mm 9,4 km/h (2 Bft) W-SW 253 ° 0 min 0,000 mm 2,3 UV-I 306 W/m² 9,5 °C 12,3 °C 16,1 km/h (3 Bft)
22.05.2019 15:56 12,3 °C 83 % 1017,3 hPa 0,0 mm 7,6 km/h (2 Bft) N-NW 336 ° 0 min 0,000 mm 2,3 UV-I 301 W/m² 9,5 °C 12,3 °C 14,5 km/h (3 Bft)
22.05.2019 15:57 12,3 °C 83 % 1017,3 hPa 0,0 mm 13,8 km/h (3 Bft) NW 313 ° 0 min 0,000 mm 2,3 UV-I 304 W/m² 9,5 °C 12,3 °C 19,3 km/h (3 Bft)
22.05.2019 15:58 12,3 °C 83 % 1017,3 hPa 0,0 mm 12,3 km/h (3 Bft) W-NW 289 ° 0 min 0,000 mm 2,3 UV-I 302 W/m² 9,5 °C 12,3 °C 19,3 km/h (3 Bft)
22.05.2019 15:59 12,3 °C 83 % 1017,3 hPa 0,0 mm 8,7 km/h (2 Bft) W-SW 254 ° 0 min 0,000 mm 2,2 UV-I 299 W/m² 9,5 °C 12,3 °C 16,1 km/h (3 Bft)
22.05.2019 16:00 12,4 °C 83 % 1017,3 hPa 0,0 mm 11,6 km/h (2 Bft) NW 306 ° 0 min 0,000 mm 2,2 UV-I 294 W/m² 9,6 °C 12,4 °C 20,9 km/h (4 Bft)
22.05.2019 16:01 12,4 °C 83 % 1017,4 hPa 0,0 mm 12,1 km/h (2 Bft) W-SW 246 ° 0 min 0,153 mm 2,2 UV-I 283 W/m² 9,6 °C 12,4 °C 20,9 km/h (4 Bft)
22.05.2019 16:02 12,3 °C 82 % 1017,4 hPa 0,0 mm 9,7 km/h (2 Bft) SW 235 ° 0 min 0,000 mm 2,1 UV-I 279 W/m² 9,3 °C 12,3 °C 14,5 km/h (3 Bft)
22.05.2019 16:03 12,3 °C 83 % 1017,4 hPa 0,0 mm 7,4 km/h (2 Bft) W-NW 294 ° 0 min 0,000 mm 2,1 UV-I 278 W/m² 9,5 °C 12,3 °C 11,3 km/h (2 Bft)
22.05.2019 16:04 12,3 °C 83 % 1017,4 hPa 0,0 mm 9,1 km/h (2 Bft) W-SW 257 ° 0 min 0,000 mm 2,1 UV-I 278 W/m² 9,5 °C 12,3 °C 14,5 km/h (3 Bft)
22.05.2019 16:05 12,3 °C 83 % 1017,4 hPa 0,0 mm 11,9 km/h (2 Bft) W 263 ° 0 min 0,000 mm 2,1 UV-I 279 W/m² 9,5 °C 12,3 °C 19,3 km/h (3 Bft)
22.05.2019 16:06 12,3 °C 82 % 1017,4 hPa 0,0 mm 17,1 km/h (3 Bft) W 267 ° 0 min 0,000 mm 2,1 UV-I 281 W/m² 9,3 °C 12,3 °C 25,7 km/h (4 Bft)
22.05.2019 16:07 12,3 °C 82 % 1017,4 hPa 0,0 mm 13,7 km/h (3 Bft) W-SW 256 ° 0 min 0,000 mm 2,1 UV-I 281 W/m² 9,3 °C 12,3 °C 16,1 km/h (3 Bft)
22.05.2019 16:08 12,2 °C 82 % 1017,4 hPa 0,0 mm 10,9 km/h (2 Bft) W-SW 252 ° 0 min 0,000 mm 2,1 UV-I 281 W/m² 9,2 °C 12,2 °C 14,5 km/h (3 Bft)
22.05.2019 16:09 12,2 °C 82 % 1017,4 hPa 0,0 mm 13,5 km/h (3 Bft) W 264 ° 0 min 0,000 mm 2,1 UV-I 279 W/m² 9,2 °C 12,2 °C 17,7 km/h (3 Bft)
22.05.2019 16:10 12,2 °C 82 % 1017,3 hPa 0,0 mm 9,3 km/h (2 Bft) S 190 ° 0 min 0,000 mm 2,1 UV-I 278 W/m² 9,2 °C 12,2 °C 16,1 km/h (3 Bft)
22.05.2019 16:11 12,3 °C 82 % 1017,4 hPa 0,0 mm 6,1 km/h (2 Bft) W 265 ° 0 min 0,000 mm 2,0 UV-I 276 W/m² 9,3 °C 12,3 °C 12,9 km/h (3 Bft)
22.05.2019 16:12 12,3 °C 83 % 1017,4 hPa 0,0 mm 12,4 km/h (3 Bft) W-SW 250 ° 0 min 0,000 mm 2,0 UV-I 272 W/m² 9,5 °C 12,3 °C 16,1 km/h (3 Bft)
22.05.2019 16:13 12,3 °C 82 % 1017,3 hPa 0,0 mm 15,0 km/h (3 Bft) W-NW 289 ° 0 min 0,000 mm 2,1 UV-I 274 W/m² 9,3 °C 12,3 °C 24,1 km/h (4 Bft)
22.05.2019 16:14 12,3 °C 82 % 1017,4 hPa 0,0 mm 13,2 km/h (3 Bft) W 268 ° 0 min 0,000 mm 2,1 UV-I 274 W/m² 9,3 °C 12,3 °C 17,7 km/h (3 Bft)
22.05.2019 16:15 12,3 °C 82 % 1017,4 hPa 0,0 mm 13,6 km/h (3 Bft) W 265 ° 0 min 0,000 mm 2,1 UV-I 274 W/m² 9,3 °C 12,3 °C 20,9 km/h (4 Bft)
22.05.2019 16:16 12,3 °C 82 % 1017,4 hPa 0,0 mm 11,7 km/h (2 Bft) W 263 ° 0 min 0,000 mm 2,1 UV-I 278 W/m² 9,3 °C 12,3 °C 16,1 km/h (3 Bft)
22.05.2019 16:17 12,3 °C 82 % 1017,4 hPa 0,0 mm 7,8 km/h (2 Bft) W 277 ° 0 min 0,000 mm 2,1 UV-I 279 W/m² 9,3 °C 12,3 °C 12,9 km/h (3 Bft)
22.05.2019 16:18 12,3 °C 83 % 1017,4 hPa 0,0 mm 8,0 km/h (2 Bft) W-NW 296 ° 0 min 0,000 mm 2,1 UV-I 285 W/m² 9,5 °C 12,3 °C 12,9 km/h (3 Bft)
22.05.2019 16:19 12,4 °C 83 % 1017,4 hPa 0,0 mm 12,7 km/h (3 Bft) W-SW 247 ° 0 min 0,000 mm 2,2 UV-I 292 W/m² 9,6 °C 12,4 °C 19,3 km/h (3 Bft)
22.05.2019 16:20 12,4 °C 83 % 1017,4 hPa 0,0 mm 14,6 km/h (3 Bft) W-NW 302 ° 0 min 0,000 mm 2,2 UV-I 294 W/m² 9,6 °C 12,4 °C 22,5 km/h (4 Bft)
22.05.2019 16:21 12,4 °C 82 % 1017,4 hPa 0,0 mm 10,2 km/h (2 Bft) NW 304 ° 0 min 0,000 mm 2,2 UV-I 295 W/m² 9,4 °C 12,4 °C 14,5 km/h (3 Bft)
22.05.2019 16:22 12,4 °C 82 % 1017,4 hPa 0,0 mm 6,9 km/h (2 Bft) W-NW 283 ° 0 min 0,000 mm 2,2 UV-I 294 W/m² 9,4 °C 12,4 °C 14,5 km/h (3 Bft)
22.05.2019 16:23 12,4 °C 82 % 1017,4 hPa 0,0 mm 11,2 km/h (2 Bft) W 274 ° 0 min 0,000 mm 2,2 UV-I 295 W/m² 9,4 °C 12,4 °C 16,1 km/h (3 Bft)
22.05.2019 16:24 12,4 °C 82 % 1017,5 hPa 0,0 mm 9,8 km/h (2 Bft) W 279 ° 0 min 0,000 mm 2,2 UV-I 292 W/m² 9,4 °C 12,4 °C 17,7 km/h (3 Bft)
22.05.2019 16:25 12,4 °C 82 % 1017,5 hPa 0,0 mm 10,8 km/h (2 Bft) W-NW 294 ° 0 min 0,000 mm 2,2 UV-I 285 W/m² 9,4 °C 12,4 °C 17,7 km/h (3 Bft)
22.05.2019 16:26 12,4 °C 82 % 1017,4 hPa 0,0 mm 14,4 km/h (3 Bft) W 280 ° 0 min 0,000 mm 2,2 UV-I 283 W/m² 9,4 °C 12,4 °C 17,7 km/h (3 Bft)
22.05.2019 16:27 12,4 °C 83 % 1017,4 hPa 0,0 mm 9,4 km/h (2 Bft) NW 309 ° 0 min 0,000 mm 2,2 UV-I 283 W/m² 9,6 °C 12,4 °C 16,1 km/h (3 Bft)
22.05.2019 16:28 12,4 °C 82 % 1017,4 hPa 0,0 mm 7,7 km/h (2 Bft) W-NW 292 ° 0 min 0,000 mm 2,2 UV-I 288 W/m² 9,4 °C 12,4 °C 14,5 km/h (3 Bft)
22.05.2019 16:29 12,4 °C 83 % 1017,4 hPa 0,0 mm 8,7 km/h (2 Bft) W-SW 254 ° 0 min 0,000 mm 2,2 UV-I 294 W/m² 9,6 °C 12,4 °C 14,5 km/h (3 Bft)
22.05.2019 16:30 12,4 °C 83 % 1017,3 hPa 0,0 mm 11,1 km/h (2 Bft) W 274 ° 0 min 0,000 mm 2,3 UV-I 301 W/m² 9,6 °C 12,4 °C 16,1 km/h (3 Bft)
22.05.2019 16:31 12,4 °C 82 % 1017,4 hPa 0,0 mm 10,3 km/h (2 Bft) W-NW 298 ° 0 min 0,000 mm 2,3 UV-I 308 W/m² 9,4 °C 12,4 °C 14,5 km/h (3 Bft)
22.05.2019 16:32 12,4 °C 81 % 1017,4 hPa 0,0 mm 7,6 km/h (2 Bft) W 261 ° 0 min 0,000 mm 2,3 UV-I 308 W/m² 9,2 °C 12,4 °C 14,5 km/h (3 Bft)
22.05.2019 16:33 12,4 °C 82 % 1017,4 hPa 0,0 mm 8,9 km/h (2 Bft) W 272 ° 0 min 0,000 mm 2,2 UV-I 304 W/m² 9,4 °C 12,4 °C 14,5 km/h (3 Bft)
22.05.2019 16:34 12,5 °C 82 % 1017,4 hPa 0,0 mm 9,9 km/h (2 Bft) W-SW 250 ° 0 min 0,000 mm 2,1 UV-I 288 W/m² 9,5 °C 12,5 °C 17,7 km/h (3 Bft)
22.05.2019 16:35 12,6 °C 82 % 1017,4 hPa 0,0 mm 10,1 km/h (2 Bft) N-NW 335 ° 0 min 0,000 mm 2,0 UV-I 272 W/m² 9,6 °C 12,6 °C 17,7 km/h (3 Bft)
22.05.2019 16:36 12,6 °C 82 % 1017,4 hPa 0,0 mm 9,5 km/h (2 Bft) W 269 ° 0 min 0,000 mm 1,9 UV-I 258 W/m² 9,6 °C 12,6 °C 12,9 km/h (3 Bft)
22.05.2019 16:37 12,6 °C 83 % 1017,4 hPa 0,0 mm 10,6 km/h (2 Bft) W-SW 247 ° 0 min 0,000 mm 1,8 UV-I 236 W/m² 9,8 °C 12,6 °C 19,3 km/h (3 Bft)
22.05.2019 16:38 12,6 °C 82 % 1017,4 hPa 0,0 mm 9,9 km/h (2 Bft) SW 226 ° 0 min 0,000 mm 1,7 UV-I 232 W/m² 9,6 °C 12,6 °C 16,1 km/h (3 Bft)
22.05.2019 16:39 12,6 °C 82 % 1017,4 hPa 0,0 mm 6,0 km/h (2 Bft) W 268 ° 0 min 0,000 mm 1,7 UV-I 230 W/m² 9,6 °C 12,6 °C 11,3 km/h (2 Bft)
22.05.2019 16:40 12,6 °C 83 % 1017,4 hPa 0,0 mm 5,8 km/h (2 Bft) W 271 ° 0 min 0,000 mm 1,7 UV-I 236 W/m² 9,8 °C 12,6 °C 9,7 km/h (2 Bft)
22.05.2019 16:41 12,6 °C 83 % 1017,3 hPa 0,0 mm 6,8 km/h (2 Bft) N-NW 346 ° 0 min 0,000 mm 1,7 UV-I 241 W/m² 9,8 °C 12,6 °C 9,7 km/h (2 Bft)
22.05.2019 16:42 12,7 °C 83 % 1017,3 hPa 0,0 mm 3,4 km/h (1 Bft) W-SW 249 ° 0 min 0,000 mm 1,8 UV-I 251 W/m² 9,9 °C 12,7 °C 6,4 km/h (2 Bft)
22.05.2019 16:43 12,6 °C 82 % 1017,3 hPa 0,0 mm 4,7 km/h (1 Bft) NW 315 ° 0 min 0,000 mm 1,8 UV-I 253 W/m² 9,6 °C 12,6 °C 8,0 km/h (2 Bft)
22.05.2019 16:44 12,7 °C 82 % 1017,3 hPa 0,0 mm 6,8 km/h (2 Bft) W 281 ° 0 min 0,000 mm 1,9 UV-I 255 W/m² 9,7 °C 12,7 °C 12,9 km/h (3 Bft)
22.05.2019 16:45 12,7 °C 83 % 1017,3 hPa 0,0 mm 5,0 km/h (1 Bft) W-SW 257 ° 0 min 0,000 mm 1,9 UV-I 260 W/m² 9,9 °C 12,7 °C 8,0 km/h (2 Bft)
22.05.2019 16:46 12,7 °C 81 % 1017,3 hPa 0,0 mm 6,2 km/h (2 Bft) W 268 ° 0 min 0,000 mm 2,0 UV-I 265 W/m² 9,5 °C 12,7 °C 9,7 km/h (2 Bft)
22.05.2019 16:47 12,7 °C 81 % 1017,3 hPa 0,0 mm 6,9 km/h (2 Bft) W-SW 255 ° 0 min 0,000 mm 2,0 UV-I 272 W/m² 9,5 °C 12,7 °C 12,9 km/h (3 Bft)
22.05.2019 16:48 12,7 °C 82 % 1017,2 hPa 0,0 mm 9,0 km/h (2 Bft) W-SW 249 ° 0 min 0,000 mm 2,1 UV-I 287 W/m² 9,7 °C 12,7 °C 14,5 km/h (3 Bft)
22.05.2019 16:49 12,7 °C 82 % 1017,2 hPa 0,0 mm 7,0 km/h (2 Bft) W 277 ° 0 min 0,000 mm 2,1 UV-I 295 W/m² 9,7 °C 12,7 °C 11,3 km/h (2 Bft)
22.05.2019 16:50 12,8 °C 82 % 1017,2 hPa 0,0 mm 9,6 km/h (2 Bft) W 261 ° 0 min 0,000 mm 2,1 UV-I 299 W/m² 9,8 °C 12,8 °C 16,1 km/h (3 Bft)
22.05.2019 16:51 12,8 °C 81 % 1017,2 hPa 0,0 mm 8,0 km/h (2 Bft) NW 318 ° 0 min 0,000 mm 2,1 UV-I 295 W/m² 9,6 °C 12,8 °C 19,3 km/h (3 Bft)
22.05.2019 16:52 12,8 °C 82 % 1017,2 hPa 0,0 mm 7,7 km/h (2 Bft) W 281 ° 0 min 0,000 mm 2,1 UV-I 297 W/m² 9,8 °C 12,8 °C 11,3 km/h (2 Bft)
22.05.2019 16:53 12,9 °C 82 % 1017,2 hPa 0,0 mm 5,6 km/h (1 Bft) W-NW 298 ° 0 min 0,000 mm 2,0 UV-I 290 W/m² 9,9 °C 12,9 °C 11,3 km/h (2 Bft)
22.05.2019 16:54 12,9 °C 83 % 1017,3 hPa 0,0 mm 10,0 km/h (2 Bft) W 263 ° 0 min 0,000 mm 2,0 UV-I 272 W/m² 10,1 °C 12,9 °C 17,7 km/h (3 Bft)
22.05.2019 16:55 12,9 °C 82 % 1017,3 hPa 0,0 mm 9,9 km/h (2 Bft) W 261 ° 0 min 0,000 mm 1,9 UV-I 269 W/m² 9,9 °C 12,9 °C 17,7 km/h (3 Bft)
22.05.2019 16:56 13,0 °C 81 % 1017,3 hPa 0,0 mm 10,2 km/h (2 Bft) W-NW 299 ° 0 min 0,000 mm 1,9 UV-I 265 W/m² 9,8 °C 13,0 °C 17,7 km/h (3 Bft)
22.05.2019 16:57 13,0 °C 81 % 1017,3 hPa 0,0 mm 5,3 km/h (1 Bft) W-SW 252 ° 0 min 0,000 mm 1,9 UV-I 265 W/m² 9,8 °C 13,0 °C 8,0 km/h (2 Bft)
22.05.2019 16:58 12,9 °C 80 % 1017,3 hPa 0,0 mm 8,0 km/h (2 Bft) W 263 ° 0 min 0,000 mm 1,9 UV-I 265 W/m² 9,5 °C 12,9 °C 12,9 km/h (3 Bft)
22.05.2019 16:59 12,9 °C 80 % 1017,3 hPa 0,0 mm 6,7 km/h (2 Bft) W-NW 290 ° 0 min 0,000 mm 1,9 UV-I 267 W/m² 9,5 °C 12,9 °C 11,3 km/h (2 Bft)
22.05.2019 17:00 12,9 °C 80 % 1017,3 hPa 0,0 mm 5,4 km/h (1 Bft) NW 313 ° 0 min 0,000 mm 1,8 UV-I 258 W/m² 9,5 °C 12,9 °C 11,3 km/h (2 Bft)
22.05.2019 17:01 12,9 °C 80 % 1017,3 hPa 0,0 mm 5,0 km/h (1 Bft) W 281 ° 0 min 0,152 mm 1,8 UV-I 255 W/m² 9,5 °C 12,9 °C 12,9 km/h (3 Bft)
22.05.2019 17:02 12,9 °C 82 % 1017,3 hPa 0,0 mm 8,1 km/h (2 Bft) W-SW 250 ° 0 min 0,000 mm 1,7 UV-I 244 W/m² 9,9 °C 12,9 °C 11,3 km/h (2 Bft)
22.05.2019 17:03 12,9 °C 82 % 1017,3 hPa 0,0 mm 9,0 km/h (2 Bft) W 269 ° 0 min 0,000 mm 1,7 UV-I 234 W/m² 9,9 °C 12,9 °C 14,5 km/h (3 Bft)
22.05.2019 17:04 12,9 °C 81 % 1017,3 hPa 0,0 mm 7,5 km/h (2 Bft) W-SW 258 ° 0 min 0,000 mm 1,6 UV-I 221 W/m² 9,7 °C 12,9 °C 12,9 km/h (3 Bft)
22.05.2019 17:05 12,9 °C 81 % 1017,3 hPa 0,0 mm 7,7 km/h (2 Bft) W 259 ° 0 min 0,000 mm 1,5 UV-I 207 W/m² 9,7 °C 12,9 °C 12,9 km/h (3 Bft)
22.05.2019 17:06 12,9 °C 80 % 1017,4 hPa 0,0 mm 8,9 km/h (2 Bft) W-NW 290 ° 0 min 0,000 mm 1,4 UV-I 176 W/m² 9,5 °C 12,9 °C 16,1 km/h (3 Bft)
22.05.2019 17:07 12,8 °C 81 % 1017,4 hPa 0,0 mm 8,8 km/h (2 Bft) W-NW 295 ° 0 min 0,000 mm 1,1 UV-I 160 W/m² 9,6 °C 12,8 °C 16,1 km/h (3 Bft)
22.05.2019 17:08 12,8 °C 80 % 1017,4 hPa 0,0 mm 8,5 km/h (2 Bft) N-NW 344 ° 0 min 0,000 mm 1,1 UV-I 149 W/m² 9,4 °C 12,8 °C 12,9 km/h (3 Bft)
22.05.2019 17:09 12,8 °C 81 % 1017,4 hPa 0,0 mm 6,4 km/h (2 Bft) W 268 ° 0 min 0,000 mm 1,0 UV-I 141 W/m² 9,6 °C 12,8 °C 11,3 km/h (2 Bft)
22.05.2019 17:10 12,8 °C 81 % 1017,4 hPa 0,0 mm 6,8 km/h (2 Bft) W-SW 252 ° 0 min 0,000 mm 1,0 UV-I 137 W/m² 9,6 °C 12,8 °C 14,5 km/h (3 Bft)
22.05.2019 17:11 12,7 °C 81 % 1017,4 hPa 0,0 mm 8,2 km/h (2 Bft) W-NW 292 ° 0 min 0,000 mm 1,0 UV-I 139 W/m² 9,5 °C 12,7 °C 14,5 km/h (3 Bft)
22.05.2019 17:12 12,7 °C 81 % 1017,3 hPa 0,0 mm 5,1 km/h (1 Bft) W 271 ° 0 min 0,000 mm 1,0 UV-I 149 W/m² 9,5 °C 12,7 °C 8,0 km/h (2 Bft)
22.05.2019 17:13 12,7 °C 82 % 1017,4 hPa 0,0 mm 6,6 km/h (2 Bft) W-NW 296 ° 0 min 0,000 mm 1,1 UV-I 160 W/m² 9,7 °C 12,7 °C 9,7 km/h (2 Bft)
22.05.2019 17:14 12,7 °C 82 % 1017,3 hPa 0,0 mm 7,0 km/h (2 Bft) W 277 ° 0 min 0,000 mm 1,2 UV-I 171 W/m² 9,7 °C 12,7 °C 11,3 km/h (2 Bft)
22.05.2019 17:15 12,7 °C 82 % 1017,3 hPa 0,0 mm 6,5 km/h (2 Bft) NW 311 ° 0 min 0,000 mm 1,2 UV-I 181 W/m² 9,7 °C 12,7 °C 8,0 km/h (2 Bft)
22.05.2019 17:16 12,7 °C 81 % 1017,3 hPa 0,0 mm 8,5 km/h (2 Bft) W-NW 286 ° 0 min 0,000 mm 1,3 UV-I 190 W/m² 9,5 °C 12,7 °C 16,1 km/h (3 Bft)
22.05.2019 17:17 12,7 °C 80 % 1017,5 hPa 0,0 mm 8,4 km/h (2 Bft) W-NW 287 ° 0 min 0,000 mm 1,3 UV-I 188 W/m² 9,3 °C 12,7 °C 12,9 km/h (3 Bft)
22.05.2019 17:18 12,7 °C 80 % 1017,4 hPa 0,0 mm 8,9 km/h (2 Bft) SW 236 ° 0 min 0,000 mm 1,2 UV-I 155 W/m² 9,3 °C 12,7 °C 14,5 km/h (3 Bft)
22.05.2019 17:19 12,7 °C 80 % 1017,5 hPa 0,0 mm 11,7 km/h (2 Bft) W 265 ° 0 min 0,000 mm 0,9 UV-I 135 W/m² 9,3 °C 12,7 °C 14,5 km/h (3 Bft)
22.05.2019 17:20 12,6 °C 80 % 1017,5 hPa 0,0 mm 11,8 km/h (2 Bft) W-NW 290 ° 0 min 0,000 mm 0,8 UV-I 121 W/m² 9,2 °C 12,6 °C 17,7 km/h (3 Bft)
22.05.2019 17:21 12,6 °C 80 % 1017,4 hPa 0,0 mm 10,6 km/h (2 Bft) W-NW 302 ° 0 min 0,000 mm 0,8 UV-I 111 W/m² 9,2 °C 12,6 °C 14,5 km/h (3 Bft)
22.05.2019 17:22 12,6 °C 81 % 1017,4 hPa 0,0 mm 8,0 km/h (2 Bft) W-NW 287 ° 0 min 0,000 mm 0,7 UV-I 107 W/m² 9,4 °C 12,6 °C 11,3 km/h (2 Bft)
22.05.2019 17:23 12,6 °C 81 % 1017,4 hPa 0,0 mm 4,4 km/h (1 Bft) W-NW 285 ° 0 min 0,000 mm 0,7 UV-I 105 W/m² 9,4 °C 12,6 °C 6,4 km/h (2 Bft)
22.05.2019 17:24 12,5 °C 81 % 1017,4 hPa 0,0 mm 5,5 km/h (1 Bft) W 268 ° 0 min 0,000 mm 0,7 UV-I 100 W/m² 9,3 °C 12,5 °C 11,3 km/h (2 Bft)
22.05.2019 17:25 12,5 °C 82 % 1017,4 hPa 0,0 mm 8,1 km/h (2 Bft) W-NW 286 ° 0 min 0,000 mm 0,7 UV-I 104 W/m² 9,5 °C 12,5 °C 12,9 km/h (3 Bft)
22.05.2019 17:26 12,4 °C 81 % 1017,4 hPa 0,0 mm 7,6 km/h (2 Bft) W-NW 298 ° 0 min 0,000 mm 0,8 UV-I 105 W/m² 9,2 °C 12,4 °C 11,3 km/h (2 Bft)
22.05.2019 17:27 12,4 °C 81 % 1017,4 hPa 0,0 mm 7,2 km/h (2 Bft) W-SW 250 ° 0 min 0,000 mm 0,8 UV-I 105 W/m² 9,2 °C 12,4 °C 12,9 km/h (3 Bft)
22.05.2019 17:28 12,4 °C 82 % 1017,4 hPa 0,0 mm 6,2 km/h (2 Bft) W 280 ° 0 min 0,000 mm 0,8 UV-I 109 W/m² 9,4 °C 12,4 °C 11,3 km/h (2 Bft)
22.05.2019 17:29 12,4 °C 82 % 1017,4 hPa 0,0 mm 7,2 km/h (2 Bft) W-SW 249 ° 0 min 0,000 mm 0,8 UV-I 109 W/m² 9,4 °C 12,4 °C 12,9 km/h (3 Bft)
22.05.2019 17:30 12,4 °C 82 % 1017,5 hPa 0,0 mm 10,4 km/h (2 Bft) W-SW 257 ° 0 min 0,000 mm 0,7 UV-I 100 W/m² 9,4 °C 12,4 °C 14,5 km/h (3 Bft)
22.05.2019 17:31 12,4 °C 82 % 1017,4 hPa 0,0 mm 5,5 km/h (1 Bft) W-NW 300 ° 0 min 0,000 mm 0,7 UV-I 98 W/m² 9,4 °C 12,4 °C 11,3 km/h (2 Bft)
22.05.2019 17:32 12,4 °C 82 % 1017,4 hPa 0,0 mm 8,6 km/h (2 Bft) W-SW 252 ° 0 min 0,000 mm 0,7 UV-I 100 W/m² 9,4 °C 12,4 °C 14,5 km/h (3 Bft)
22.05.2019 17:33 12,3 °C 81 % 1017,4 hPa 0,0 mm 9,7 km/h (2 Bft) W 279 ° 0 min 0,000 mm 0,7 UV-I 102 W/m² 9,1 °C 12,3 °C 14,5 km/h (3 Bft)
22.05.2019 17:34 12,3 °C 82 % 1017,4 hPa 0,0 mm 4,8 km/h (1 Bft) W-SW 247 ° 0 min 0,000 mm 0,7 UV-I 104 W/m² 9,3 °C 12,3 °C 11,3 km/h (2 Bft)
22.05.2019 17:35 12,3 °C 82 % 1017,4 hPa 0,0 mm 9,1 km/h (2 Bft) W-SW 257 ° 0 min 0,000 mm 0,7 UV-I 104 W/m² 9,3 °C 12,3 °C 14,5 km/h (3 Bft)
22.05.2019 17:36 12,3 °C 82 % 1017,4 hPa 0,0 mm 8,3 km/h (2 Bft) W 272 ° 0 min 0,000 mm 0,7 UV-I 98 W/m² 9,3 °C 12,3 °C 11,3 km/h (2 Bft)
22.05.2019 17:37 12,3 °C 81 % 1017,4 hPa 0,0 mm 7,2 km/h (2 Bft) W 272 ° 0 min 0,000 mm 0,7 UV-I 93 W/m² 9,1 °C 12,3 °C 11,3 km/h (2 Bft)
22.05.2019 17:38 12,3 °C 81 % 1017,4 hPa 0,0 mm 6,8 km/h (2 Bft) W 273 ° 0 min 0,000 mm 0,6 UV-I 88 W/m² 9,1 °C 12,3 °C 11,3 km/h (2 Bft)
22.05.2019 17:39 12,3 °C 82 % 1017,4 hPa 0,0 mm 5,2 km/h (1 Bft) W 277 ° 0 min 0,000 mm 0,6 UV-I 83 W/m² 9,3 °C 12,3 °C 9,7 km/h (2 Bft)
22.05.2019 17:40 12,3 °C 82 % 1017,4 hPa 0,0 mm 3,9 km/h (1 Bft) W 266 ° 0 min 0,000 mm 0,6 UV-I 79 W/m² 9,3 °C 12,3 °C 6,4 km/h (2 Bft)
22.05.2019 17:41 12,3 °C 82 % 1017,4 hPa 0,0 mm 5,9 km/h (2 Bft) W-NW 288 ° 0 min 0,000 mm 0,5 UV-I 70 W/m² 9,3 °C 12,3 °C 9,7 km/h (2 Bft)
22.05.2019 17:42 12,2 °C 82 % 1017,4 hPa 0,0 mm 5,5 km/h (1 Bft) W 273 ° 0 min 0,000 mm 0,5 UV-I 67 W/m² 9,2 °C 12,2 °C 8,0 km/h (2 Bft)
22.05.2019 17:43 12,2 °C 83 % 1017,4 hPa 0,0 mm 2,1 km/h (1 Bft) W-NW 302 ° 0 min 0,000 mm 0,5 UV-I 65 W/m² 9,4 °C 12,2 °C 4,8 km/h (1 Bft)
22.05.2019 17:44 12,2 °C 83 % 1017,4 hPa 0,0 mm 5,4 km/h (1 Bft) W 269 ° 0 min 0,000 mm 0,5 UV-I 67 W/m² 9,4 °C 12,2 °C 9,7 km/h (2 Bft)
22.05.2019 17:45 12,2 °C 83 % 1017,4 hPa 0,0 mm 6,9 km/h (2 Bft) W-SW 250 ° 0 min 0,000 mm 0,5 UV-I 69 W/m² 9,4 °C 12,2 °C 11,3 km/h (2 Bft)
22.05.2019 17:46 12,2 °C 83 % 1017,4 hPa 0,0 mm 4,0 km/h (1 Bft) W 259 ° 0 min 0,000 mm 0,5 UV-I 74 W/m² 9,4 °C 12,2 °C 6,4 km/h (2 Bft)
22.05.2019 17:47 12,2 °C 83 % 1017,4 hPa 0,0 mm 5,4 km/h (1 Bft) SW 232 ° 0 min 0,000 mm 0,6 UV-I 84 W/m² 9,4 °C 12,2 °C 9,7 km/h (2 Bft)
22.05.2019 17:48 12,1 °C 83 % 1017,4 hPa 0,0 mm 4,2 km/h (1 Bft) W 267 ° 0 min 0,000 mm 0,6 UV-I 91 W/m² 9,3 °C 12,1 °C 6,4 km/h (2 Bft)
22.05.2019 17:49 12,1 °C 83 % 1017,3 hPa 0,0 mm 3,8 km/h (1 Bft) W 266 ° 0 min 0,000 mm 0,7 UV-I 97 W/m² 9,3 °C 12,1 °C 4,8 km/h (1 Bft)
22.05.2019 17:50 12,2 °C 84 % 1017,3 hPa 0,0 mm 3,0 km/h (1 Bft) W 259 ° 0 min 0,000 mm 0,7 UV-I 102 W/m² 9,6 °C 12,2 °C 4,8 km/h (1 Bft)
22.05.2019 17:51 12,2 °C 84 % 1017,3 hPa 0,0 mm 1,1 km/h (1 Bft) W-SW 258 ° 0 min 0,000 mm 0,7 UV-I 102 W/m² 9,6 °C 12,2 °C 3,2 km/h (1 Bft)
22.05.2019 17:52 12,1 °C 84 % 1017,3 hPa 0,0 mm 2,5 km/h (1 Bft) W-SW 257 ° 0 min 0,000 mm 0,7 UV-I 100 W/m² 9,5 °C 12,1 °C 4,8 km/h (1 Bft)
22.05.2019 17:53 12,1 °C 83 % 1017,3 hPa 0,0 mm 3,4 km/h (1 Bft) W-SW 257 ° 0 min 0,000 mm 0,7 UV-I 97 W/m² 9,3 °C 12,1 °C 4,8 km/h (1 Bft)
22.05.2019 17:54 12,2 °C 84 % 1017,3 hPa 0,0 mm 1,8 km/h (1 Bft) W-SW 257 ° 0 min 0,000 mm 0,7 UV-I 97 W/m² 9,6 °C 12,2 °C 3,2 km/h (1 Bft)
22.05.2019 17:55 12,2 °C 84 % 1017,3 hPa 0,0 mm 3,7 km/h (1 Bft) W 267 ° 0 min 0,000 mm 0,7 UV-I 97 W/m² 9,6 °C 12,2 °C 6,4 km/h (2 Bft)
22.05.2019 17:56 12,2 °C 85 % 1017,3 hPa 0,0 mm 3,2 km/h (1 Bft) W-SW 240 ° 0 min 0,000 mm 0,7 UV-I 97 W/m² 9,8 °C 12,2 °C 6,4 km/h (2 Bft)
22.05.2019 17:57 12,2 °C 84 % 1017,3 hPa 0,0 mm 4,6 km/h (1 Bft) W-SW 243 ° 0 min 0,000 mm 0,7 UV-I 98 W/m² 9,6 °C 12,2 °C 6,4 km/h (2 Bft)
22.05.2019 17:58 12,2 °C 83 % 1017,3 hPa 0,0 mm 4,8 km/h (1 Bft) W-SW 246 ° 0 min 0,000 mm 0,7 UV-I 102 W/m² 9,4 °C 12,2 °C 6,4 km/h (2 Bft)
22.05.2019 17:59 12,2 °C 84 % 1017,3 hPa 0,0 mm 3,8 km/h (1 Bft) W-SW 254 ° 0 min 0,000 mm 0,7 UV-I 109 W/m² 9,6 °C 12,2 °C 6,4 km/h (2 Bft)
22.05.2019 18:00 12,2 °C 84 % 1017,3 hPa 0,0 mm 3,5 km/h (1 Bft) W-SW 253 ° 0 min 0,000 mm 0,8 UV-I 113 W/m² 9,6 °C 12,2 °C 4,8 km/h (1 Bft)
22.05.2019 18:01 12,2 °C 84 % 1017,3 hPa 0,0 mm 3,9 km/h (1 Bft) W-SW 245 ° 0 min 0,076 mm 0,8 UV-I 116 W/m² 9,6 °C 12,2 °C 4,8 km/h (1 Bft)
22.05.2019 18:02 12,2 °C 83 % 1017,3 hPa 0,0 mm 2,9 km/h (1 Bft) SW 229 ° 0 min 0,000 mm 0,8 UV-I 120 W/m² 9,4 °C 12,2 °C 6,4 km/h (2 Bft)
22.05.2019 18:03 12,2 °C 83 % 1017,3 hPa 0,0 mm 2,3 km/h (1 Bft) W-SW 252 ° 0 min 0,000 mm 0,8 UV-I 121 W/m² 9,4 °C 12,2 °C 6,4 km/h (2 Bft)
22.05.2019 18:04 12,2 °C 83 % 1017,3 hPa 0,0 mm 2,9 km/h (1 Bft) W-SW 250 ° 0 min 0,000 mm 0,8 UV-I 120 W/m² 9,4 °C 12,2 °C 6,4 km/h (2 Bft)
22.05.2019 18:05 12,3 °C 83 % 1017,2 hPa 0,0 mm 4,6 km/h (1 Bft) W-SW 252 ° 0 min 0,000 mm 0,8 UV-I 116 W/m² 9,5 °C 12,3 °C 9,7 km/h (2 Bft)
22.05.2019 18:06 12,3 °C 84 % 1017,2 hPa 0,0 mm 3,6 km/h (1 Bft) W-SW 246 ° 0 min 0,000 mm 0,8 UV-I 114 W/m² 9,7 °C 12,3 °C 6,4 km/h (2 Bft)
22.05.2019 18:07 12,3 °C 84 % 1017,2 hPa 0,0 mm 5,6 km/h (1 Bft) SW 236 ° 0 min 0,000 mm 0,8 UV-I 111 W/m² 9,7 °C 12,3 °C 9,7 km/h (2 Bft)
22.05.2019 18:08 12,3 °C 84 % 1017,2 hPa 0,0 mm 5,2 km/h (1 Bft) W 269 ° 0 min 0,000 mm 0,8 UV-I 109 W/m² 9,7 °C 12,3 °C 6,4 km/h (2 Bft)
22.05.2019 18:09 12,3 °C 84 % 1017,2 hPa 0,0 mm 4,3 km/h (1 Bft) W 271 ° 0 min 0,000 mm 0,7 UV-I 107 W/m² 9,7 °C 12,3 °C 6,4 km/h (2 Bft)
22.05.2019 18:10 12,3 °C 84 % 1017,2 hPa 0,0 mm 1,9 km/h (1 Bft) W 269 ° 0 min 0,000 mm 0,7 UV-I 105 W/m² 9,7 °C 12,3 °C 4,8 km/h (1 Bft)
22.05.2019 18:11 12,3 °C 84 % 1017,2 hPa 0,0 mm 5,9 km/h (2 Bft) W 268 ° 0 min 0,000 mm 0,7 UV-I 104 W/m² 9,7 °C 12,3 °C 9,7 km/h (2 Bft)
22.05.2019 18:12 12,3 °C 84 % 1017,2 hPa 0,0 mm 3,6 km/h (1 Bft) SW 234 ° 0 min 0,000 mm 0,7 UV-I 104 W/m² 9,7 °C 12,3 °C 6,4 km/h (2 Bft)
22.05.2019 18:13 12,3 °C 83 % 1017,2 hPa 0,0 mm 6,6 km/h (2 Bft) W-SW 254 ° 0 min 0,000 mm 0,7 UV-I 105 W/m² 9,5 °C 12,3 °C 12,9 km/h (3 Bft)
22.05.2019 18:14 12,3 °C 83 % 1017,2 hPa 0,0 mm 5,0 km/h (1 Bft) W-SW 243 ° 0 min 0,000 mm 0,7 UV-I 105 W/m² 9,5 °C 12,3 °C 8,0 km/h (2 Bft)
22.05.2019 18:15 12,3 °C 83 % 1017,3 hPa 0,0 mm 3,1 km/h (1 Bft) W-SW 244 ° 0 min 0,000 mm 0,7 UV-I 107 W/m² 9,5 °C 12,3 °C 4,8 km/h (1 Bft)
22.05.2019 18:16 12,3 °C 83 % 1017,2 hPa 0,0 mm 4,7 km/h (1 Bft) W-SW 255 ° 0 min 0,000 mm 0,7 UV-I 109 W/m² 9,5 °C 12,3 °C 6,4 km/h (2 Bft)
22.05.2019 18:17 12,4 °C 83 % 1017,2 hPa 0,0 mm 5,4 km/h (1 Bft) W 267 ° 0 min 0,000 mm 0,7 UV-I 111 W/m² 9,6 °C 12,4 °C 9,7 km/h (2 Bft)
22.05.2019 18:18 12,3 °C 83 % 1017,2 hPa 0,0 mm 2,5 km/h (1 Bft) W 267 ° 0 min 0,000 mm 0,7 UV-I 111 W/m² 9,5 °C 12,3 °C 6,4 km/h (2 Bft)
22.05.2019 18:19 12,4 °C 83 % 1017,2 hPa 0,0 mm 1,1 km/h (1 Bft) W 267 ° 0 min 0,000 mm 0,8 UV-I 111 W/m² 9,6 °C 12,4 °C 3,2 km/h (1 Bft)
22.05.2019 18:20 12,4 °C 83 % 1017,2 hPa 0,0 mm 3,8 km/h (1 Bft) W 267 ° 0 min 0,000 mm 0,8 UV-I 109 W/m² 9,6 °C 12,4 °C 4,8 km/h (1 Bft)
22.05.2019 18:21 12,4 °C 83 % 1017,2 hPa 0,0 mm 3,7 km/h (1 Bft) W 267 ° 0 min 0,000 mm 0,8 UV-I 109 W/m² 9,6 °C 12,4 °C 4,8 km/h (1 Bft)
22.05.2019 18:22 12,4 °C 83 % 1017,2 hPa 0,0 mm 3,6 km/h (1 Bft) W 267 ° 0 min 0,000 mm 0,8 UV-I 109 W/m² 9,6 °C 12,4 °C 6,4 km/h (2 Bft)
22.05.2019 18:23 12,4 °C 83 % 1017,2 hPa 0,0 mm 3,2 km/h (1 Bft) W 267 ° 0 min 0,000 mm 0,7 UV-I 109 W/m² 9,6 °C 12,4 °C 4,8 km/h (1 Bft)
22.05.2019 18:24 12,4 °C 83 % 1017,2 hPa 0,0 mm 6,7 km/h (2 Bft) W-NW 298 ° 0 min 0,000 mm 0,7 UV-I 107 W/m² 9,6 °C 12,4 °C 12,9 km/h (3 Bft)
22.05.2019 18:25 12,4 °C 81 % 1017,2 hPa 0,0 mm 7,3 km/h (2 Bft) S-SW 210 ° 0 min 0,000 mm 0,7 UV-I 105 W/m² 9,2 °C 12,4 °C 12,9 km/h (3 Bft)
22.05.2019 18:26 12,4 °C 81 % 1017,3 hPa 0,0 mm 0,5 km/h (0 Bft) S-SW 210 ° 0 min 0,000 mm 0,7 UV-I 104 W/m² 9,2 °C 12,4 °C 3,2 km/h (1 Bft)
22.05.2019 18:27 12,4 °C 81 % 1017,2 hPa 0,0 mm 3,0 km/h (1 Bft) W-SW 254 ° 0 min 0,000 mm 0,7 UV-I 102 W/m² 9,2 °C 12,4 °C 4,8 km/h (1 Bft)
22.05.2019 18:28 12,4 °C 81 % 1017,3 hPa 0,0 mm 2,3 km/h (1 Bft) W-SW 250 ° 0 min 0,000 mm 0,7 UV-I 98 W/m² 9,2 °C 12,4 °C 4,8 km/h (1 Bft)
22.05.2019 18:29 12,4 °C 80 % 1017,2 hPa 0,0 mm 4,6 km/h (1 Bft) W 272 ° 0 min 0,000 mm 0,7 UV-I 97 W/m² 9,0 °C 12,4 °C 6,4 km/h (2 Bft)
22.05.2019 18:30 12,4 °C 81 % 1017,3 hPa 0,0 mm 3,8 km/h (1 Bft) S-SW 192 ° 0 min 0,000 mm 0,7 UV-I 97 W/m² 9,2 °C 12,4 °C 6,4 km/h (2 Bft)
22.05.2019 18:31 12,4 °C 81 % 1017,2 hPa 0,0 mm 5,2 km/h (1 Bft) W-NW 291 ° 0 min 0,000 mm 0,6 UV-I 95 W/m² 9,2 °C 12,4 °C 9,7 km/h (2 Bft)
22.05.2019 18:32 12,4 °C 80 % 1017,3 hPa 0,0 mm 5,5 km/h (1 Bft) W-SW 256 ° 0 min 0,000 mm 0,6 UV-I 95 W/m² 9,0 °C 12,4 °C 9,7 km/h (2 Bft)
22.05.2019 18:33 12,4 °C 81 % 1017,3 hPa 0,0 mm 4,2 km/h (1 Bft) SW 234 ° 0 min 0,000 mm 0,6 UV-I 95 W/m² 9,2 °C 12,4 °C 8,0 km/h (2 Bft)
22.05.2019 18:34 12,4 °C 79 % 1017,2 hPa 0,0 mm 4,7 km/h (1 Bft) W-NW 294 ° 0 min 0,000 mm 0,6 UV-I 95 W/m² 8,9 °C 12,4 °C 8,0 km/h (2 Bft)
22.05.2019 18:35 12,4 °C 79 % 1017,3 hPa 0,0 mm 2,6 km/h (1 Bft) W-SW 251 ° 0 min 0,000 mm 0,6 UV-I 97 W/m² 8,9 °C 12,4 °C 3,2 km/h (1 Bft)
22.05.2019 18:36 12,4 °C 80 % 1017,3 hPa 0,0 mm 5,8 km/h (2 Bft) W-SW 245 ° 0 min 0,000 mm 0,6 UV-I 98 W/m² 9,0 °C 12,4 °C 11,3 km/h (2 Bft)
22.05.2019 18:37 12,4 °C 80 % 1017,3 hPa 0,0 mm 4,8 km/h (1 Bft) W-SW 258 ° 0 min 0,000 mm 0,6 UV-I 98 W/m² 9,0 °C 12,4 °C 9,7 km/h (2 Bft)
22.05.2019 18:38 12,4 °C 79 % 1017,3 hPa 0,0 mm 6,2 km/h (2 Bft) W 261 ° 0 min 0,000 mm 0,6 UV-I 98 W/m² 8,9 °C 12,4 °C 9,7 km/h (2 Bft)
22.05.2019 18:39 12,4 °C 80 % 1017,3 hPa 0,0 mm 6,2 km/h (2 Bft) SW 233 ° 0 min 0,000 mm 0,6 UV-I 98 W/m² 9,0 °C 12,4 °C 14,5 km/h (3 Bft)
22.05.2019 18:40 12,4 °C 80 % 1017,3 hPa 0,0 mm 4,8 km/h (1 Bft) SW 218 ° 0 min 0,000 mm 0,6 UV-I 98 W/m² 9,0 °C 12,4 °C 11,3 km/h (2 Bft)
22.05.2019 18:41 12,4 °C 78 % 1017,2 hPa 0,0 mm 5,2 km/h (1 Bft) W-SW 245 ° 0 min 0,000 mm 0,6 UV-I 97 W/m² 8,7 °C 12,4 °C 9,7 km/h (2 Bft)
22.05.2019 18:42 12,4 °C 79 % 1017,2 hPa 0,0 mm 3,1 km/h (1 Bft) W-SW 244 ° 0 min 0,000 mm 0,6 UV-I 97 W/m² 8,9 °C 12,4 °C 4,8 km/h (1 Bft)
22.05.2019 18:43 12,4 °C 81 % 1017,2 hPa 0,0 mm 4,3 km/h (1 Bft) W 269 ° 0 min 0,000 mm 0,6 UV-I 95 W/m² 9,2 °C 12,4 °C 9,7 km/h (2 Bft)
22.05.2019 18:44 12,4 °C 80 % 1017,2 hPa 0,0 mm 5,4 km/h (1 Bft) W 265 ° 0 min 0,000 mm 0,6 UV-I 95 W/m² 9,0 °C 12,4 °C 6,4 km/h (2 Bft)
22.05.2019 18:45 12,3 °C 80 % 1017,2 hPa 0,0 mm 3,5 km/h (1 Bft) S-SW 203 ° 0 min 0,000 mm 0,6 UV-I 91 W/m² 8,9 °C 12,3 °C 6,4 km/h (2 Bft)
22.05.2019 18:46 12,3 °C 80 % 1017,2 hPa 0,0 mm 2,7 km/h (1 Bft) W-SW 248 ° 0 min 0,000 mm 0,5 UV-I 88 W/m² 8,9 °C 12,3 °C 3,2 km/h (1 Bft)
22.05.2019 18:47 12,3 °C 79 % 1017,2 hPa 0,0 mm 4,3 km/h (1 Bft) W-SW 257 ° 0 min 0,000 mm 0,5 UV-I 86 W/m² 8,8 °C 12,3 °C 6,4 km/h (2 Bft)
22.05.2019 18:48 12,3 °C 79 % 1017,2 hPa 0,0 mm 1,5 km/h (1 Bft) W-SW 257 ° 0 min 0,000 mm 0,5 UV-I 83 W/m² 8,8 °C 12,3 °C 3,2 km/h (1 Bft)
22.05.2019 18:49 12,4 °C 81 % 1017,2 hPa 0,0 mm 1,4 km/h (1 Bft) W-SW 257 ° 0 min 0,000 mm 0,5 UV-I 81 W/m² 9,2 °C 12,4 °C 3,2 km/h (1 Bft)
22.05.2019 18:50 12,3 °C 81 % 1017,2 hPa 0,0 mm 0,0 km/h (0 Bft) W-SW 257 ° 0 min 0,000 mm 0,5 UV-I 79 W/m² 9,1 °C 12,3 °C 0,0 km/h (0 Bft)
22.05.2019 18:51 12,3 °C 82 % 1017,2 hPa 0,0 mm 0,3 km/h (0 Bft) W-SW 257 ° 0 min 0,000 mm 0,5 UV-I 79 W/m² 9,3 °C 12,3 °C 1,6 km/h (1 Bft)
22.05.2019 18:52 12,3 °C 82 % 1017,2 hPa 0,0 mm 2,5 km/h (1 Bft) W 265 ° 0 min 0,000 mm 0,5 UV-I 77 W/m² 9,3 °C 12,3 °C 4,8 km/h (1 Bft)
22.05.2019 18:53 12,3 °C 81 % 1017,2 hPa 0,0 mm 2,6 km/h (1 Bft) W 263 ° 0 min 0,000 mm 0,5 UV-I 77 W/m² 9,1 °C 12,3 °C 4,8 km/h (1 Bft)
22.05.2019 18:54 12,3 °C 81 % 1017,3 hPa 0,0 mm 1,4 km/h (1 Bft) W 263 ° 0 min 0,000 mm 0,5 UV-I 77 W/m² 9,1 °C 12,3 °C 3,2 km/h (1 Bft)
22.05.2019 18:55 12,3 °C 81 % 1017,3 hPa 0,0 mm 2,8 km/h (1 Bft) W 263 ° 0 min 0,000 mm 0,0 UV-I 77 W/m² 9,1 °C 12,3 °C 4,8 km/h (1 Bft)
22.05.2019 18:56 12,3 °C 82 % 1017,2 hPa 0,0 mm 1,1 km/h (1 Bft) W 263 ° 0 min 0,000 mm 0,0 UV-I 76 W/m² 9,3 °C 12,3 °C 3,2 km/h (1 Bft)
22.05.2019 18:57 12,3 °C 81 % 1017,2 hPa 0,0 mm 0,0 km/h (0 Bft) W 263 ° 0 min 0,000 mm 0,0 UV-I 76 W/m² 9,1 °C 12,3 °C 0,0 km/h (0 Bft)
22.05.2019 18:58 12,3 °C 81 % 1017,2 hPa 0,0 mm 0,1 km/h (0 Bft) W 263 ° 0 min 0,000 mm 0,0 UV-I 74 W/m² 9,1 °C 12,3 °C 1,6 km/h (1 Bft)
22.05.2019 18:59 12,3 °C 80 % 1017,3 hPa 0,0 mm 0,1 km/h (0 Bft) W 263 ° 0 min 0,000 mm 0,0 UV-I 74 W/m² 8,9 °C 12,3 °C 1,6 km/h (1 Bft)
22.05.2019 19:00 12,2 °C 80 % 1017,3 hPa 0,0 mm 0,0 km/h (0 Bft) W 263 ° 0 min 0,000 mm 0,0 UV-I 72 W/m² 8,9 °C 12,2 °C 0,0 km/h (0 Bft)
22.05.2019 19:01 12,2 °C 80 % 1017,3 hPa 0,0 mm 0,0 km/h (0 Bft) W 263 ° 0 min 0,051 mm 0,0 UV-I 72 W/m² 8,9 °C 12,2 °C 0,0 km/h (0 Bft)
22.05.2019 19:02 12,3 °C 80 % 1017,3 hPa 0,0 mm 0,3 km/h (0 Bft) W 263 ° 0 min 0,000 mm 0,0 UV-I 72 W/m² 8,9 °C 12,3 °C 1,6 km/h (1 Bft)
22.05.2019 19:03 12,2 °C 80 % 1017,3 hPa 0,0 mm 0,5 km/h (0 Bft) W 262 ° 0 min 0,000 mm 0,0 UV-I 70 W/m² 8,9 °C 12,2 °C 1,6 km/h (1 Bft)
22.05.2019 19:04 12,2 °C 80 % 1017,3 hPa 0,0 mm 0,3 km/h (0 Bft) W 262 ° 0 min 0,000 mm 0,0 UV-I 70 W/m² 8,9 °C 12,2 °C 1,6 km/h (1 Bft)
22.05.2019 19:05 12,2 °C 81 % 1017,3 hPa 0,0 mm 1,7 km/h (1 Bft) W 262 ° 0 min 0,000 mm 0,0 UV-I 72 W/m² 9,0 °C 12,2 °C 3,2 km/h (1 Bft)
22.05.2019 19:06 12,2 °C 82 % 1017,3 hPa 0,0 mm 0,5 km/h (0 Bft) W 262 ° 0 min 0,000 mm 0,0 UV-I 70 W/m² 9,2 °C 12,2 °C 1,6 km/h (1 Bft)
22.05.2019 19:07 12,2 °C 81 % 1017,3 hPa 0,0 mm 0,0 km/h (0 Bft) W 262 ° 0 min 0,000 mm 0,0 UV-I 70 W/m² 9,0 °C 12,2 °C 0,0 km/h (0 Bft)
22.05.2019 19:08 12,2 °C 81 % 1017,3 hPa 0,0 mm 0,0 km/h (0 Bft) W 262 ° 0 min 0,000 mm 0,0 UV-I 70 W/m² 9,0 °C 12,2 °C 0,0 km/h (0 Bft)
22.05.2019 19:09 12,2 °C 82 % 1017,3 hPa 0,0 mm 0,0 km/h (0 Bft) W 262 ° 0 min 0,000 mm 0,0 UV-I 69 W/m² 9,2 °C 12,2 °C 0,0 km/h (0 Bft)
22.05.2019 19:10 12,2 °C 81 % 1017,3 hPa 0,0 mm 0,0 km/h (0 Bft) W 262 ° 0 min 0,000 mm 0,0 UV-I 69 W/m² 9,0 °C 12,2 °C 0,0 km/h (0 Bft)
22.05.2019 19:11 12,2 °C 81 % 1017,4 hPa 0,0 mm 2,0 km/h (1 Bft) W 262 ° 0 min 0,000 mm 0,0 UV-I 69 W/m² 9,0 °C 12,2 °C 4,8 km/h (1 Bft)
22.05.2019 19:12 12,2 °C 82 % 1017,4 hPa 0,0 mm 2,0 km/h (1 Bft) W 262 ° 0 min 0,000 mm 0,0 UV-I 69 W/m² 9,2 °C 12,2 °C 3,2 km/h (1 Bft)
22.05.2019 19:13 12,2 °C 82 % 1017,4 hPa 0,0 mm 0,0 km/h (0 Bft) W 262 ° 0 min 0,000 mm 0,0 UV-I 67 W/m² 9,2 °C 12,2 °C 0,0 km/h (0 Bft)
22.05.2019 19:14 12,2 °C 82 % 1017,4 hPa 0,0 mm 0,0 km/h (0 Bft) W 262 ° 0 min 0,000 mm 0,0 UV-I 67 W/m² 9,2 °C 12,2 °C 0,0 km/h (0 Bft)
22.05.2019 19:15 12,2 °C 82 % 1017,4 hPa 0,0 mm 1,3 km/h (1 Bft) SW 220 ° 0 min 0,000 mm 0,0 UV-I 63 W/m² 9,2 °C 12,2 °C 3,2 km/h (1 Bft)
22.05.2019 19:16 12,1 °C 82 % 1017,4 hPa 0,0 mm 0,1 km/h (0 Bft) SW 220 ° 0 min 0,000 mm 0,0 UV-I 63 W/m² 9,1 °C 12,1 °C 1,6 km/h (1 Bft)
22.05.2019 19:17 12,1 °C 82 % 1017,4 hPa 0,0 mm 0,1 km/h (0 Bft) SW 220 ° 0 min 0,000 mm 0,0 UV-I 63 W/m² 9,1 °C 12,1 °C 1,6 km/h (1 Bft)
22.05.2019 19:18 12,1 °C 83 % 1017,4 hPa 0,0 mm 0,0 km/h (0 Bft) SW 220 ° 0 min 0,000 mm 0,0 UV-I 63 W/m² 9,3 °C 12,1 °C 0,0 km/h (0 Bft)
22.05.2019 19:19 12,1 °C 82 % 1017,4 hPa 0,0 mm 0,0 km/h (0 Bft) SW 220 ° 0 min 0,000 mm 0,0 UV-I 62 W/m² 9,1 °C 12,1 °C 0,0 km/h (0 Bft)
22.05.2019 19:20 12,1 °C 83 % 1017,4 hPa 0,0 mm 0,0 km/h (0 Bft) SW 220 ° 0 min 0,000 mm 0,0 UV-I 62 W/m² 9,3 °C 12,1 °C 0,0 km/h (0 Bft)
22.05.2019 19:21 12,1 °C 82 % 1017,4 hPa 0,0 mm 0,0 km/h (0 Bft) SW 220 ° 0 min 0,000 mm 0,0 UV-I 58 W/m² 9,1 °C 12,1 °C 0,0 km/h (0 Bft)
22.05.2019 19:22 12,1 °C 81 % 1017,4 hPa 0,0 mm 0,0 km/h (0 Bft) SW 220 ° 0 min 0,000 mm 0,0 UV-I 56 W/m² 8,9 °C 12,1 °C 0,0 km/h (0 Bft)
22.05.2019 19:23 12,1 °C 82 % 1017,4 hPa 0,0 mm 0,0 km/h (0 Bft) SW 220 ° 0 min 0,000 mm 0,0 UV-I 53 W/m² 9,1 °C 12,1 °C 0,0 km/h (0 Bft)
22.05.2019 19:24 12,1 °C 82 % 1017,4 hPa 0,0 mm 0,0 km/h (0 Bft) SW 220 ° 0 min 0,000 mm 0,0 UV-I 53 W/m² 9,1 °C 12,1 °C 0,0 km/h (0 Bft)
22.05.2019 19:25 12,1 °C 82 % 1017,4 hPa 0,0 mm 0,0 km/h (0 Bft) SW 220 ° 0 min 0,000 mm 0,0 UV-I 51 W/m² 9,1 °C 12,1 °C 0,0 km/h (0 Bft)
22.05.2019 19:26 12,1 °C 82 % 1017,4 hPa 0,0 mm 0,0 km/h (0 Bft) SW 220 ° 0 min 0,000 mm 0,0 UV-I 49 W/m² 9,1 °C 12,1 °C 0,0 km/h (0 Bft)
22.05.2019 19:27 12,0 °C 83 % 1017,4 hPa 0,0 mm 0,0 km/h (0 Bft) SW 220 ° 0 min 0,000 mm 0,0 UV-I 46 W/m² 9,2 °C 12,0 °C 0,0 km/h (0 Bft)
22.05.2019 19:28 11,9 °C 83 % 1017,4 hPa 0,0 mm 0,0 km/h (0 Bft) SW 220 ° 0 min 0,000 mm 0,0 UV-I 44 W/m² 9,1 °C 11,9 °C 0,0 km/h (0 Bft)
22.05.2019 19:29 11,9 °C 83 % 1017,4 hPa 0,0 mm 0,0 km/h (0 Bft) SW 220 ° 0 min 0,000 mm 0,0 UV-I 42 W/m² 9,1 °C 11,9 °C 0,0 km/h (0 Bft)
22.05.2019 19:30 11,9 °C 83 % 1017,4 hPa 0,0 mm 0,0 km/h (0 Bft) SW 220 ° 0 min 0,000 mm 0,0 UV-I 40 W/m² 9,1 °C 11,9 °C 0,0 km/h (0 Bft)
22.05.2019 19:31 11,9 °C 83 % 1017,4 hPa 0,0 mm 0,0 km/h (0 Bft) SW 220 ° 0 min 0,000 mm 0,0 UV-I 39 W/m² 9,1 °C 11,9 °C 0,0 km/h (0 Bft)
22.05.2019 19:32 11,9 °C 83 % 1017,4 hPa 0,0 mm 0,0 km/h (0 Bft) SW 220 ° 0 min 0,000 mm 0,0 UV-I 39 W/m² 9,1 °C 11,9 °C 0,0 km/h (0 Bft)
22.05.2019 19:33 11,8 °C 83 % 1017,4 hPa 0,0 mm 0,0 km/h (0 Bft) SW 220 ° 0 min 0,000 mm 0,0 UV-I 35 W/m² 9,0 °C 11,8 °C 0,0 km/h (0 Bft)
22.05.2019 19:34 11,8 °C 82 % 1017,4 hPa 0,0 mm 0,7 km/h (0 Bft) S-SW 208 ° 0 min 0,000 mm 0,0 UV-I 35 W/m² 8,8 °C 11,8 °C 1,6 km/h (1 Bft)
22.05.2019 19:35 11,8 °C 82 % 1017,4 hPa 0,0 mm 0,0 km/h (0 Bft) S-SW 208 ° 0 min 0,000 mm 0,0 UV-I 33 W/m² 8,8 °C 11,8 °C 0,0 km/h (0 Bft)
22.05.2019 19:36 11,8 °C 82 % 1017,4 hPa 0,0 mm 0,7 km/h (0 Bft) S-SW 208 ° 0 min 0,000 mm 0,0 UV-I 33 W/m² 8,8 °C 11,8 °C 1,6 km/h (1 Bft)
22.05.2019 19:37 11,8 °C 82 % 1017,4 hPa 0,0 mm 1,4 km/h (1 Bft) S-SW 208 ° 0 min 0,000 mm 0,0 UV-I 32 W/m² 8,8 °C 11,8 °C 3,2 km/h (1 Bft)
22.05.2019 19:38 11,8 °C 82 % 1017,4 hPa 0,0 mm 1,8 km/h (1 Bft) S-SW 208 ° 0 min 0,000 mm 0,0 UV-I 30 W/m² 8,8 °C 11,8 °C 3,2 km/h (1 Bft)
22.05.2019 19:39 11,8 °C 81 % 1017,4 hPa 0,0 mm 1,7 km/h (1 Bft) S-SW 208 ° 0 min 0,000 mm 0,0 UV-I 28 W/m² 8,6 °C 11,8 °C 3,2 km/h (1 Bft)
22.05.2019 19:40 11,8 °C 82 % 1017,4 hPa 0,0 mm 0,3 km/h (0 Bft) S-SW 208 ° 0 min 0,000 mm 0,0 UV-I 28 W/m² 8,8 °C 11,8 °C 1,6 km/h (1 Bft)
22.05.2019 19:41 11,8 °C 83 % 1017,4 hPa 0,0 mm 1,7 km/h (1 Bft) S-SW 208 ° 0 min 0,000 mm 0,0 UV-I 26 W/m² 9,0 °C 11,8 °C 3,2 km/h (1 Bft)
22.05.2019 19:42 11,7 °C 83 % 1017,4 hPa 0,0 mm 0,0 km/h (0 Bft) S-SW 208 ° 0 min 0,000 mm 0,0 UV-I 26 W/m² 8,9 °C 11,7 °C 0,0 km/h (0 Bft)
22.05.2019 19:43 11,7 °C 84 % 1017,4 hPa 0,0 mm 0,0 km/h (0 Bft) S-SW 208 ° 0 min 0,000 mm 0,0 UV-I 25 W/m² 9,1 °C 11,7 °C 0,0 km/h (0 Bft)
22.05.2019 19:44 11,6 °C 84 % 1017,4 hPa 0,0 mm 0,0 km/h (0 Bft) S-SW 208 ° 0 min 0,000 mm 0,0 UV-I 23 W/m² 9,0 °C 11,6 °C 0,0 km/h (0 Bft)
22.05.2019 19:45 11,6 °C 83 % 1017,4 hPa 0,0 mm 0,0 km/h (0 Bft) S-SW 208 ° 0 min 0,000 mm 0,0 UV-I 23 W/m² 8,8 °C 11,6 °C 0,0 km/h (0 Bft)
22.05.2019 19:46 11,6 °C 84 % 1017,4 hPa 0,0 mm 0,0 km/h (0 Bft) S-SW 208 ° 0 min 0,000 mm 0,0 UV-I 23 W/m² 9,0 °C 11,6 °C 0,0 km/h (0 Bft)
22.05.2019 19:47 11,6 °C 85 % 1017,4 hPa 0,0 mm 0,0 km/h (0 Bft) S-SW 208 ° 0 min 0,000 mm 0,0 UV-I 21 W/m² 9,2 °C 11,6 °C 0,0 km/h (0 Bft)
22.05.2019 19:48 11,5 °C 85 % 1017,4 hPa 0,0 mm 0,0 km/h (0 Bft) S-SW 208 ° 0 min 0,000 mm 0,0 UV-I 21 W/m² 9,1 °C 11,5 °C 0,0 km/h (0 Bft)
22.05.2019 19:49 11,4 °C 85 % 1017,4 hPa 0,0 mm 0,0 km/h (0 Bft) S-SW 208 ° 0 min 0,000 mm 0,0 UV-I 21 W/m² 9,0 °C 11,4 °C 0,0 km/h (0 Bft)
22.05.2019 19:50 11,4 °C 85 % 1017,4 hPa 0,0 mm 0,0 km/h (0 Bft) S-SW 208 ° 0 min 0,000 mm 0,0 UV-I 21 W/m² 9,0 °C 11,4 °C 0,0 km/h (0 Bft)
22.05.2019 19:51 11,3 °C 85 % 1017,4 hPa 0,0 mm 0,0 km/h (0 Bft) S-SW 208 ° 0 min 0,000 mm 0,0 UV-I 21 W/m² 8,9 °C 11,3 °C 0,0 km/h (0 Bft)
22.05.2019 19:52 11,3 °C 86 % 1017,4 hPa 0,0 mm 0,0 km/h (0 Bft) S-SW 208 ° 0 min 0,000 mm 0,0 UV-I 21 W/m² 9,0 °C 11,3 °C 0,0 km/h (0 Bft)
22.05.2019 19:53 11,3 °C 86 % 1017,5 hPa 0,0 mm 0,0 km/h (0 Bft) S-SW 208 ° 0 min 0,000 mm 0,0 UV-I 21 W/m² 9,0 °C 11,3 °C 0,0 km/h (0 Bft)
22.05.2019 19:54 11,3 °C 87 % 1017,5 hPa 0,0 mm 0,0 km/h (0 Bft) S-SW 208 ° 0 min 0,000 mm 0,0 UV-I 19 W/m² 9,2 °C 11,3 °C 0,0 km/h (0 Bft)
22.05.2019 19:55 11,2 °C 87 % 1017,5 hPa 0,0 mm 0,0 km/h (0 Bft) S-SW 208 ° 0 min 0,000 mm 0,0 UV-I 19 W/m² 9,1 °C 11,2 °C 0,0 km/h (0 Bft)
22.05.2019 19:56 11,2 °C 88 % 1017,5 hPa 0,0 mm 0,0 km/h (0 Bft) S-SW 208 ° 0 min 0,000 mm 0,0 UV-I 18 W/m² 9,3 °C 11,2 °C 0,0 km/h (0 Bft)
22.05.2019 19:57 11,1 °C 88 % 1017,4 hPa 0,0 mm 0,0 km/h (0 Bft) S-SW 208 ° 0 min 0,000 mm 0,0 UV-I 18 W/m² 9,2 °C 11,1 °C 0,0 km/h (0 Bft)
22.05.2019 19:58 11,0 °C 88 % 1017,5 hPa 0,0 mm 0,0 km/h (0 Bft) S-SW 208 ° 0 min 0,000 mm 0,0 UV-I 18 W/m² 9,1 °C 11,0 °C 0,0 km/h (0 Bft)
22.05.2019 19:59 11,0 °C 88 % 1017,5 hPa 0,0 mm 0,0 km/h (0 Bft) S-SW 208 ° 0 min 0,000 mm 0,0 UV-I 18 W/m² 9,1 °C 11,0 °C 0,0 km/h (0 Bft)
22.05.2019 20:00 11,0 °C 89 % 1017,5 hPa 0,0 mm 0,0 km/h (0 Bft) S-SW 208 ° 0 min 0,000 mm 0,0 UV-I 18 W/m² 9,3 °C 11,0 °C 0,0 km/h (0 Bft)
22.05.2019 20:01 10,9 °C 89 % 1017,5 hPa 0,0 mm 0,0 km/h (0 Bft) S-SW 208 ° 0 min 0,026 mm 0,0 UV-I 18 W/m² 9,2 °C 10,9 °C 0,0 km/h (0 Bft)
22.05.2019 20:02 10,9 °C 89 % 1017,5 hPa 0,0 mm 0,0 km/h (0 Bft) S-SW 208 ° 0 min 0,000 mm 0,0 UV-I 18 W/m² 9,2 °C 10,9 °C 0,0 km/h (0 Bft)
22.05.2019 20:03 10,9 °C 88 % 1017,5 hPa 0,0 mm 0,0 km/h (0 Bft) S-SW 208 ° 0 min 0,000 mm 0,0 UV-I 18 W/m² 9,0 °C 10,9 °C 0,0 km/h (0 Bft)
22.05.2019 20:04 10,9 °C 88 % 1017,6 hPa 0,0 mm 0,0 km/h (0 Bft) S-SW 208 ° 0 min 0,000 mm 0,0 UV-I 18 W/m² 9,0 °C 10,9 °C 0,0 km/h (0 Bft)
22.05.2019 20:05 10,9 °C 88 % 1017,5 hPa 0,0 mm 0,0 km/h (0 Bft) S-SW 208 ° 0 min 0,000 mm 0,0 UV-I 19 W/m² 9,0 °C 10,9 °C 0,0 km/h (0 Bft)
22.05.2019 20:06 10,9 °C 88 % 1017,5 hPa 0,0 mm 0,0 km/h (0 Bft) S-SW 208 ° 0 min 0,000 mm 0,0 UV-I 19 W/m² 9,0 °C 10,9 °C 0,0 km/h (0 Bft)
22.05.2019 20:07 10,9 °C 87 % 1017,5 hPa 0,0 mm 0,0 km/h (0 Bft) S-SW 208 ° 0 min 0,000 mm 0,0 UV-I 19 W/m² 8,8 °C 10,9 °C 0,0 km/h (0 Bft)
22.05.2019 20:08 11,0 °C 87 % 1017,5 hPa 0,0 mm 0,0 km/h (0 Bft) S-SW 208 ° 0 min 0,000 mm 0,0 UV-I 19 W/m² 8,9 °C 11,0 °C 0,0 km/h (0 Bft)
22.05.2019 20:09 11,0 °C 87 % 1017,5 hPa 0,0 mm 0,0 km/h (0 Bft) S-SW 208 ° 0 min 0,000 mm 0,0 UV-I 19 W/m² 8,9 °C 11,0 °C 0,0 km/h (0 Bft)
22.05.2019 20:10 11,0 °C 87 % 1017,5 hPa 0,0 mm 0,0 km/h (0 Bft) S-SW 208 ° 0 min 0,000 mm 0,0 UV-I 18 W/m² 8,9 °C 11,0 °C 0,0 km/h (0 Bft)
22.05.2019 20:11 11,0 °C 87 % 1017,5 hPa 0,0 mm 0,0 km/h (0 Bft) S-SW 208 ° 0 min 0,000 mm 0,0 UV-I 18 W/m² 8,9 °C 11,0 °C 0,0 km/h (0 Bft)
22.05.2019 20:12 11,0 °C 87 % 1017,6 hPa 0,0 mm 0,0 km/h (0 Bft) S-SW 208 ° 0 min 0,000 mm 0,0 UV-I 16 W/m² 8,9 °C 11,0 °C 0,0 km/h (0 Bft)
22.05.2019 20:13 11,1 °C 87 % 1017,6 hPa 0,0 mm 0,0 km/h (0 Bft) S-SW 208 ° 0 min 0,000 mm 0,0 UV-I 16 W/m² 9,0 °C 11,1 °C 0,0 km/h (0 Bft)
22.05.2019 20:14 11,0 °C 87 % 1017,6 hPa 0,0 mm 0,0 km/h (0 Bft) S-SW 208 ° 0 min 0,000 mm 0,0 UV-I 16 W/m² 8,9 °C 11,0 °C 0,0 km/h (0 Bft)
22.05.2019 20:15 11,1 °C 87 % 1017,6 hPa 0,0 mm 0,0 km/h (0 Bft) S-SW 208 ° 0 min 0,000 mm 0,0 UV-I 16 W/m² 9,0 °C 11,1 °C 0,0 km/h (0 Bft)
22.05.2019 20:16 11,0 °C 87 % 1017,6 hPa 0,0 mm 0,0 km/h (0 Bft) S-SW 208 ° 0 min 0,000 mm 0,0 UV-I 16 W/m² 8,9 °C 11,0 °C 0,0 km/h (0 Bft)
22.05.2019 20:17 11,1 °C 87 % 1017,6 hPa 0,0 mm 0,0 km/h (0 Bft) S-SW 208 ° 0 min 0,000 mm 0,0 UV-I 16 W/m² 9,0 °C 11,1 °C 0,0 km/h (0 Bft)
22.05.2019 20:18 11,0 °C 88 % 1017,6 hPa 0,0 mm 1,7 km/h (1 Bft) S-SW 208 ° 0 min 0,000 mm 0,0 UV-I 16 W/m² 9,1 °C 11,0 °C 3,2 km/h (1 Bft)
22.05.2019 20:19 11,0 °C 88 % 1017,6 hPa 0,0 mm 2,5 km/h (1 Bft) S-SW 208 ° 0 min 0,000 mm 0,0 UV-I 18 W/m² 9,1 °C 11,0 °C 3,2 km/h (1 Bft)
22.05.2019 20:20 11,0 °C 88 % 1017,6 hPa 0,0 mm 0,9 km/h (0 Bft) S-SW 208 ° 0 min 0,000 mm 0,0 UV-I 18 W/m² 9,1 °C 11,0 °C 3,2 km/h (1 Bft)
22.05.2019 20:21 10,9 °C 88 % 1017,6 hPa 0,0 mm 0,0 km/h (0 Bft) S-SW 208 ° 0 min 0,000 mm 0,0 UV-I 19 W/m² 9,0 °C 10,9 °C 0,0 km/h (0 Bft)
22.05.2019 20:22 10,8 °C 88 % 1017,6 hPa 0,0 mm 0,1 km/h (0 Bft) S-SW 208 ° 0 min 0,000 mm 0,0 UV-I 19 W/m² 8,9 °C 10,8 °C 1,6 km/h (1 Bft)
22.05.2019 20:23 10,8 °C 89 % 1017,6 hPa 0,0 mm 0,0 km/h (0 Bft) S-SW 208 ° 0 min 0,000 mm 0,0 UV-I 19 W/m² 9,1 °C 10,8 °C 0,0 km/h (0 Bft)
22.05.2019 20:24 10,8 °C 89 % 1017,7 hPa 0,0 mm 0,0 km/h (0 Bft) S-SW 208 ° 0 min 0,000 mm 0,0 UV-I 19 W/m² 9,1 °C 10,8 °C 0,0 km/h (0 Bft)
22.05.2019 20:25 10,7 °C 89 % 1017,7 hPa 0,0 mm 0,0 km/h (0 Bft) S-SW 208 ° 0 min 0,000 mm 0,0 UV-I 19 W/m² 9,0 °C 10,7 °C 0,0 km/h (0 Bft)
22.05.2019 20:26 10,7 °C 90 % 1017,7 hPa 0,0 mm 0,2 km/h (0 Bft) S-SW 209 ° 0 min 0,000 mm 0,0 UV-I 19 W/m² 9,1 °C 10,7 °C 1,6 km/h (1 Bft)
22.05.2019 20:27 10,7 °C 90 % 1017,8 hPa 0,0 mm 0,0 km/h (0 Bft) S-SW 209 ° 0 min 0,000 mm 0,0 UV-I 18 W/m² 9,1 °C 10,7 °C 0,0 km/h (0 Bft)
22.05.2019 20:28 10,7 °C 90 % 1017,8 hPa 0,0 mm 0,0 km/h (0 Bft) S-SW 209 ° 0 min 0,000 mm 0,0 UV-I 18 W/m² 9,1 °C 10,7 °C 0,0 km/h (0 Bft)
22.05.2019 20:29 10,7 °C 90 % 1017,8 hPa 0,0 mm 0,0 km/h (0 Bft) S-SW 209 ° 0 min 0,000 mm 0,0 UV-I 16 W/m² 9,1 °C 10,7 °C 0,0 km/h (0 Bft)
22.05.2019 20:30 10,7 °C 90 % 1017,8 hPa 0,0 mm 0,0 km/h (0 Bft) S-SW 209 ° 0 min 0,000 mm 0,0 UV-I 16 W/m² 9,1 °C 10,7 °C 0,0 km/h (0 Bft)
22.05.2019 20:31 10,7 °C 90 % 1017,8 hPa 0,0 mm 0,0 km/h (0 Bft) S-SW 209 ° 0 min 0,000 mm 0,0 UV-I 14 W/m² 9,1 °C 10,7 °C 0,0 km/h (0 Bft)
22.05.2019 20:32 10,7 °C 90 % 1017,8 hPa 0,0 mm 0,0 km/h (0 Bft) S-SW 209 ° 0 min 0,000 mm 0,0 UV-I 12 W/m² 9,1 °C 10,7 °C 0,0 km/h (0 Bft)
22.05.2019 20:33 10,7 °C 90 % 1017,8 hPa 0,0 mm 0,0 km/h (0 Bft) S-SW 209 ° 0 min 0,000 mm 0,0 UV-I 12 W/m² 9,1 °C 10,7 °C 0,0 km/h (0 Bft)
22.05.2019 20:34 10,7 °C 90 % 1017,9 hPa 0,0 mm 0,0 km/h (0 Bft) S-SW 209 ° 0 min 0,000 mm 0,0 UV-I 12 W/m² 9,1 °C 10,7 °C 0,0 km/h (0 Bft)
22.05.2019 20:35 10,7 °C 90 % 1017,9 hPa 0,0 mm 0,0 km/h (0 Bft) S-SW 209 ° 0 min 0,000 mm 0,0 UV-I 12 W/m² 9,1 °C 10,7 °C 0,0 km/h (0 Bft)
22.05.2019 20:36 10,7 °C 90 % 1017,9 hPa 0,0 mm 0,0 km/h (0 Bft) S-SW 209 ° 0 min 0,000 mm 0,0 UV-I 14 W/m² 9,1 °C 10,7 °C 0,0 km/h (0 Bft)
22.05.2019 20:37 10,6 °C 90 % 1017,9 hPa 0,0 mm 0,0 km/h (0 Bft) S-SW 209 ° 0 min 0,000 mm 0,0 UV-I 14 W/m² 9,0 °C 10,6 °C 0,0 km/h (0 Bft)
22.05.2019 20:38 10,6 °C 91 % 1017,9 hPa 0,0 mm 0,0 km/h (0 Bft) S-SW 209 ° 0 min 0,000 mm 0,0 UV-I 14 W/m² 9,2 °C 10,6 °C 0,0 km/h (0 Bft)
22.05.2019 20:39 10,6 °C 91 % 1017,9 hPa 0,0 mm 0,0 km/h (0 Bft) S-SW 209 ° 0 min 0,000 mm 0,0 UV-I 14 W/m² 9,2 °C 10,6 °C 0,0 km/h (0 Bft)
22.05.2019 20:40 10,6 °C 91 % 1017,9 hPa 0,0 mm 0,0 km/h (0 Bft) S-SW 209 ° 0 min 0,000 mm 0,0 UV-I 12 W/m² 9,2 °C 10,6 °C 0,0 km/h (0 Bft)
22.05.2019 20:41 10,6 °C 91 % 1017,9 hPa 0,0 mm 0,0 km/h (0 Bft) S-SW 209 ° 0 min 0,000 mm 0,0 UV-I 12 W/m² 9,2 °C 10,6 °C 0,0 km/h (0 Bft)
22.05.2019 20:42 10,6 °C 91 % 1017,9 hPa 0,0 mm 0,0 km/h (0 Bft) S-SW 209 ° 0 min 0,000 mm 0,0 UV-I 12 W/m² 9,2 °C 10,6 °C 0,0 km/h (0 Bft)
22.05.2019 20:43 10,6 °C 91 % 1017,9 hPa 0,0 mm 0,0 km/h (0 Bft) S-SW 209 ° 0 min 0,000 mm 0,0 UV-I 11 W/m² 9,2 °C 10,6 °C 0,0 km/h (0 Bft)
22.05.2019 20:44 10,6 °C 91 % 1017,9 hPa 0,0 mm 0,0 km/h (0 Bft) S-SW 209 ° 0 min 0,000 mm 0,0 UV-I 9 W/m² 9,2 °C 10,6 °C 0,0 km/h (0 Bft)
22.05.2019 20:45 10,6 °C 90 % 1017,9 hPa 0,0 mm 0,0 km/h (0 Bft) S-SW 209 ° 0 min 0,000 mm 0,0 UV-I 9 W/m² 9,0 °C 10,6 °C 0,0 km/h (0 Bft)
22.05.2019 20:46 10,6 °C 91 % 1017,9 hPa 0,0 mm 0,0 km/h (0 Bft) S-SW 209 ° 0 min 0,000 mm 0,0 UV-I 9 W/m² 9,2 °C 10,6 °C 0,0 km/h (0 Bft)
22.05.2019 20:47 10,6 °C 90 % 1017,9 hPa 0,0 mm 0,0 km/h (0 Bft) S-SW 209 ° 0 min 0,000 mm 0,0 UV-I 7 W/m² 9,0 °C 10,6 °C 0,0 km/h (0 Bft)
22.05.2019 20:48 10,6 °C 90 % 1018,0 hPa 0,0 mm 0,1 km/h (0 Bft) S-SW 203 ° 0 min 0,000 mm 0,0 UV-I 7 W/m² 9,0 °C 10,6 °C 1,6 km/h (1 Bft)
22.05.2019 20:49 10,5 °C 90 % 1017,9 hPa 0,0 mm 0,0 km/h (0 Bft) S-SW 203 ° 0 min 0,000 mm 0,0 UV-I 7 W/m² 8,9 °C 10,5 °C 0,0 km/h (0 Bft)
22.05.2019 20:50 10,5 °C 90 % 1018,0 hPa 0,0 mm 0,0 km/h (0 Bft) S-SW 203 ° 0 min 0,000 mm 0,0 UV-I 7 W/m² 8,9 °C 10,5 °C 0,0 km/h (0 Bft)
22.05.2019 20:51 10,6 °C 90 % 1018,0 hPa 0,0 mm 0,0 km/h (0 Bft) S-SW 203 ° 0 min 0,000 mm 0,0 UV-I 7 W/m² 9,0 °C 10,6 °C 0,0 km/h (0 Bft)
22.05.2019 20:52 10,6 °C 91 % 1018,0 hPa 0,0 mm 0,0 km/h (0 Bft) S-SW 203 ° 0 min 0,000 mm 0,0 UV-I 5 W/m² 9,2 °C 10,6 °C 0,0 km/h (0 Bft)
22.05.2019 20:53 10,5 °C 91 % 1018,0 hPa 0,0 mm 0,0 km/h (0 Bft) S-SW 203 ° 0 min 0,000 mm 0,0 UV-I 5 W/m² 9,1 °C 10,5 °C 0,0 km/h (0 Bft)
22.05.2019 20:54 10,5 °C 91 % 1018,0 hPa 0,0 mm 0,0 km/h (0 Bft) S-SW 203 ° 0 min 0,000 mm 0,0 UV-I 5 W/m² 9,1 °C 10,5 °C 0,0 km/h (0 Bft)
22.05.2019 20:55 10,4 °C 91 % 1018,0 hPa 0,0 mm 0,0 km/h (0 Bft) S-SW 203 ° 0 min 0,000 mm 0,0 UV-I 0 W/m² 9,0 °C 10,4 °C 0,0 km/h (0 Bft)
22.05.2019 20:56 10,4 °C 91 % 1017,9 hPa 0,0 mm 0,0 km/h (0 Bft) S-SW 203 ° 0 min 0,000 mm 0,0 UV-I 0 W/m² 9,0 °C 10,4 °C 0,0 km/h (0 Bft)
22.05.2019 20:57 10,4 °C 91 % 1018,0 hPa 0,0 mm 0,0 km/h (0 Bft) S-SW 203 ° 0 min 0,000 mm 0,0 UV-I 0 W/m² 9,0 °C 10,4 °C 0,0 km/h (0 Bft)
22.05.2019 20:58 10,4 °C 91 % 1018,0 hPa 0,0 mm 0,0 km/h (0 Bft) S-SW 203 ° 0 min 0,000 mm 0,0 UV-I 0 W/m² 9,0 °C 10,4 °C 0,0 km/h (0 Bft)
22.05.2019 20:59 10,4 °C 91 % 1018,0 hPa 0,0 mm 0,0 km/h (0 Bft) S-SW 203 ° 0 min 0,000 mm 0,0 UV-I 0 W/m² 9,0 °C 10,4 °C 0,0 km/h (0 Bft)
22.05.2019 21:00 10,4 °C 91 % 1018,0 hPa 0,0 mm 0,0 km/h (0 Bft) S-SW 203 ° 0 min 0,000 mm 0,0 UV-I 0 W/m² 9,0 °C 10,4 °C 0,0 km/h (0 Bft)
22.05.2019 21:01 10,4 °C 91 % 1018,0 hPa 0,0 mm 0,0 km/h (0 Bft) S-SW 203 ° 0 min 0,000 mm 0,0 UV-I 0 W/m² 9,0 °C 10,4 °C 0,0 km/h (0 Bft)
22.05.2019 21:02 10,3 °C 91 % 1018,0 hPa 0,0 mm 0,0 km/h (0 Bft) S-SW 203 ° 0 min 0,000 mm 0,0 UV-I 0 W/m² 8,9 °C 10,3 °C 0,0 km/h (0 Bft)
22.05.2019 21:03 10,3 °C 91 % 1018,0 hPa 0,0 mm 0,0 km/h (0 Bft) S-SW 203 ° 0 min 0,000 mm 0,0 UV-I 0 W/m² 8,9 °C 10,3 °C 0,0 km/h (0 Bft)
22.05.2019 21:04 10,3 °C 91 % 1018,0 hPa 0,0 mm 0,0 km/h (0 Bft) S-SW 203 ° 0 min 0,000 mm 0,0 UV-I 0 W/m² 8,9 °C 10,3 °C 0,0 km/h (0 Bft)
22.05.2019 21:05 10,3 °C 91 % 1018,0 hPa 0,0 mm 0,0 km/h (0 Bft) S-SW 203 ° 0 min 0,000 mm 0,0 UV-I 0 W/m² 8,9 °C 10,3 °C 0,0 km/h (0 Bft)
22.05.2019 21:06 10,3 °C 91 % 1018,0 hPa 0,0 mm 0,0 km/h (0 Bft) S-SW 203 ° 0 min 0,000 mm 0,0 UV-I 0 W/m² 8,9 °C 10,3 °C 0,0 km/h (0 Bft)
22.05.2019 21:07 10,3 °C 91 % 1018,1 hPa 0,0 mm 0,0 km/h (0 Bft) S-SW 203 ° 0 min 0,000 mm 0,0 UV-I 0 W/m² 8,9 °C 10,3 °C 0,0 km/h (0 Bft)
22.05.2019 21:08 10,2 °C 91 % 1018,1 hPa 0,0 mm 0,0 km/h (0 Bft) S-SW 203 ° 0 min 0,000 mm 0,0 UV-I 0 W/m² 8,8 °C 10,2 °C 0,0 km/h (0 Bft)
22.05.2019 21:09 10,2 °C 92 % 1018,1 hPa 0,0 mm 0,0 km/h (0 Bft) S-SW 203 ° 0 min 0,000 mm 0,0 UV-I 0 W/m² 9,0 °C 10,2 °C 0,0 km/h (0 Bft)
22.05.2019 21:10 10,2 °C 92 % 1018,1 hPa 0,0 mm 0,0 km/h (0 Bft) S-SW 203 ° 0 min 0,000 mm 0,0 UV-I 0 W/m² 9,0 °C 10,2 °C 0,0 km/h (0 Bft)
22.05.2019 21:11 10,2 °C 92 % 1018,1 hPa 0,0 mm 0,0 km/h (0 Bft) S-SW 203 ° 0 min 0,000 mm 0,0 UV-I 0 W/m² 9,0 °C 10,2 °C 0,0 km/h (0 Bft)
22.05.2019 21:12 10,1 °C 92 % 1018,2 hPa 0,0 mm 0,0 km/h (0 Bft) S-SW 203 ° 0 min 0,000 mm 0,0 UV-I 0 W/m² 8,9 °C 10,1 °C 0,0 km/h (0 Bft)
22.05.2019 21:13 10,2 °C 92 % 1018,2 hPa 0,0 mm 0,0 km/h (0 Bft) S-SW 203 ° 0 min 0,000 mm 0,0 UV-I 0 W/m² 9,0 °C 10,2 °C 0,0 km/h (0 Bft)
22.05.2019 21:14 10,1 °C 92 % 1018,2 hPa 0,0 mm 0,0 km/h (0 Bft) S-SW 203 ° 0 min 0,000 mm 0,0 UV-I 0 W/m² 8,9 °C 10,1 °C 0,0 km/h (0 Bft)
22.05.2019 21:15 10,1 °C 92 % 1018,2 hPa 0,0 mm 0,0 km/h (0 Bft) S-SW 203 ° 0 min 0,000 mm 0,0 UV-I 0 W/m² 8,9 °C 10,1 °C 0,0 km/h (0 Bft)
22.05.2019 21:16 10,1 °C 92 % 1018,2 hPa 0,0 mm 0,0 km/h (0 Bft) S-SW 203 ° 0 min 0,000 mm 0,0 UV-I 0 W/m² 8,9 °C 10,1 °C 0,0 km/h (0 Bft)
22.05.2019 21:17 10,1 °C 92 % 1018,2 hPa 0,0 mm 0,0 km/h (0 Bft) S-SW 203 ° 0 min 0,000 mm 0,0 UV-I 0 W/m² 8,9 °C 10,1 °C 0,0 km/h (0 Bft)
22.05.2019 21:18 10,1 °C 92 % 1018,2 hPa 0,0 mm 0,0 km/h (0 Bft) S-SW 203 ° 0 min 0,000 mm 0,0 UV-I 0 W/m² 8,9 °C 10,1 °C 0,0 km/h (0 Bft)
22.05.2019 21:19 10,1 °C 92 % 1018,2 hPa 0,0 mm 0,0 km/h (0 Bft) S-SW 203 ° 0 min 0,000 mm 0,0 UV-I 0 W/m² 8,9 °C 10,1 °C 0,0 km/h (0 Bft)
22.05.2019 21:20 10,1 °C 92 % 1018,2 hPa 0,0 mm 0,0 km/h (0 Bft) S-SW 203 ° 0 min 0,000 mm 0,0 UV-I 0 W/m² 8,9 °C 10,1 °C 0,0 km/h (0 Bft)
22.05.2019 21:21 10,1 °C 92 % 1018,2 hPa 0,0 mm 0,0 km/h (0 Bft) S-SW 203 ° 0 min 0,000 mm 0,0 UV-I 0 W/m² 8,9 °C 10,1 °C 0,0 km/h (0 Bft)
22.05.2019 21:22 10,1 °C 92 % 1018,2 hPa 0,0 mm 0,0 km/h (0 Bft) S-SW 203 ° 0 min 0,000 mm 0,0 UV-I 0 W/m² 8,9 °C 10,1 °C 0,0 km/h (0 Bft)
22.05.2019 21:23 10,1 °C 92 % 1018,3 hPa 0,0 mm 0,0 km/h (0 Bft) S-SW 203 ° 0 min 0,000 mm 0,0 UV-I 0 W/m² 8,9 °C 10,1 °C 0,0 km/h (0 Bft)
22.05.2019 21:24 10,0 °C 92 % 1018,3 hPa 0,0 mm 0,0 km/h (0 Bft) S-SW 203 ° 0 min 0,000 mm 0,0 UV-I 0 W/m² 8,8 °C 10,0 °C 0,0 km/h (0 Bft)
22.05.2019 21:25 10,0 °C 92 % 1018,3 hPa 0,0 mm 0,0 km/h (0 Bft) S-SW 203 ° 0 min 0,000 mm 0,0 UV-I 0 W/m² 8,8 °C 10,0 °C 0,0 km/h (0 Bft)
22.05.2019 21:26 10,0 °C 92 % 1018,3 hPa 0,0 mm 0,0 km/h (0 Bft) S-SW 203 ° 0 min 0,000 mm 0,0 UV-I 0 W/m² 8,8 °C 10,0 °C 0,0 km/h (0 Bft)
22.05.2019 21:27 10,0 °C 92 % 1018,3 hPa 0,0 mm 0,0 km/h (0 Bft) S-SW 203 ° 0 min 0,000 mm 0,0 UV-I 0 W/m² 8,8 °C 10,0 °C 0,0 km/h (0 Bft)
22.05.2019 21:28 10,0 °C 92 % 1018,3 hPa 0,0 mm 0,0 km/h (0 Bft) S-SW 203 ° 0 min 0,000 mm 0,0 UV-I 0 W/m² 8,8 °C 10,0 °C 0,0 km/h (0 Bft)
22.05.2019 21:29 10,0 °C 92 % 1018,4 hPa 0,0 mm 0,0 km/h (0 Bft) S-SW 203 ° 0 min 0,000 mm 0,0 UV-I 0 W/m² 8,8 °C 10,0 °C 0,0 km/h (0 Bft)
22.05.2019 21:30 10,0 °C 92 % 1018,4 hPa 0,0 mm 0,0 km/h (0 Bft) S-SW 203 ° 0 min 0,000 mm 0,0 UV-I 0 W/m² 8,8 °C 10,0 °C 0,0 km/h (0 Bft)
22.05.2019 21:31 9,9 °C 92 % 1018,4 hPa 0,0 mm 0,0 km/h (0 Bft) S-SW 203 ° 0 min 0,000 mm 0,0 UV-I 0 W/m² 8,7 °C 9,9 °C 0,0 km/h (0 Bft)
22.05.2019 21:32 9,9 °C 93 % 1018,4 hPa 0,0 mm 0,1 km/h (0 Bft) S-SW 203 ° 0 min 0,000 mm 0,0 UV-I 0 W/m² 8,8 °C 9,9 °C 1,6 km/h (1 Bft)
22.05.2019 21:33 9,9 °C 93 % 1018,4 hPa 0,0 mm 0,0 km/h (0 Bft) S-SW 203 ° 0 min 0,000 mm 0,0 UV-I 0 W/m² 8,8 °C 9,9 °C 0,0 km/h (0 Bft)
22.05.2019 21:34 9,9 °C 93 % 1018,3 hPa 0,0 mm 0,0 km/h (0 Bft) S-SW 203 ° 0 min 0,000 mm 0,0 UV-I 0 W/m² 8,8 °C 9,9 °C 0,0 km/h (0 Bft)
22.05.2019 21:35 9,9 °C 93 % 1018,4 hPa 0,0 mm 0,0 km/h (0 Bft) S-SW 203 ° 0 min 0,000 mm 0,0 UV-I 0 W/m² 8,8 °C 9,9 °C 0,0 km/h (0 Bft)
22.05.2019 21:36 9,9 °C 93 % 1018,4 hPa 0,0 mm 0,0 km/h (0 Bft) S-SW 203 ° 0 min 0,000 mm 0,0 UV-I 0 W/m² 8,8 °C 9,9 °C 0,0 km/h (0 Bft)
22.05.2019 21:37 10,0 °C 93 % 1018,4 hPa 0,0 mm 0,0 km/h (0 Bft) S-SW 203 ° 0 min 0,000 mm 0,0 UV-I 0 W/m² 8,9 °C 10,0 °C 0,0 km/h (0 Bft)
22.05.2019 21:38 10,0 °C 93 % 1018,4 hPa 0,0 mm 0,0 km/h (0 Bft) S-SW 203 ° 0 min 0,000 mm 0,0 UV-I 0 W/m² 8,9 °C 10,0 °C 0,0 km/h (0 Bft)
22.05.2019 21:39 9,9 °C 93 % 1018,4 hPa 0,0 mm 0,7 km/h (0 Bft) S-SW 203 ° 0 min 0,000 mm 0,0 UV-I 0 W/m² 8,8 °C 9,9 °C 1,6 km/h (1 Bft)
22.05.2019 21:40 10,0 °C 93 % 1018,4 hPa 0,0 mm 0,0 km/h (0 Bft) S-SW 203 ° 0 min 0,000 mm 0,0 UV-I 0 W/m² 8,9 °C 10,0 °C 0,0 km/h (0 Bft)
22.05.2019 21:41 10,0 °C 93 % 1018,4 hPa 0,0 mm 0,0 km/h (0 Bft) S-SW 203 ° 0 min 0,000 mm 0,0 UV-I 0 W/m² 8,9 °C 10,0 °C 0,0 km/h (0 Bft)
22.05.2019 21:42 10,0 °C 93 % 1018,4 hPa 0,0 mm 0,0 km/h (0 Bft) S-SW 203 ° 0 min 0,000 mm 0,0 UV-I 0 W/m² 8,9 °C 10,0 °C 0,0 km/h (0 Bft)
22.05.2019 21:43 10,0 °C 93 % 1018,5 hPa 0,0 mm 0,0 km/h (0 Bft) S-SW 203 ° 0 min 0,000 mm 0,0 UV-I 0 W/m² 8,9 °C 10,0 °C 0,0 km/h (0 Bft)
22.05.2019 21:44 10,0 °C 93 % 1018,4 hPa 0,0 mm 0,0 km/h (0 Bft) S-SW 203 ° 0 min 0,000 mm 0,0 UV-I 0 W/m² 8,9 °C 10,0 °C 0,0 km/h (0 Bft)
22.05.2019 21:45 10,0 °C 93 % 1018,5 hPa 0,0 mm 0,0 km/h (0 Bft) S-SW 203 ° 0 min 0,000 mm 0,0 UV-I 0 W/m² 8,9 °C 10,0 °C 0,0 km/h (0 Bft)
22.05.2019 21:46 9,9 °C 93 % 1018,5 hPa 0,0 mm 0,0 km/h (0 Bft) S-SW 203 ° 0 min 0,000 mm 0,0 UV-I 0 W/m² 8,8 °C 9,9 °C 0,0 km/h (0 Bft)
22.05.2019 21:47 9,9 °C 93 % 1018,4 hPa 0,0 mm 0,0 km/h (0 Bft) S-SW 203 ° 0 min 0,000 mm 0,0 UV-I 0 W/m² 8,8 °C 9,9 °C 0,0 km/h (0 Bft)
22.05.2019 21:48 9,9 °C 93 % 1018,5 hPa 0,0 mm 0,0 km/h (0 Bft) S-SW 203 ° 0 min 0,000 mm 0,0 UV-I 0 W/m² 8,8 °C 9,9 °C 0,0 km/h (0 Bft)
22.05.2019 21:49 9,9 °C 93 % 1018,5 hPa 0,0 mm 0,0 km/h (0 Bft) S-SW 203 ° 0 min 0,000 mm 0,0 UV-I 0 W/m² 8,8 °C 9,9 °C 0,0 km/h (0 Bft)
22.05.2019 21:50 9,9 °C 93 % 1018,5 hPa 0,0 mm 0,0 km/h (0 Bft) S-SW 203 ° 0 min 0,000 mm 0,0 UV-I 0 W/m² 8,8 °C 9,9 °C 0,0 km/h (0 Bft)
22.05.2019 21:51 9,9 °C 93 % 1018,5 hPa 0,0 mm 0,0 km/h (0 Bft) S-SW 203 ° 0 min 0,000 mm 0,0 UV-I 0 W/m² 8,8 °C 9,9 °C 0,0 km/h (0 Bft)
22.05.2019 21:52 9,9 °C 93 % 1018,5 hPa 0,0 mm 0,0 km/h (0 Bft) S-SW 203 ° 0 min 0,000 mm 0,0 UV-I 0 W/m² 8,8 °C 9,9 °C 0,0 km/h (0 Bft)
22.05.2019 21:53 9,9 °C 93 % 1018,5 hPa 0,0 mm 0,0 km/h (0 Bft) S-SW 203 ° 0 min 0,000 mm 0,0 UV-I 0 W/m² 8,8 °C 9,9 °C 0,0 km/h (0 Bft)
22.05.2019 21:54 9,8 °C 93 % 1018,5 hPa 0,0 mm 0,0 km/h (0 Bft) S-SW 203 ° 0 min 0,000 mm 0,0 UV-I 0 W/m² 8,7 °C 9,8 °C 0,0 km/h (0 Bft)
22.05.2019 21:55 9,8 °C 93 % 1018,6 hPa 0,0 mm 0,0 km/h (0 Bft) S-SW 203 ° 0 min 0,000 mm 0,0 UV-I 0 W/m² 8,7 °C 9,8 °C 0,0 km/h (0 Bft)
22.05.2019 21:56 9,8 °C 93 % 1018,6 hPa 0,0 mm 0,0 km/h (0 Bft) S-SW 203 ° 0 min 0,000 mm 0,0 UV-I 0 W/m² 8,7 °C 9,8 °C 0,0 km/h (0 Bft)
22.05.2019 21:57 9,8 °C 93 % 1018,6 hPa 0,0 mm 0,0 km/h (0 Bft) S-SW 203 ° 0 min 0,000 mm 0,0 UV-I 0 W/m² 8,7 °C 9,8 °C 0,0 km/h (0 Bft)
22.05.2019 21:58 9,8 °C 93 % 1018,6 hPa 0,0 mm 0,0 km/h (0 Bft) S-SW 203 ° 0 min 0,000 mm 0,0 UV-I 0 W/m² 8,7 °C 9,8 °C 0,0 km/h (0 Bft)
22.05.2019 21:59 9,8 °C 93 % 1018,5 hPa 0,0 mm 0,0 km/h (0 Bft) S-SW 203 ° 0 min 0,000 mm 0,0 UV-I 0 W/m² 8,7 °C 9,8 °C 0,0 km/h (0 Bft)
22.05.2019 22:00 9,8 °C 93 % 1018,6 hPa 0,0 mm 0,0 km/h (0 Bft) S-SW 203 ° 0 min 0,000 mm 0,0 UV-I 0 W/m² 8,7 °C 9,8 °C 0,0 km/h (0 Bft)
22.05.2019 22:01 9,8 °C 93 % 1018,6 hPa 0,0 mm 0,0 km/h (0 Bft) S-SW 203 ° 0 min 0,000 mm 0,0 UV-I 0 W/m² 8,7 °C 9,8 °C 0,0 km/h (0 Bft)
22.05.2019 22:02 9,8 °C 93 % 1018,6 hPa 0,0 mm 0,0 km/h (0 Bft) S-SW 203 ° 0 min 0,000 mm 0,0 UV-I 0 W/m² 8,7 °C 9,8 °C 0,0 km/h (0 Bft)
22.05.2019 22:03 9,8 °C 93 % 1018,6 hPa 0,0 mm 0,0 km/h (0 Bft) S-SW 203 ° 0 min 0,000 mm 0,0 UV-I 0 W/m² 8,7 °C 9,8 °C 0,0 km/h (0 Bft)
22.05.2019 22:04 9,8 °C 93 % 1018,6 hPa 0,0 mm 0,0 km/h (0 Bft) S-SW 203 ° 0 min 0,000 mm 0,0 UV-I 0 W/m² 8,7 °C 9,8 °C 0,0 km/h (0 Bft)
22.05.2019 22:05 9,8 °C 93 % 1018,6 hPa 0,0 mm 0,0 km/h (0 Bft) S-SW 203 ° 0 min 0,000 mm 0,0 UV-I 0 W/m² 8,7 °C 9,8 °C 0,0 km/h (0 Bft)
22.05.2019 22:06 9,8 °C 93 % 1018,6 hPa 0,0 mm 0,5 km/h (0 Bft) S-SW 203 ° 0 min 0,000 mm 0,0 UV-I 0 W/m² 8,7 °C 9,8 °C 1,6 km/h (1 Bft)
22.05.2019 22:07 9,7 °C 93 % 1018,6 hPa 0,0 mm 0,3 km/h (0 Bft) S-SW 203 ° 0 min 0,000 mm 0,0 UV-I 0 W/m² 8,6 °C 9,7 °C 1,6 km/h (1 Bft)
22.05.2019 22:08 9,7 °C 93 % 1018,6 hPa 0,0 mm 0,0 km/h (0 Bft) S-SW 203 ° 0 min 0,000 mm 0,0 UV-I 0 W/m² 8,6 °C 9,7 °C 0,0 km/h (0 Bft)
22.05.2019 22:09 9,7 °C 93 % 1018,6 hPa 0,0 mm 0,0 km/h (0 Bft) S-SW 203 ° 0 min 0,000 mm 0,0 UV-I 0 W/m² 8,6 °C 9,7 °C 0,0 km/h (0 Bft)
22.05.2019 22:10 9,7 °C 93 % 1018,6 hPa 0,0 mm 0,0 km/h (0 Bft) S-SW 203 ° 0 min 0,000 mm 0,0 UV-I 0 W/m² 8,6 °C 9,7 °C 0,0 km/h (0 Bft)
22.05.2019 22:11 9,7 °C 93 % 1018,6 hPa 0,0 mm 0,0 km/h (0 Bft) S-SW 203 ° 0 min 0,000 mm 0,0 UV-I 0 W/m² 8,6 °C 9,7 °C 0,0 km/h (0 Bft)
22.05.2019 22:12 9,7 °C 93 % 1018,5 hPa 0,0 mm 0,0 km/h (0 Bft) S-SW 203 ° 0 min 0,000 mm 0,0 UV-I 0 W/m² 8,6 °C 9,7 °C 0,0 km/h (0 Bft)
22.05.2019 22:13 9,7 °C 93 % 1018,5 hPa 0,0 mm 0,0 km/h (0 Bft) S-SW 203 ° 0 min 0,000 mm 0,0 UV-I 0 W/m² 8,6 °C 9,7 °C 0,0 km/h (0 Bft)
22.05.2019 22:14 9,7 °C 93 % 1018,6 hPa 0,0 mm 0,0 km/h (0 Bft) S-SW 203 ° 0 min 0,000 mm 0,0 UV-I 0 W/m² 8,6 °C 9,7 °C 0,0 km/h (0 Bft)
22.05.2019 22:15 9,7 °C 93 % 1018,5 hPa 0,0 mm 0,0 km/h (0 Bft) S-SW 203 ° 0 min 0,000 mm 0,0 UV-I 0 W/m² 8,6 °C 9,7 °C 0,0 km/h (0 Bft)
22.05.2019 22:16 9,7 °C 93 % 1018,6 hPa 0,0 mm 0,0 km/h (0 Bft) S-SW 203 ° 0 min 0,000 mm 0,0 UV-I 0 W/m² 8,6 °C 9,7 °C 0,0 km/h (0 Bft)
22.05.2019 22:17 9,7 °C 93 % 1018,6 hPa 0,0 mm 0,0 km/h (0 Bft) S-SW 203 ° 0 min 0,000 mm 0,0 UV-I 0 W/m² 8,6 °C 9,7 °C 0,0 km/h (0 Bft)
22.05.2019 22:18 9,8 °C 93 % 1018,5 hPa 0,0 mm 0,0 km/h (0 Bft) S-SW 203 ° 0 min 0,000 mm 0,0 UV-I 0 W/m² 8,7 °C 9,8 °C 0,0 km/h (0 Bft)
22.05.2019 22:19 9,8 °C 93 % 1018,6 hPa 0,0 mm 0,0 km/h (0 Bft) S-SW 203 ° 0 min 0,000 mm 0,0 UV-I 0 W/m² 8,7 °C 9,8 °C 0,0 km/h (0 Bft)
22.05.2019 22:20 9,8 °C 93 % 1018,5 hPa 0,0 mm 0,0 km/h (0 Bft) S-SW 203 ° 0 min 0,000 mm 0,0 UV-I 0 W/m² 8,7 °C 9,8 °C 0,0 km/h (0 Bft)
22.05.2019 22:21 9,8 °C 93 % 1018,6 hPa 0,0 mm 0,0 km/h (0 Bft) S-SW 203 ° 0 min 0,000 mm 0,0 UV-I 0 W/m² 8,7 °C 9,8 °C 0,0 km/h (0 Bft)
22.05.2019 22:22 9,7 °C 93 % 1018,6 hPa 0,0 mm 0,0 km/h (0 Bft) S-SW 203 ° 0 min 0,000 mm 0,0 UV-I 0 W/m² 8,6 °C 9,7 °C 0,0 km/h (0 Bft)
22.05.2019 22:23 9,7 °C 93 % 1018,6 hPa 0,0 mm 0,0 km/h (0 Bft) S-SW 203 ° 0 min 0,000 mm 0,0 UV-I 0 W/m² 8,6 °C 9,7 °C 0,0 km/h (0 Bft)
22.05.2019 22:24 9,7 °C 93 % 1018,5 hPa 0,0 mm 0,0 km/h (0 Bft) S-SW 203 ° 0 min 0,000 mm 0,0 UV-I 0 W/m² 8,6 °C 9,7 °C 0,0 km/h (0 Bft)
22.05.2019 22:25 9,7 °C 93 % 1018,5 hPa 0,0 mm 0,0 km/h (0 Bft) S-SW 203 ° 0 min 0,000 mm 0,0 UV-I 0 W/m² 8,6 °C 9,7 °C 0,0 km/h (0 Bft)
22.05.2019 22:26 9,6 °C 93 % 1018,5 hPa 0,0 mm 0,0 km/h (0 Bft) S-SW 203 ° 0 min 0,000 mm 0,0 UV-I 0 W/m² 8,5 °C 9,6 °C 0,0 km/h (0 Bft)
22.05.2019 22:27 9,6 °C 93 % 1018,5 hPa 0,0 mm 0,0 km/h (0 Bft) S-SW 203 ° 0 min 0,000 mm 0,0 UV-I 0 W/m² 8,5 °C 9,6 °C 0,0 km/h (0 Bft)
22.05.2019 22:28 9,6 °C 93 % 1018,5 hPa 0,0 mm 0,0 km/h (0 Bft) S-SW 203 ° 0 min 0,000 mm 0,0 UV-I 0 W/m² 8,5 °C 9,6 °C 0,0 km/h (0 Bft)
22.05.2019 22:29 9,6 °C 93 % 1018,5 hPa 0,0 mm 0,0 km/h (0 Bft) S-SW 203 ° 0 min 0,000 mm 0,0 UV-I 0 W/m² 8,5 °C 9,6 °C 0,0 km/h (0 Bft)
22.05.2019 22:30 9,6 °C 93 % 1018,5 hPa 0,0 mm 0,0 km/h (0 Bft) S-SW 203 ° 0 min 0,000 mm 0,0 UV-I 0 W/m² 8,5 °C 9,6 °C 0,0 km/h (0 Bft)
22.05.2019 22:31 9,6 °C 93 % 1018,5 hPa 0,0 mm 0,0 km/h (0 Bft) S-SW 203 ° 0 min 0,000 mm 0,0 UV-I 0 W/m² 8,5 °C 9,6 °C 0,0 km/h (0 Bft)
22.05.2019 22:32 9,6 °C 93 % 1018,5 hPa 0,0 mm 0,0 km/h (0 Bft) S-SW 203 ° 0 min 0,000 mm 0,0 UV-I 0 W/m² 8,5 °C 9,6 °C 0,0 km/h (0 Bft)
22.05.2019 22:33 9,6 °C 93 % 1018,5 hPa 0,0 mm 0,0 km/h (0 Bft) S-SW 203 ° 0 min 0,000 mm 0,0 UV-I 0 W/m² 8,5 °C 9,6 °C 0,0 km/h (0 Bft)
22.05.2019 22:34 9,5 °C 93 % 1018,5 hPa 0,0 mm 0,0 km/h (0 Bft) S-SW 203 ° 0 min 0,000 mm 0,0 UV-I 0 W/m² 8,4 °C 9,5 °C 0,0 km/h (0 Bft)
22.05.2019 22:35 9,5 °C 93 % 1018,5 hPa 0,0 mm 0,0 km/h (0 Bft) S-SW 203 ° 0 min 0,000 mm 0,0 UV-I 0 W/m² 8,4 °C 9,5 °C 0,0 km/h (0 Bft)
22.05.2019 22:36 9,5 °C 93 % 1018,5 hPa 0,0 mm 0,0 km/h (0 Bft) S-SW 203 ° 0 min 0,000 mm 0,0 UV-I 0 W/m² 8,4 °C 9,5 °C 0,0 km/h (0 Bft)
22.05.2019 22:37 9,5 °C 93 % 1018,6 hPa 0,0 mm 0,0 km/h (0 Bft) S-SW 203 ° 0 min 0,000 mm 0,0 UV-I 0 W/m² 8,4 °C 9,5 °C 0,0 km/h (0 Bft)
22.05.2019 22:38 9,4 °C 93 % 1018,6 hPa 0,0 mm 0,0 km/h (0 Bft) S-SW 203 ° 0 min 0,000 mm 0,0 UV-I 0 W/m² 8,3 °C 9,4 °C 0,0 km/h (0 Bft)
22.05.2019 22:39 9,4 °C 93 % 1018,6 hPa 0,0 mm 0,0 km/h (0 Bft) S-SW 203 ° 0 min 0,000 mm 0,0 UV-I 0 W/m² 8,3 °C 9,4 °C 0,0 km/h (0 Bft)
22.05.2019 22:40 9,4 °C 93 % 1018,6 hPa 0,0 mm 0,0 km/h (0 Bft) S-SW 203 ° 0 min 0,000 mm 0,0 UV-I 0 W/m² 8,3 °C 9,4 °C 0,0 km/h (0 Bft)
22.05.2019 22:41 9,4 °C 93 % 1018,6 hPa 0,0 mm 0,0 km/h (0 Bft) S-SW 203 ° 0 min 0,000 mm 0,0 UV-I 0 W/m² 8,3 °C 9,4 °C 0,0 km/h (0 Bft)
22.05.2019 22:42 9,4 °C 93 % 1018,6 hPa 0,0 mm 0,0 km/h (0 Bft) S-SW 203 ° 0 min 0,000 mm 0,0 UV-I 0 W/m² 8,3 °C 9,4 °C 0,0 km/h (0 Bft)
22.05.2019 22:43 9,4 °C 93 % 1018,6 hPa 0,0 mm 0,0 km/h (0 Bft) S-SW 203 ° 0 min 0,000 mm 0,0 UV-I 0 W/m² 8,3 °C 9,4 °C 0,0 km/h (0 Bft)
22.05.2019 22:44 9,4 °C 94 % 1018,6 hPa 0,0 mm 0,0 km/h (0 Bft) S-SW 203 ° 0 min 0,000 mm 0,0 UV-I 0 W/m² 8,5 °C 9,4 °C 0,0 km/h (0 Bft)
22.05.2019 22:45 9,4 °C 93 % 1018,6 hPa 0,0 mm 0,0 km/h (0 Bft) S-SW 203 ° 0 min 0,000 mm 0,0 UV-I 0 W/m² 8,3 °C 9,4 °C 0,0 km/h (0 Bft)
22.05.2019 22:46 9,4 °C 94 % 1018,6 hPa 0,0 mm 0,0 km/h (0 Bft) S-SW 203 ° 0 min 0,000 mm 0,0 UV-I 0 W/m² 8,5 °C 9,4 °C 0,0 km/h (0 Bft)
22.05.2019 22:47 9,4 °C 94 % 1018,6 hPa 0,0 mm 0,0 km/h (0 Bft) S-SW 203 ° 0 min 0,000 mm 0,0 UV-I 0 W/m² 8,5 °C 9,4 °C 0,0 km/h (0 Bft)
22.05.2019 22:48 9,4 °C 94 % 1018,6 hPa 0,0 mm 0,0 km/h (0 Bft) S-SW 203 ° 0 min 0,000 mm 0,0 UV-I 0 W/m² 8,5 °C 9,4 °C 0,0 km/h (0 Bft)
22.05.2019 22:49 9,4 °C 94 % 1018,6 hPa 0,0 mm 0,0 km/h (0 Bft) S-SW 203 ° 0 min 0,000 mm 0,0 UV-I 0 W/m² 8,5 °C 9,4 °C 0,0 km/h (0 Bft)
22.05.2019 22:50 9,5 °C 94 % 1018,6 hPa 0,0 mm 0,0 km/h (0 Bft) S-SW 203 ° 0 min 0,000 mm 0,0 UV-I 0 W/m² 8,6 °C 9,5 °C 0,0 km/h (0 Bft)
22.05.2019 22:51 9,5 °C 94 % 1018,6 hPa 0,0 mm 0,0 km/h (0 Bft) S-SW 203 ° 0 min 0,000 mm 0,0 UV-I 0 W/m² 8,6 °C 9,5 °C 0,0 km/h (0 Bft)
22.05.2019 22:52 9,4 °C 93 % 1018,6 hPa 0,0 mm 0,0 km/h (0 Bft) S-SW 203 ° 0 min 0,000 mm 0,0 UV-I 0 W/m² 8,3 °C 9,4 °C 0,0 km/h (0 Bft)
22.05.2019 22:53 9,4 °C 93 % 1018,6 hPa 0,0 mm 0,0 km/h (0 Bft) S-SW 203 ° 0 min 0,000 mm 0,0 UV-I 0 W/m² 8,3 °C 9,4 °C 0,0 km/h (0 Bft)
22.05.2019 22:54 9,4 °C 94 % 1018,6 hPa 0,0 mm 0,0 km/h (0 Bft) S-SW 203 ° 0 min 0,000 mm 0,0 UV-I 0 W/m² 8,5 °C 9,4 °C 0,0 km/h (0 Bft)
22.05.2019 22:55 9,3 °C 93 % 1018,6 hPa 0,0 mm 0,0 km/h (0 Bft) S-SW 203 ° 0 min 0,000 mm 0,0 UV-I 0 W/m² 8,2 °C 9,3 °C 0,0 km/h (0 Bft)
22.05.2019 22:56 9,3 °C 93 % 1018,6 hPa 0,0 mm 0,0 km/h (0 Bft) S-SW 203 ° 0 min 0,000 mm 0,0 UV-I 0 W/m² 8,2 °C 9,3 °C 0,0 km/h (0 Bft)
22.05.2019 22:57 9,3 °C 93 % 1018,6 hPa 0,0 mm 0,0 km/h (0 Bft) S-SW 203 ° 0 min 0,000 mm 0,0 UV-I 0 W/m² 8,2 °C 9,3 °C 0,0 km/h (0 Bft)
22.05.2019 22:58 9,3 °C 93 % 1018,7 hPa 0,0 mm 0,0 km/h (0 Bft) S-SW 203 ° 0 min 0,000 mm 0,0 UV-I 0 W/m² 8,2 °C 9,3 °C 0,0 km/h (0 Bft)
22.05.2019 22:59 9,2 °C 93 % 1018,6 hPa 0,0 mm 0,0 km/h (0 Bft) S-SW 203 ° 0 min 0,000 mm 0,0 UV-I 0 W/m² 8,1 °C 9,2 °C 0,0 km/h (0 Bft)
22.05.2019 23:00 9,2 °C 93 % 1018,6 hPa 0,0 mm 0,0 km/h (0 Bft) S-SW 203 ° 0 min 0,000 mm 0,0 UV-I 0 W/m² 8,1 °C 9,2 °C 0,0 km/h (0 Bft)
22.05.2019 23:01 9,2 °C 93 % 1018,7 hPa 0,0 mm 0,0 km/h (0 Bft) S-SW 203 ° 0 min 0,000 mm 0,0 UV-I 0 W/m² 8,1 °C 9,2 °C 0,0 km/h (0 Bft)
22.05.2019 23:02 9,2 °C 93 % 1018,6 hPa 0,0 mm 0,0 km/h (0 Bft) S-SW 203 ° 0 min 0,000 mm 0,0 UV-I 0 W/m² 8,1 °C 9,2 °C 0,0 km/h (0 Bft)
22.05.2019 23:03 9,2 °C 93 % 1018,6 hPa 0,0 mm 0,0 km/h (0 Bft) S-SW 203 ° 0 min 0,000 mm 0,0 UV-I 0 W/m² 8,1 °C 9,2 °C 0,0 km/h (0 Bft)
22.05.2019 23:04 9,2 °C 93 % 1018,6 hPa 0,0 mm 0,0 km/h (0 Bft) S-SW 203 ° 0 min 0,000 mm 0,0 UV-I 0 W/m² 8,1 °C 9,2 °C 0,0 km/h (0 Bft)
22.05.2019 23:05 9,2 °C 93 % 1018,6 hPa 0,0 mm 0,0 km/h (0 Bft) S-SW 203 ° 0 min 0,000 mm 0,0 UV-I 0 W/m² 8,1 °C 9,2 °C 0,0 km/h (0 Bft)
22.05.2019 23:06 9,1 °C 93 % 1018,6 hPa 0,0 mm 0,0 km/h (0 Bft) S-SW 203 ° 0 min 0,000 mm 0,0 UV-I 0 W/m² 8,0 °C 9,1 °C 0,0 km/h (0 Bft)
22.05.2019 23:07 9,1 °C 93 % 1018,6 hPa 0,0 mm 0,0 km/h (0 Bft) S-SW 203 ° 0 min 0,000 mm 0,0 UV-I 0 W/m² 8,0 °C 9,1 °C 0,0 km/h (0 Bft)
22.05.2019 23:08 9,1 °C 93 % 1018,6 hPa 0,0 mm 0,0 km/h (0 Bft) S-SW 203 ° 0 min 0,000 mm 0,0 UV-I 0 W/m² 8,0 °C 9,1 °C 0,0 km/h (0 Bft)
22.05.2019 23:09 9,1 °C 93 % 1018,6 hPa 0,0 mm 0,0 km/h (0 Bft) S-SW 203 ° 0 min 0,000 mm 0,0 UV-I 0 W/m² 8,0 °C 9,1 °C 0,0 km/h (0 Bft)
22.05.2019 23:10 9,1 °C 94 % 1018,7 hPa 0,0 mm 0,0 km/h (0 Bft) S-SW 203 ° 0 min 0,000 mm 0,0 UV-I 0 W/m² 8,2 °C 9,1 °C 0,0 km/h (0 Bft)
22.05.2019 23:11 9,1 °C 94 % 1018,7 hPa 0,0 mm 0,0 km/h (0 Bft) S-SW 203 ° 0 min 0,000 mm 0,0 UV-I 0 W/m² 8,2 °C 9,1 °C 0,0 km/h (0 Bft)
22.05.2019 23:12 9,1 °C 94 % 1018,7 hPa 0,0 mm 0,0 km/h (0 Bft) S-SW 203 ° 0 min 0,000 mm 0,0 UV-I 0 W/m² 8,2 °C 9,1 °C 0,0 km/h (0 Bft)
22.05.2019 23:13 8,9 °C 93 % 1018,7 hPa 0,0 mm 0,0 km/h (0 Bft) S-SW 203 ° 0 min 0,000 mm 0,0 UV-I 0 W/m² 7,8 °C 8,9 °C 0,0 km/h (0 Bft)
22.05.2019 23:14 8,9 °C 93 % 1018,7 hPa 0,0 mm 0,0 km/h (0 Bft) S-SW 203 ° 0 min 0,000 mm 0,0 UV-I 0 W/m² 7,8 °C 8,9 °C 0,0 km/h (0 Bft)
22.05.2019 23:15 8,9 °C 93 % 1018,6 hPa 0,0 mm 0,0 km/h (0 Bft) S-SW 203 ° 0 min 0,000 mm 0,0 UV-I 0 W/m² 7,8 °C 8,9 °C 0,0 km/h (0 Bft)
22.05.2019 23:16 8,9 °C 93 % 1018,6 hPa 0,0 mm 0,0 km/h (0 Bft) S-SW 203 ° 0 min 0,000 mm 0,0 UV-I 0 W/m² 7,8 °C 8,9 °C 0,0 km/h (0 Bft)
22.05.2019 23:17 9,0 °C 93 % 1018,7 hPa 0,0 mm 0,0 km/h (0 Bft) S-SW 203 ° 0 min 0,000 mm 0,0 UV-I 0 W/m² 7,9 °C 9,0 °C 0,0 km/h (0 Bft)
22.05.2019 23:18 9,0 °C 93 % 1018,7 hPa 0,0 mm 0,0 km/h (0 Bft) S-SW 203 ° 0 min 0,000 mm 0,0 UV-I 0 W/m² 7,9 °C 9,0 °C 0,0 km/h (0 Bft)
22.05.2019 23:19 9,0 °C 93 % 1018,7 hPa 0,0 mm 0,0 km/h (0 Bft) S-SW 203 ° 0 min 0,000 mm 0,0 UV-I 0 W/m² 7,9 °C 9,0 °C 0,0 km/h (0 Bft)
22.05.2019 23:20 9,0 °C 93 % 1018,7 hPa 0,0 mm 0,0 km/h (0 Bft) S-SW 203 ° 0 min 0,000 mm 0,0 UV-I 0 W/m² 7,9 °C 9,0 °C 0,0 km/h (0 Bft)
22.05.2019 23:21 8,9 °C 93 % 1018,7 hPa 0,0 mm 0,0 km/h (0 Bft) S-SW 203 ° 0 min 0,000 mm 0,0 UV-I 0 W/m² 7,8 °C 8,9 °C 0,0 km/h (0 Bft)
22.05.2019 23:22 8,9 °C 93 % 1018,7 hPa 0,0 mm 0,0 km/h (0 Bft) S-SW 203 ° 0 min 0,000 mm 0,0 UV-I 0 W/m² 7,8 °C 8,9 °C 0,0 km/h (0 Bft)
22.05.2019 23:23 8,9 °C 93 % 1018,7 hPa 0,0 mm 0,0 km/h (0 Bft) S-SW 203 ° 0 min 0,000 mm 0,0 UV-I 0 W/m² 7,8 °C 8,9 °C 0,0 km/h (0 Bft)
22.05.2019 23:24 8,9 °C 93 % 1018,7 hPa 0,0 mm 0,0 km/h (0 Bft) S-SW 203 ° 0 min 0,000 mm 0,0 UV-I 0 W/m² 7,8 °C 8,9 °C 0,0 km/h (0 Bft)
22.05.2019 23:25 8,9 °C 93 % 1018,7 hPa 0,0 mm 0,0 km/h (0 Bft) S-SW 203 ° 0 min 0,000 mm 0,0 UV-I 0 W/m² 7,8 °C 8,9 °C 0,0 km/h (0 Bft)
22.05.2019 23:26 8,9 °C 93 % 1018,7 hPa 0,0 mm 0,0 km/h (0 Bft) S-SW 203 ° 0 min 0,000 mm 0,0 UV-I 0 W/m² 7,8 °C 8,9 °C 0,0 km/h (0 Bft)
22.05.2019 23:27 8,8 °C 93 % 1018,7 hPa 0,0 mm 0,0 km/h (0 Bft) S-SW 203 ° 0 min 0,000 mm 0,0 UV-I 0 W/m² 7,7 °C 8,8 °C 0,0 km/h (0 Bft)
22.05.2019 23:28 8,8 °C 93 % 1018,7 hPa 0,0 mm 0,0 km/h (0 Bft) S-SW 203 ° 0 min 0,000 mm 0,0 UV-I 0 W/m² 7,7 °C 8,8 °C 0,0 km/h (0 Bft)
22.05.2019 23:29 8,7 °C 93 % 1018,7 hPa 0,0 mm 0,0 km/h (0 Bft) S-SW 203 ° 0 min 0,000 mm 0,0 UV-I 0 W/m² 7,6 °C 8,7 °C 0,0 km/h (0 Bft)
22.05.2019 23:30 8,7 °C 93 % 1018,7 hPa 0,0 mm 0,0 km/h (0 Bft) S-SW 203 ° 0 min 0,000 mm 0,0 UV-I 0 W/m² 7,6 °C 8,7 °C 0,0 km/h (0 Bft)
22.05.2019 23:31 8,7 °C 93 % 1018,8 hPa 0,0 mm 0,0 km/h (0 Bft) S-SW 203 ° 0 min 0,000 mm 0,0 UV-I 0 W/m² 7,6 °C 8,7 °C 0,0 km/h (0 Bft)
22.05.2019 23:32 8,6 °C 93 % 1018,7 hPa 0,0 mm 0,0 km/h (0 Bft) S-SW 203 ° 0 min 0,000 mm 0,0 UV-I 0 W/m² 7,5 °C 8,6 °C 0,0 km/h (0 Bft)
22.05.2019 23:33 8,6 °C 93 % 1018,7 hPa 0,0 mm 0,0 km/h (0 Bft) S-SW 203 ° 0 min 0,000 mm 0,0 UV-I 0 W/m² 7,5 °C 8,6 °C 0,0 km/h (0 Bft)
22.05.2019 23:34 8,7 °C 93 % 1018,8 hPa 0,0 mm 0,0 km/h (0 Bft) S-SW 203 ° 0 min 0,000 mm 0,0 UV-I 0 W/m² 7,6 °C 8,7 °C 0,0 km/h (0 Bft)
22.05.2019 23:35 8,7 °C 93 % 1018,8 hPa 0,0 mm 0,0 km/h (0 Bft) S-SW 203 ° 0 min 0,000 mm 0,0 UV-I 0 W/m² 7,6 °C 8,7 °C 0,0 km/h (0 Bft)
22.05.2019 23:36 8,7 °C 94 % 1018,8 hPa 0,0 mm 0,0 km/h (0 Bft) S-SW 203 ° 0 min 0,000 mm 0,0 UV-I 0 W/m² 7,8 °C 8,7 °C 0,0 km/h (0 Bft)
22.05.2019 23:37 8,7 °C 94 % 1018,7 hPa 0,0 mm 0,0 km/h (0 Bft) S-SW 203 ° 0 min 0,000 mm 0,0 UV-I 0 W/m² 7,8 °C 8,7 °C 0,0 km/h (0 Bft)
22.05.2019 23:38 8,7 °C 94 % 1018,7 hPa 0,0 mm 0,0 km/h (0 Bft) S-SW 203 ° 0 min 0,000 mm 0,0 UV-I 0 W/m² 7,8 °C 8,7 °C 0,0 km/h (0 Bft)
22.05.2019 23:39 8,8 °C 94 % 1018,7 hPa 0,0 mm 0,0 km/h (0 Bft) S-SW 203 ° 0 min 0,000 mm 0,0 UV-I 0 W/m² 7,9 °C 8,8 °C 0,0 km/h (0 Bft)
22.05.2019 23:40 8,7 °C 94 % 1018,7 hPa 0,0 mm 0,0 km/h (0 Bft) S-SW 203 ° 0 min 0,000 mm 0,0 UV-I 0 W/m² 7,8 °C 8,7 °C 0,0 km/h (0 Bft)
22.05.2019 23:41 8,8 °C 94 % 1018,7 hPa 0,0 mm 0,0 km/h (0 Bft) S-SW 203 ° 0 min 0,000 mm 0,0 UV-I 0 W/m² 7,9 °C 8,8 °C 0,0 km/h (0 Bft)
22.05.2019 23:42 8,8 °C 94 % 1018,7 hPa 0,0 mm 0,0 km/h (0 Bft) S-SW 203 ° 0 min 0,000 mm 0,0 UV-I 0 W/m² 7,9 °C 8,8 °C 0,0 km/h (0 Bft)
22.05.2019 23:43 8,8 °C 94 % 1018,7 hPa 0,0 mm 0,0 km/h (0 Bft) S-SW 203 ° 0 min 0,000 mm 0,0 UV-I 0 W/m² 7,9 °C 8,8 °C 0,0 km/h (0 Bft)
22.05.2019 23:44 8,7 °C 94 % 1018,7 hPa 0,0 mm 0,0 km/h (0 Bft) S-SW 203 ° 0 min 0,000 mm 0,0 UV-I 0 W/m² 7,8 °C 8,7 °C 0,0 km/h (0 Bft)
22.05.2019 23:45 8,7 °C 94 % 1018,7 hPa 0,0 mm 0,0 km/h (0 Bft) S-SW 203 ° 0 min 0,000 mm 0,0 UV-I 0 W/m² 7,8 °C 8,7 °C 0,0 km/h (0 Bft)
22.05.2019 23:46 8,7 °C 94 % 1018,7 hPa 0,0 mm 0,0 km/h (0 Bft) S-SW 203 ° 0 min 0,000 mm 0,0 UV-I 0 W/m² 7,8 °C 8,7 °C 0,0 km/h (0 Bft)
22.05.2019 23:47 8,6 °C 93 % 1018,7 hPa 0,0 mm 0,0 km/h (0 Bft) S-SW 203 ° 0 min 0,000 mm 0,0 UV-I 0 W/m² 7,5 °C 8,6 °C 0,0 km/h (0 Bft)
22.05.2019 23:48 8,6 °C 93 % 1018,7 hPa 0,0 mm 0,0 km/h (0 Bft) S-SW 203 ° 0 min 0,000 mm 0,0 UV-I 0 W/m² 7,5 °C 8,6 °C 0,0 km/h (0 Bft)
22.05.2019 23:49 8,6 °C 93 % 1018,7 hPa 0,0 mm 0,0 km/h (0 Bft) S-SW 203 ° 0 min 0,000 mm 0,0 UV-I 0 W/m² 7,5 °C 8,6 °C 0,0 km/h (0 Bft)
22.05.2019 23:50 8,5 °C 94 % 1018,7 hPa 0,0 mm 0,0 km/h (0 Bft) S-SW 203 ° 0 min 0,000 mm 0,0 UV-I 0 W/m² 7,6 °C 8,5 °C 0,0 km/h (0 Bft)
22.05.2019 23:51 8,6 °C 94 % 1018,7 hPa 0,0 mm 0,0 km/h (0 Bft) S-SW 203 ° 0 min 0,000 mm 0,0 UV-I 0 W/m² 7,7 °C 8,6 °C 0,0 km/h (0 Bft)
22.05.2019 23:52 8,6 °C 94 % 1018,7 hPa 0,0 mm 0,0 km/h (0 Bft) S-SW 203 ° 0 min 0,000 mm 0,0 UV-I 0 W/m² 7,7 °C 8,6 °C 0,0 km/h (0 Bft)
22.05.2019 23:53 8,6 °C 94 % 1018,7 hPa 0,0 mm 0,0 km/h (0 Bft) S-SW 203 ° 0 min 0,000 mm 0,0 UV-I 0 W/m² 7,7 °C 8,6 °C 0,0 km/h (0 Bft)
22.05.2019 23:54 8,6 °C 94 % 1018,7 hPa 0,0 mm 0,0 km/h (0 Bft) S-SW 203 ° 0 min 0,000 mm 0,0 UV-I 0 W/m² 7,7 °C 8,6 °C 0,0 km/h (0 Bft)
22.05.2019 23:55 8,6 °C 94 % 1018,7 hPa 0,0 mm 1,0 km/h (0 Bft) S-SW 203 ° 0 min 0,000 mm 0,0 UV-I 0 W/m² 7,7 °C 8,6 °C 3,2 km/h (1 Bft)
22.05.2019 23:56 8,6 °C 94 % 1018,7 hPa 0,0 mm 0,5 km/h (0 Bft) S-SW 203 ° 0 min 0,000 mm 0,0 UV-I 0 W/m² 7,7 °C 8,6 °C 1,6 km/h (1 Bft)
22.05.2019 23:57 8,6 °C 94 % 1018,7 hPa 0,0 mm 0,5 km/h (0 Bft) S-SW 203 ° 0 min 0,000 mm 0,0 UV-I 0 W/m² 7,7 °C 8,6 °C 3,2 km/h (1 Bft)
22.05.2019 23:58 8,6 °C 94 % 1018,7 hPa 0,0 mm 0,0 km/h (0 Bft) S-SW 203 ° 0 min 0,000 mm 0,0 UV-I 0 W/m² 7,7 °C 8,6 °C 0,0 km/h (0 Bft)
22.05.2019 23:59 8,6 °C 94 % 1018,7 hPa 0,0 mm 0,0 km/h (0 Bft) S-SW 203 ° 0 min 0,000 mm 0,0 UV-I 0 W/m² 7,7 °C 8,6 °C 0,0 km/h (0 Bft)
_ Min-Zeit 06:32 18:41 00:22 - 23:59 - - - - - - 00:44 00:02 23:59
Minimum _ 8,2 °C 78 % 1014,2 hPa - 0,0 km/h (0 Bft) - - - - - - 7,2 °C 5,8 °C 0,0 km/h (0 Bft)
_ Max-Zeit 16:57 23:59 23:36 10:05 16:06 - - 23:59 13:01 14:24 15:13 14:27 16:57 16:06
Maximum _ 13,0 °C 94 % 1018,8 hPa 0,2 mm 17,1 km/h
W (3 Bft)
- - 0 min 0,178 mm 3,8 UV-I 478 W/m² 10,3 °C 13,0 °C 25,7 km/h
W-SW (4 Bft)
Durchschnitt _ 10,1 °C 90 % 1016,5 hPa #8,8 mm 5,4 km/h (1 Bft) W - #0 min. #1,245 mm 1,7 UV-I 96 W/m² 8,5 °C 9,7 °C 9,1 km/h (2 Bft)